[[{"header":{"parameterUnit":"m.s-1","parameterCategory":1,"la1":30.6,"la2":28.766,"lo1":-90.7593,"lo2":-88.6598,"dy":0.0162,"dx":0.0183,"nx":116,"ny":114,"refTime":"2024-06-09T12:00:00:Z","depth":0,"parameterNumber":2,"parameterNumberName":"U-component_of_WINDS"},"data":[0.0,0.0,0.0,0.0,0.0,0.0,0.0,0.0,0.0,0.0,0.0,0.0,0.0,0.0,0.0,0.0,0.0,0.0,0.0,0.0,0.0,0.0,0.0,0.0,0.0,0.0,0.0,0.0,0.0,0.0,0.0,0.0,0.0,0.0,0.0,0.0,0.0,0.0,0.0,0.0,0.0,0.0,0.0,0.0,0.0,0.0,0.0,0.0,0.0,0.0,0.0,0.0,0.0,0.0,0.0,0.0,0.0,0.0,0.0,0.0,0.0,0.0,0.0,0.0,0.0,0.0,0.0,0.0,0.0,0.0,0.0,0.0,0.0,0.0,0.0,0.0,0.0,0.0,0.0,0.0,0.0,0.0,0.0,0.0,0.0,0.0,0.0,0.0,0.0,0.0,0.0,0.0,0.0,0.0,0.0,0.0,0.0,0.0,0.0,0.0,0.0,0.0,0.0,0.0,0.0,0.0,0.0,0.0,0.0,0.0,0.0,0.0,0.0,0.0,0.0,0.0,0.0,0.0,0.0,0.0,0.0,0.0,0.0,0.0,0.0,0.0,0.0,0.0,0.0,0.0,0.0,0.0,0.0,0.0,0.0,0.0,0.0,0.0,0.0,0.0,0.0,0.0,0.0,0.0,0.0,0.0,0.0,0.0,0.0,0.0,0.0,0.0,0.0,0.0,0.0,0.0,0.0,0.0,0.0,0.0,0.0,0.0,0.0,0.0,0.0,0.0,0.0,0.0,0.0,0.0,0.0,0.0,0.0,0.0,0.0,0.0,0.0,0.0,0.0,0.0,0.0,0.0,0.0,0.0,0.0,0.0,0.0,0.0,0.0,0.0,0.0,0.0,0.0,0.0,0.0,0.0,0.0,0.0,0.0,0.0,0.0,0.0,0.0,0.0,0.0,0.0,0.0,0.0,0.0,0.0,0.0,0.0,0.0,0.0,0.0,0.0,0.0,0.0,0.0,0.0,0.0,0.0,0.0,0.0,0.0,0.0,0.0,0.0,0.0,0.0,0.0,0.0,0.0,0.0,0.0,0.0,0.0,0.0,0.0,0.0,0.0,0.0,0.0,0.0,0.0,0.0,0.0,0.0,0.0,0.0,0.0,0.0,0.0,0.0,0.0,0.0,0.0,0.0,0.0,0.0,0.0,0.0,0.0,0.0,0.0,0.0,0.0,0.0,0.0,0.0,0.0,0.0,0.0,0.0,0.0,0.0,0.0,0.0,0.0,0.0,0.0,0.0,0.0,0.0,0.0,0.0,0.0,0.0,0.0,0.0,0.0,0.0,0.0,0.0,0.0,0.0,0.0,0.0,0.0,0.0,0.0,0.0,0.0,0.0,0.0,0.0,0.0,0.0,0.0,0.0,0.0,0.0,0.0,0.0,0.0,0.0,0.0,0.0,0.0,0.0,0.0,0.0,0.0,0.0,0.0,0.0,0.0,0.0,0.0,0.0,0.0,0.0,0.0,0.0,0.0,0.0,0.0,0.0,0.0,0.0,0.0,0.0,0.0,0.0,0.0,0.0,0.0,0.0,0.0,0.0,0.0,0.0,0.0,0.0,0.0,0.0,0.0,0.0,0.0,0.0,0.0,0.0,0.0,0.0,0.0,0.0,0.0,0.0,0.0,0.0,0.0,0.0,0.0,0.0,0.0,0.0,0.0,0.0,0.0,0.0,0.0,0.0,0.0,0.0,0.0,0.0,0.0,0.0,0.0,0.0,0.0,0.0,0.0,0.0,0.0,0.0,0.0,0.0,0.0,0.0,0.0,0.0,0.0,0.0,0.0,0.0,0.0,0.0,0.0,0.0,0.0,0.0,0.0,0.0,0.0,0.0,0.0,0.0,0.0,0.0,0.0,0.0,0.0,0.0,0.0,0.0,0.0,0.0,0.0,0.0,0.0,0.0,0.0,0.0,0.0,0.0,0.0,0.0,0.0,0.0,0.0,0.0,0.0,0.0,0.0,0.0,0.0,0.0,0.0,0.0,0.0,0.0,0.0,0.0,0.0,0.0,0.0,0.0,0.0,0.0,0.0,0.0,0.0,0.0,0.0,0.0,0.0,0.0,0.0,0.0,0.0,0.0,0.0,0.0,0.0,0.0,0.0,0.0,0.0,0.0,0.0,0.0,0.0,0.0,0.0,0.0,0.0,0.0,0.0,0.0,0.0,0.0,0.0,0.0,0.0,0.0,0.0,0.0,0.0,0.0,0.0,0.0,0.0,0.0,0.0,0.0,0.0,0.0,0.0,0.0,0.0,0.0,0.0,0.0,0.0,0.0,0.0,0.0,0.0,0.0,0.0,0.0,0.0,0.0,0.0,0.0,0.0,0.0,0.0,0.0,0.0,0.0,0.0,0.0,0.0,0.0,0.0,0.0,0.0,0.0,0.0,0.0,0.0,0.0,0.0,0.0,0.0,0.0,0.0,0.0,0.0,0.0,0.0,0.0,0.0,0.0,0.0,0.0,0.0,0.0,0.0,0.0,0.0,0.0,0.0,0.0,0.0,0.0,0.0,0.0,0.0,0.0,0.0,0.0,0.0,0.0,0.0,0.0,0.0,0.0,0.0,0.0,0.0,0.0,0.0,0.0,0.0,0.0,0.0,0.0,0.0,0.0,0.0,0.0,0.0,0.0,0.0,0.0,0.0,0.0,0.0,0.0,0.0,0.0,0.0,0.0,0.0,0.0,0.0,0.0,0.0,0.0,0.0,0.0,0.0,0.0,0.0,0.0,0.0,0.0,0.0,0.0,0.0,0.0,0.0,0.0,0.0,0.0,0.0,0.0,0.0,0.0,0.0,0.0,0.0,0.0,0.0,0.0,0.0,0.0,0.0,0.0,0.0,0.0,0.0,0.0,0.0,0.0,0.0,0.0,0.0,0.0,0.0,0.0,0.0,0.0,0.0,0.0,0.0,0.0,0.0,0.0,0.0,0.0,0.0,0.0,0.0,0.0,0.0,0.0,0.0,0.0,0.0,0.0,0.0,0.0,0.0,0.0,0.0,0.0,0.0,0.0,0.0,0.0,0.0,0.0,0.0,0.0,0.0,0.0,0.0,0.0,0.0,0.0,0.0,0.0,0.0,0.0,0.0,0.0,0.0,0.0,0.0,0.0,0.0,0.0,0.0,0.0,0.0,0.0,0.0,0.0,0.0,0.0,0.0,0.0,0.0,0.0,0.0,0.0,0.0,0.0,0.0,0.0,0.0,0.0,0.0,0.0,0.0,0.0,0.0,0.0,0.0,0.0,0.0,0.0,0.0,0.0,0.0,0.0,0.0,0.0,0.0,0.0,0.0,0.0,0.0,0.0,0.0,0.0,0.0,0.0,0.0,0.0,0.0,0.0,0.0,0.0,0.0,0.0,0.0,0.0,0.0,0.0,0.0,0.0,0.0,0.0,0.0,0.0,0.0,0.0,0.0,0.0,0.0,0.0,0.0,0.0,0.0,0.0,0.0,0.0,0.0,0.0,0.0,0.0,0.0,0.0,0.0,0.0,0.0,0.0,0.0,0.0,0.0,0.0,0.0,0.0,0.0,0.0,0.0,0.0,0.0,0.0,0.0,0.0,0.0,0.0,0.0,0.0,0.0,0.0,0.0,0.0,0.0,0.0,0.0,0.0,0.0,0.0,0.0,0.0,0.0,0.0,0.0,0.0,0.0,0.0,0.0,0.0,0.0,0.0,0.0,0.0,0.0,0.0,0.0,0.0,0.0,0.0,0.0,0.0,0.0,0.0,0.0,0.0,0.0,0.0,0.0,0.0,0.0,0.0,0.0,0.0,0.0,0.0,0.0,0.0,0.0,0.0,0.0,0.0,0.0,0.0,0.0,0.0,0.0,0.0,0.0,0.0,0.0,0.0,0.0,0.0,0.0,0.0,0.0,0.0,0.0,0.0,0.0,0.0,0.0,0.0,0.0,0.0,0.0,0.0,0.0,0.0,0.0,0.0,0.0,0.0,0.0,0.0,0.0,0.0,0.0,0.0,0.0,0.0,0.0,0.0,0.0,0.0,0.0,0.0,0.0,0.0,0.0,0.0,0.0,0.0,0.0,0.0,0.0,0.0,0.0,0.0,0.0,0.0,0.0,0.0,0.0,0.0,0.0,0.0,0.0,0.0,0.0,0.0,0.0,0.0,0.0,0.0,0.0,0.0,0.0,0.0,0.0,0.0,0.0,0.0,0.0,0.0,0.0,0.0,0.0,0.0,0.0,0.0,0.0,0.0,0.0,0.0,0.0,0.0,0.0,0.0,0.0,0.0,0.0,0.0,0.0,0.0,0.0,0.0,0.0,0.0,0.0,0.0,0.0,0.0,0.0,0.0,0.0,0.0,0.0,0.0,0.0,0.0,0.0,0.0,0.0,0.0,0.0,0.0,0.0,0.0,0.0,0.0,0.0,0.0,0.0,0.0,0.0,0.0,0.0,0.0,0.0,0.0,0.0,0.0,0.0,0.0,0.0,0.0,0.0,0.0,0.0,0.0,0.0,0.0,0.0,0.0,0.0,0.0,0.0,0.0,0.0,0.0,0.0,0.0,0.0,0.0,0.0,0.0,0.0,0.0,0.0,0.0,0.0,0.0,0.0,0.0,0.0,0.0,0.0,0.0,0.0,0.0,0.0,0.0,0.0,0.0,0.0,0.0,0.0,0.0,0.0,0.0,0.0,0.0,0.0,0.0,0.0,0.0,0.0,0.0,0.0,0.0,0.0,0.0,0.0,0.0,0.0,0.0,0.0,0.0,0.0,0.0,0.0,0.0,0.0,0.0,0.0,0.0,0.0,0.0,0.0,0.0,0.0,0.0,0.0,0.0,0.0,0.0,0.0,0.0,0.0,0.0,0.0,0.0,0.0,0.0,0.0,0.0,0.0,0.0,0.0,0.0,0.0,0.0,0.0,0.0,0.0,0.0,0.0,0.0,0.0,0.0,0.0,0.0,0.0,0.0,0.0,0.0,0.0,0.0,0.0,0.0,0.0,0.0,0.0,0.0,0.0,0.0,0.0,0.0,0.0,0.0,0.0,0.0,0.0,0.0,0.0,0.0,0.0,0.0,0.0,0.0,0.0,0.0,0.0,0.0,0.0,0.0,0.0,0.0,0.0,0.0,0.0,0.0,0.0,0.0,0.0,0.0,0.0,0.0,0.0,0.0,0.0,0.0,0.0,0.0,0.0,0.0,0.0,0.0,0.0,0.0,0.0,0.0,0.0,0.0,0.0,0.0,0.0,0.0,0.0,0.0,0.0,0.0,0.0,0.0,0.0,0.0,0.0,0.0,0.0,0.0,0.0,0.0,0.0,0.0,0.0,0.0,0.0,0.0,0.0,0.0,0.0,0.0,0.0,0.0,0.0,0.0,0.0,0.0,0.0,0.0,0.0,0.0,0.0,0.0,0.0,0.0,0.0,0.0,0.0,0.0,0.0,0.0,0.0,0.0,0.0,0.0,0.0,0.0,0.0,0.0,0.0,0.0,0.0,0.0,0.0,0.0,0.0,0.0,0.0,0.0,0.0,0.0,0.0,0.0,0.0,0.0,0.0,0.0,0.0,0.0,0.0,0.0,0.0,0.0,0.0,0.0,0.0,0.0,0.0,0.0,0.0,0.0,0.0,0.0,0.0,0.0,0.0,0.0,0.0,0.0,0.0,0.0,0.0,0.0,0.0,0.0,0.0,0.0,0.0,0.0,0.0,0.0,0.0,0.0,0.0,0.0,0.0,0.0,0.0,0.0,0.0,0.0,0.0,0.0,0.0,0.0,0.0,0.0,0.0,0.0,0.0,0.0,0.0,0.0,0.0,0.0,0.0,0.0,0.0,0.0,0.0,0.0,0.0,0.0,0.0,0.0,0.0,0.0,0.0,0.0,0.0,0.0,0.0,0.0,0.0,0.0,0.0,0.0,0.0,0.0,0.0,0.0,0.0,0.0,0.0,0.0,0.0,0.0,0.0,0.0,0.0,0.0,0.0,0.0,0.0,0.0,0.0,0.0,0.0,0.0,0.0,0.0,0.0,0.0,0.0,0.0,0.0,0.0,0.0,0.0,0.0,0.0,0.0,0.0,0.0,0.0,0.0,0.0,0.0,0.0,0.0,0.0,0.0,0.0,0.0,0.0,0.0,0.0,-2.5796,0.0,0.0,0.0,0.0,0.0,0.0,0.0,0.0,0.0,0.0,0.0,0.0,0.0,0.0,0.0,0.0,0.0,0.0,0.0,0.0,0.0,0.0,0.0,0.0,-0.9891,-1.0509,-1.1334,-1.1782,-1.1981,-1.1895,0.0,0.0,0.0,0.0,0.0,-1.4289,-1.4514,-1.499,-1.5668,-1.5915,-1.6591,-1.7664,-1.7955,-1.7853,-1.7413,0.0,0.0,0.0,0.0,0.0,0.0,0.0,0.0,0.0,0.0,0.0,0.0,0.0,0.0,0.0,0.0,0.0,0.0,0.0,0.0,0.0,0.0,0.0,0.0,0.0,0.0,0.0,0.0,0.0,0.0,0.0,0.0,0.0,0.0,0.0,0.0,0.0,0.0,0.0,0.0,0.0,0.0,0.0,0.0,0.0,0.0,0.0,0.0,0.0,0.0,0.0,0.0,0.0,0.0,0.0,0.0,0.0,0.0,0.0,0.0,0.0,0.0,0.0,0.0,0.0,0.0,0.0,0.0,0.0,0.0,0.0,-2.7658,0.0,0.0,0.0,0.0,0.0,0.0,0.0,0.0,0.0,0.0,0.0,0.0,0.0,0.0,0.0,0.0,0.0,0.0,0.0,0.0,0.0,-0.835,-0.9753,-1.0333,-1.0967,-1.1788,-1.2508,-1.2788,-1.2457,-1.3001,0.0,0.0,0.0,-1.4485,-1.486,-1.5022,-1.5657,-1.6789,-1.7232,-1.8483,-2.0552,-2.1918,-2.151,-1.9543,-1.8954,0.0,0.0,0.0,0.0,0.0,0.0,0.0,0.0,0.0,0.0,0.0,0.0,0.0,0.0,0.0,0.0,0.0,0.0,0.0,0.0,0.0,0.0,0.0,0.0,0.0,0.0,0.0,0.0,0.0,0.0,0.0,0.0,0.0,0.0,0.0,0.0,0.0,0.0,0.0,0.0,0.0,0.0,0.0,0.0,0.0,0.0,0.0,0.0,0.0,0.0,0.0,0.0,0.0,0.0,0.0,0.0,0.0,0.0,0.0,0.0,0.0,0.0,0.0,-3.4795,-3.4846,-3.4826,-3.4839,-3.4989,-3.5088,-3.234,-3.1165,-3.1095,-2.9137,0.0,0.0,0.0,0.0,0.0,0.0,0.0,0.0,0.0,0.0,0.0,0.0,0.0,0.0,0.0,0.0,0.0,0.0,0.0,-0.8266,-1.0117,-1.058,-1.1547,-1.348,-1.3758,-1.3694,-1.3344,-1.4205,0.0,0.0,-1.507,-1.5697,-1.5979,-1.6456,-1.7124,-1.799,-2.0349,-2.2167,-2.3464,-2.4142,-2.4491,-2.4517,-2.1602,-2.0186,-1.9869,0.0,0.0,0.0,0.0,0.0,0.0,0.0,0.0,0.0,0.0,0.0,0.0,0.0,0.0,0.0,0.0,0.0,0.0,0.0,0.0,0.0,0.0,0.0,0.0,0.0,0.0,0.0,0.0,0.0,0.0,0.0,0.0,0.0,0.0,0.0,0.0,0.0,0.0,0.0,0.0,0.0,-2.5342,-2.6239,0.0,0.0,0.0,0.0,0.0,0.0,0.0,0.0,0.0,0.0,0.0,0.0,0.0,-3.528,-3.5159,-3.7023,-3.787,-3.772,-3.832,-3.8585,-3.8585,-3.8585,-3.8626,-3.8631,-3.8197,0.0,-3.3315,-3.2387,0.0,0.0,0.0,0.0,0.0,0.0,0.0,0.0,0.0,0.0,0.0,0.0,0.0,0.0,0.0,0.0,0.0,0.0,0.0,0.0,0.0,-1.1282,-1.2303,-1.3543,-1.4904,-1.5059,-1.3543,-1.459,-1.5126,-1.4825,-1.5626,-1.6292,-1.6754,-1.7666,-1.9046,-2.0951,-2.3753,-2.536,-2.5862,-2.6414,-2.6559,-2.6304,-2.4855,-2.3318,-2.1714,-2.0247,0.0,0.0,0.0,0.0,0.0,0.0,0.0,0.0,0.0,0.0,0.0,0.0,0.0,0.0,0.0,0.0,0.0,0.0,0.0,0.0,0.0,0.0,0.0,0.0,0.0,0.0,0.0,0.0,0.0,0.0,0.0,0.0,0.0,0.0,0.0,0.0,0.0,0.0,0.0,-2.5832,-2.8163,-2.9048,-2.9388,-2.9254,0.0,0.0,0.0,0.0,0.0,0.0,0.0,0.0,0.0,-3.5926,-3.6884,-3.7687,-3.8338,-3.9257,-3.9854,-4.0055,-4.0343,-4.0481,-4.0481,-4.0481,-4.0481,-4.0481,-4.0481,-3.9553,-3.7897,-3.5456,-3.3377,-3.1666,0.0,0.0,0.0,0.0,-2.9892,-2.965,0.0,0.0,0.0,0.0,0.0,0.0,0.0,0.0,0.0,0.0,0.0,0.0,-1.0458,-1.1763,-1.2884,-1.3885,-1.5624,-1.5964,-1.4287,-1.5044,-1.5489,-1.5367,-1.5959,-1.6655,-1.7391,-1.9133,-2.134,-2.396,-2.6339,-2.7557,-2.772,-2.8273,-2.8237,-2.7727,-2.7727,-2.6152,-2.3464,-2.2235,-2.0147,-1.7602,0.0,0.0,0.0,0.0,0.0,0.0,0.0,0.0,0.0,0.0,0.0,0.0,0.0,0.0,0.0,0.0,0.0,0.0,0.0,0.0,0.0,0.0,0.0,0.0,0.0,0.0,0.0,0.0,0.0,0.0,0.0,0.0,0.0,0.0,0.0,0.0,0.0,-2.8096,-3.0284,-3.1454,-3.2114,-3.2124,0.0,0.0,0.0,0.0,0.0,0.0,-3.5957,-3.6367,-3.7245,-3.8816,-3.9206,-3.9883,-4.0912,-4.111,-4.1475,-4.1943,-4.1943,-4.1943,-4.1943,-4.1943,-4.1943,-4.1943,-4.1943,-4.1844,-4.143,-3.822,-3.6033,-3.4643,-3.3743,-3.3094,-3.2619,-3.2676,-3.2222,-3.1768,0.0,0.0,0.0,0.0,0.0,0.0,0.0,0.0,0.0,0.0,0.0,-0.9006,-1.0697,-1.1692,-1.3105,-1.5302,-1.5659,-1.5915,0.0,-1.5904,-1.5727,-1.5771,-1.6107,-1.6823,-1.7939,-2.1197,-2.4029,-2.6323,-2.7482,-2.8335,-2.8813,-2.944,-2.9691,-2.9666,-2.9666,-2.8074,-2.5203,-2.2734,-2.0935,-1.958,-1.772,0.0,0.0,0.0,0.0,0.0,0.0,0.0,0.0,0.0,0.0,0.0,0.0,0.0,0.0,0.0,0.0,0.0,0.0,0.0,0.0,0.0,0.0,0.0,0.0,0.0,0.0,0.0,0.0,0.0,0.0,0.0,0.0,0.0,0.0,0.0,0.0,0.0,0.0,-3.3003,-3.3649,0.0,0.0,0.0,0.0,-3.4994,-3.6959,-3.8212,-3.8329,-3.9544,-4.029,-4.039,-4.1614,-4.2307,-4.2373,-4.3085,-4.3449,-4.3482,-4.3482,-4.3482,-4.3482,-4.3482,-4.3482,-4.3482,-4.3482,-4.3085,-4.2307,-4.0595,-3.9045,-3.7705,-3.6741,-3.5169,-3.3423,-3.3431,-3.303,-3.2436,0.0,0.0,0.0,0.0,0.0,-0.5782,-0.6054,-0.6864,-0.7472,-0.75,-0.8391,-0.959,-1.0988,-1.2305,-1.3781,-1.5449,-1.6564,-1.6982,-1.6554,-1.6854,-1.731,-1.7912,-1.829,-1.9718,-2.2322,-2.4274,-2.6013,-2.7519,-2.8649,-2.9289,-2.949,-2.9691,-2.9792,-2.9792,-2.9209,-2.8071,-2.6429,-2.4978,-2.2983,-2.0742,-1.9253,-1.7705,0.0,0.0,0.0,0.0,0.0,0.0,0.0,0.0,0.0,0.0,0.0,0.0,0.0,0.0,0.0,0.0,0.0,0.0,0.0,0.0,0.0,0.0,0.0,0.0,0.0,0.0,0.0,0.0,0.0,0.0,0.0,0.0,0.0,0.0,0.0,0.0,0.0,-3.5182,-3.6659,0.0,-3.7035,-3.7551,-3.8094,-3.8578,-3.9299,-4.0336,-4.172,-4.2228,-4.2924,-4.387,-4.4387,-4.439,-4.3926,-4.4175,-4.4075,-4.3598,-4.3598,-4.3598,-4.3598,-4.3598,-4.3598,-4.3598,-4.3598,-4.3224,-4.2519,-4.1661,-4.0788,-3.9877,-3.9316,-3.8377,-3.7212,-3.6366,-3.5628,-3.4884,0.0,0.0,0.0,0.0,-0.5286,-0.5803,-0.6081,-0.7019,-0.7736,-0.7835,-0.8841,-1.002,-1.1188,-1.2582,-1.4096,-1.5796,-1.6869,-1.7455,-1.7392,-1.7543,-1.7924,-1.8673,-1.9567,-2.1544,-2.4709,-2.5679,-2.6834,-2.8237,-2.898,-2.9495,-2.9792,-2.9507,-2.9378,-2.9326,-2.8422,-2.7516,-2.6621,-2.6032,-2.4251,-2.1692,-2.0781,-1.9551,-1.8238,0.0,0.0,0.0,0.0,0.0,0.0,0.0,0.0,0.0,0.0,0.0,0.0,0.0,0.0,0.0,0.0,0.0,0.0,0.0,0.0,0.0,0.0,0.0,0.0,0.0,0.0,0.0,0.0,0.0,0.0,0.0,0.0,0.0,0.0,0.0,-3.5052,-3.66,-3.8366,-3.931,-3.8911,-3.98,-4.0725,-4.1511,-4.1716,-4.2565,-4.4244,-4.4357,-4.4787,-4.5765,-4.5798,-4.5566,-4.5069,-4.5052,-4.4688,-4.3976,-4.3976,-4.383,-4.3598,-4.3598,-4.3568,-4.3539,-4.3539,-4.3235,-4.271,-4.2157,-4.1675,-4.1207,-4.043,-3.9519,-3.8598,-3.7728,-3.6965,-3.6231,0.0,0.0,0.0,-0.4287,-0.5091,-0.5739,-0.583,-0.69,-0.7916,-0.8425,-0.9337,-1.0299,-1.1309,-1.2414,-1.4062,-1.6378,-1.6467,-1.7131,-1.8839,-1.7886,-1.7481,-1.8029,-1.9925,-2.2151,-2.4725,-2.5287,-2.65,-2.851,-2.851,-2.8931,-2.9725,-2.8879,-2.851,-2.8471,-2.7522,-2.661,-2.5821,-2.581,-2.4536,-2.254,-2.2184,-2.1449,-2.0502,0.0,0.0,0.0,0.0,0.0,0.0,0.0,0.0,0.0,0.0,0.0,0.0,0.0,0.0,0.0,0.0,0.0,0.0,0.0,0.0,0.0,0.0,0.0,0.0,0.0,0.0,0.0,0.0,0.0,0.0,0.0,0.0,0.0,-3.241,-3.4083,-3.5783,-3.7205,-3.8617,-3.948,-3.9487,-4.1269,-4.2768,-4.3573,-4.422,-4.4968,-4.5818,-4.5849,-4.5914,-4.593,-4.593,-4.5914,-4.5897,-4.5897,-4.5516,-4.4787,-4.4771,-4.4373,-4.3664,-4.3631,-4.3555,-4.3419,-4.3402,-4.3265,-4.2974,-4.2126,-4.1722,-4.156,-4.0026,-3.8557,-3.737,-3.7355,-3.6906,-3.6228,0.0,0.0,-0.4051,-0.4878,-0.5437,-0.5959,-0.6526,-0.7468,-0.8214,-0.8477,-0.9698,-1.0866,-1.1678,-1.2757,-1.4073,-1.5738,-1.6197,-1.6897,-1.8031,-1.8221,-1.918,-2.114,-2.3147,-2.4884,-2.6348,-2.6508,-2.7231,-2.8483,-2.8483,-2.861,-2.8862,-2.861,-2.8483,-2.8483,-2.7558,-2.7052,-2.677,-2.5806,-2.5025,-2.4374,-2.3323,-2.2369,-2.1659,0.0,0.0,0.0,0.0,0.0,0.0,0.0,0.0,0.0,0.0,0.0,0.0,0.0,0.0,0.0,0.0,0.0,0.0,0.0,0.0,0.0,0.0,0.0,0.0,0.0,0.0,0.0,0.0,0.0,0.0,0.0,0.0,-3.3905,-3.4556,-3.5896,-3.7303,-3.8656,-4.0021,-4.1036,-4.1535,-4.2551,-4.3482,-4.4196,-4.4402,-4.5341,-4.7163,-4.7263,-4.7796,-4.8945,-4.8995,-4.8746,-4.8199,-4.8199,-4.7819,-4.709,-4.6543,-4.5914,-4.5185,-4.4638,-4.4095,-4.3539,-4.3432,-4.2756,-4.1674,-4.1196,-4.0347,-3.9463,-3.9956,-3.9549,-3.8686,-3.8242,-3.7325,-3.6286,0.0,-0.3798,-0.4106,-0.4869,-0.555,-0.6114,-0.6583,-0.7641,-0.8472,-0.8731,-0.9996,-1.1142,-1.1848,-1.2845,-1.3924,-1.5064,-1.6065,-1.6798,-1.7262,-1.8402,-2.0152,-2.2688,-2.4094,-2.5256,-2.622,-2.6428,-2.7091,-2.8255,-2.8038,-2.8255,-2.8815,-2.8211,-2.7951,-2.7907,-2.7051,-2.6672,-2.6606,-2.5829,-2.5211,-2.4744,-2.4236,-2.368,-2.3073,-2.2675,-2.2014,-2.1292,-2.0741,-2.0555,-2.0575,-2.0728,0.0,0.0,0.0,0.0,0.0,0.0,0.0,0.0,0.0,0.0,0.0,0.0,0.0,0.0,0.0,0.0,0.0,0.0,0.0,0.0,0.0,0.0,0.0,0.0,-3.4978,-3.6447,-3.7419,-3.7958,-3.8646,-3.9709,-4.1012,-4.2088,-4.275,-4.3453,-4.4242,-4.526,-4.5344,-4.6023,-4.7625,-4.7725,-4.8136,-4.9073,-4.9109,-4.8914,-4.8491,-4.8824,-4.8669,-4.7931,-4.7836,-4.7094,-4.5733,-4.5306,-4.4494,-4.3428,-4.3267,-4.252,-4.1364,-4.0777,-3.9862,0.0,0.0,0.0,0.0,0.0,-3.7629,-3.6722,0.0,-0.3942,-0.4251,-0.4578,-0.5486,-0.62,-0.6337,-0.7544,-0.8577,-0.8932,-1.013,-1.1127,-1.1688,-1.2686,-1.3602,-1.4365,-1.5951,-1.6934,0.0,-1.8829,-2.0884,-2.3174,-2.3753,-2.45,-2.5402,-2.5841,-2.6689,-2.7921,-2.7491,-2.7877,-2.9054,-2.7789,-2.7179,-2.7035,-2.6247,-2.5894,-2.5792,-2.5741,-2.5123,-2.4257,-2.4767,-2.4736,-2.4329,-2.3598,-2.308,-2.2631,-2.1796,-2.1274,-2.1018,-2.1363,0.0,0.0,0.0,0.0,0.0,0.0,0.0,0.0,0.0,0.0,0.0,0.0,0.0,0.0,0.0,0.0,0.0,0.0,0.0,0.0,0.0,0.0,0.0,0.0,-3.764,-3.9029,-4.0337,-4.0068,-3.9963,-4.0546,-4.1752,-4.2785,-4.3434,-4.4062,-4.5001,-4.6364,-4.6429,-4.6755,-4.7563,0.0,0.0,0.0,0.0,-4.7785,-4.7864,-4.861,-4.8687,-4.8006,-4.8746,-4.7942,-4.5878,-4.5798,-4.4851,-4.3251,-4.3074,-4.2472,-4.1606,-4.0758,-3.9964,-3.9222,-3.8478,-3.8202,-3.8202,-3.8202,-3.7868,-3.7404,0.0,-0.4162,-0.4461,-0.4851,-0.5448,-0.6044,-0.6556,-0.7461,-0.8141,-0.8273,-0.9535,-1.0553,-1.0889,-1.1965,-1.2898,-1.3404,-1.5463,-1.7679,0.0,-2.1241,-2.2462,-2.3691,-2.4529,-2.5555,-2.6872,-2.6968,-2.7338,-2.7989,-2.7907,-2.7768,-2.7675,-2.7405,-2.6925,-2.631,-2.6129,-2.5679,-2.5064,-2.4669,-2.4382,-2.4154,-2.3633,-2.3516,-2.3744,-2.4088,-2.4187,-2.4012,-2.3128,-2.3031,-2.3284,-2.3277,-2.2648,-2.2087,-2.3354,-2.2127,0.0,0.0,0.0,0.0,0.0,0.0,0.0,0.0,0.0,0.0,0.0,0.0,0.0,0.0,0.0,0.0,0.0,0.0,0.0,-3.7331,-3.8867,-4.0122,-4.1085,-4.1572,-4.1871,-4.2006,-4.274,-4.3434,-4.4077,-4.4721,-4.5462,-4.6277,-4.5853,-4.6158,-4.7512,-4.7097,-4.7364,-4.8518,-4.8573,-4.8841,-4.9355,-4.9527,-4.9526,-4.9399,0.0,0.0,-4.6975,-4.6386,-4.5222,-4.3656,-4.352,-4.2748,-4.1511,-4.116,-4.0313,-3.9171,-3.8481,-3.8202,-3.8202,-3.8202,-3.813,-3.8028,-0.4451,-0.4536,-0.4672,-0.5077,-0.5626,-0.6151,-0.6619,-0.7499,-0.8262,-0.8691,-0.9803,-1.0698,-1.1049,-1.1847,-1.2449,-1.2691,-1.4898,0.0,-2.0639,-2.1886,-2.3111,-2.4498,-2.542,-2.6239,-2.6917,-2.7427,-2.7753,-2.7998,-2.7998,-2.7657,-2.704,-2.6812,-2.6284,-2.5489,-2.5489,-2.5294,-2.4875,-2.4667,-2.4217,-2.3705,-2.3636,-2.3238,-2.2805,-2.366,-2.4196,-2.4414,-2.3774,-2.3536,-2.3585,-2.3697,-2.3332,-2.3022,-2.4211,-2.3522,-2.2226,0.0,0.0,0.0,0.0,0.0,0.0,0.0,0.0,0.0,0.0,0.0,0.0,0.0,0.0,-3.1045,0.0,0.0,-3.6736,-3.8741,-4.0542,-4.1963,-4.2619,-4.3056,-4.3225,-4.288,-4.3434,-4.4242,-4.5229,-4.5618,-4.5963,-4.6249,-4.6007,-4.6007,-4.6416,-4.6138,-4.6422,-4.7527,-4.7542,-4.7881,-4.8558,-4.8856,-4.8988,-4.8988,-4.8951,-4.8261,-4.7093,-4.6713,-4.5706,-4.418,-4.3681,-4.2871,-4.1878,-4.1002,-4.0251,-3.9625,-3.9276,-3.8754,-3.8202,-3.8202,-3.8202,-3.8202,-0.5017,-0.4933,-0.4928,-0.5233,-0.5739,-0.6218,-0.6603,-0.7487,-0.8335,-0.899,-0.9988,-1.0739,-1.1051,-1.1588,-1.2109,0.0,0.0,0.0,-2.0449,-2.1719,-2.3113,-2.4832,-2.5768,-2.632,-2.6506,-2.728,-2.7704,-2.7704,-2.7657,-2.7268,-2.6494,-2.6081,-2.545,-2.4648,-2.4648,-2.4599,-2.4452,-2.4452,-2.3923,-2.3143,-2.3586,-2.307,-2.2115,-2.3073,-2.3791,-2.4264,-2.4075,-2.3638,-2.3228,-2.3561,-2.3517,-2.3464,-2.4342,-2.4437,-2.4116,-2.3728,-2.3422,0.0,0.0,0.0,0.0,0.0,0.0,0.0,0.0,0.0,-2.8551,-3.0387,-3.1559,-3.2831,-3.4578,-3.6334,-3.8079,-3.9727,-4.1698,-4.3245,-4.3864,-4.4128,-4.4086,-4.3683,-4.4142,-4.493,-4.6022,-4.6204,-4.6279,-4.6279,-4.6082,-4.5693,-4.5125,-4.511,-4.5382,-4.6028,-4.6043,-4.6356,-4.6955,-4.7332,-4.7521,-4.7521,-4.8014,-4.7615,-4.6384,-4.6384,-4.5622,-4.4215,-4.3431,-4.2792,-4.2237,-4.0997,-4.0408,-4.0292,-4.0292,-3.9523,-3.8391,-3.8391,-3.8318,-3.8202,0.0,-0.5243,-0.5255,-0.5301,-0.5545,-0.5941,-0.6456,-0.7226,-0.7775,-0.7891,-0.9126,-0.9897,-0.9577,-1.0384,-1.1838,-1.4058,-1.5676,-1.7596,-1.9954,-2.1167,-2.2398,-2.3827,-2.4457,-2.5253,-2.6116,-2.6474,-2.6648,-2.6648,-2.6446,-2.6013,-2.5479,-2.5187,-2.4599,-2.3827,-2.3827,-2.3479,-2.2837,-2.2837,-2.2769,-2.265,-2.2371,-2.2303,-2.2476,-2.2905,-2.3289,-2.3661,-2.4179,-2.3763,-2.308,-2.3551,-2.3084,-2.2578,-2.3862,-2.4237,-2.4234,-2.4361,-2.4028,-2.3663,-2.3839,-2.4318,-2.5084,-2.6553,-2.6675,-2.7278,0.0,0.0,-3.0714,-3.244,-3.325,-3.3977,-3.4972,-3.6204,-3.7708,-3.969,-4.117,-4.2466,-4.3593,-4.3897,-4.424,-4.4745,-4.5015,-4.5244,-4.5394,-4.5963,-4.6279,-4.6279,-4.5214,-4.4511,-4.4421,-4.4421,-4.4654,-4.5117,-4.5146,-4.5359,-4.5782,-4.5321,-4.5082,-4.5082,-4.5151,-4.498,-4.461,-4.461,-4.4087,-4.3149,-4.2497,-4.2206,-4.2119,-4.1932,-4.1526,-4.0989,-4.0989,-4.0205,-3.9088,-3.9088,-3.871,-3.8202,0.0,-0.5647,-0.5674,-0.5604,-0.5653,-0.5886,-0.6429,-0.6942,-0.7481,-0.8029,-0.9018,-0.9736,-0.9914,-1.1066,-1.2206,-1.3254,-1.5393,-1.7225,-1.8406,-2.0567,-2.2286,-2.3301,-2.4163,-2.4957,-2.5615,-2.6061,-2.6205,-2.6022,-2.5906,-2.5421,-2.4618,-2.4313,-2.3777,-2.3038,-2.3038,-2.2896,-2.2594,-2.2594,-2.2594,-2.2585,-2.2431,-2.214,-2.1933,-2.2373,-2.247,-2.2512,-2.3628,-2.3556,0.0,-2.2868,-2.2506,-2.2286,-2.3178,-2.3507,-2.3703,-2.4466,-2.4874,-2.539,-2.6722,-2.7157,-2.7421,-2.8486,-2.9277,-3.0143,-3.1436,-3.1637,-3.1838,-3.2867,-3.3771,-3.4463,-3.4838,-3.6391,-3.8018,0.0,-4.0904,-4.2539,-4.3661,-4.3474,-4.3501,-4.4167,-4.3968,-4.4206,-4.5173,-4.5433,-4.5448,-4.5143,-4.4742,-4.4392,-4.4143,-4.4347,-4.4726,-4.5322,-4.5352,-4.5619,-4.6167,-4.5403,-4.5052,-4.5037,-4.4556,-4.4237,-4.4151,-4.4151,-4.3702,-4.2977,-4.2716,-4.2411,-4.2092,-4.2092,-4.1932,-4.1671,-4.1671,-4.112,-4.022,-3.9465,-3.8783,-3.8202,0.0,-0.5927,-0.5976,-0.5879,-0.5875,-0.603,-0.647,-0.6865,-0.7393,-0.8167,-0.8843,-0.9501,-1.0109,-1.1258,-1.2108,-1.238,-1.4466,-1.607,-1.6784,-1.9299,-2.1085,-2.1953,-2.3196,-2.4115,-2.4577,-2.5178,-2.5392,-2.5314,-2.5138,-2.4648,-2.3886,-2.3538,-2.3088,-2.2594,-2.2594,-2.2594,-2.2594,-2.2594,-2.2534,-2.2448,-2.2448,-2.1876,-2.1165,-2.1805,-2.1789,-2.1577,-2.2839,-2.3025,-2.2582,-2.2229,-2.2076,-2.2151,-2.2689,-2.3087,-2.3655,-2.4956,-2.6036,-2.7135,-2.8577,-2.9038,-2.9377,-3.0244,-3.1348,-3.2152,-3.1913,-3.2164,-3.2616,-3.3181,-3.3935,-3.4537,-3.4655,-3.6186,-3.7586,-3.8201,-4.0247,-4.2073,-4.3126,-4.2907,-4.2857,-4.3505,-4.2883,-4.2987,-4.4441,-4.4763,-4.4703,-4.4158,-4.4418,-4.4381,-4.3927,-4.4541,-4.5078,-4.5477,-4.5491,-4.5712,-4.6138,-4.5318,-4.4967,-4.4909,-4.4094,-4.3718,-4.3718,-4.3544,-4.3195,-4.2745,-4.2745,-4.2498,-4.2092,-4.2092,-4.2092,-4.2092,-4.2092,-4.1686,-4.0989,-4.006,-3.9189,-3.8449,0.0,0.0,-0.5997,-0.5997,-0.6196,-0.6418,-0.6577,-0.7047,-0.7507,-0.7868,-0.8335,-0.8884,-0.9563,-1.0226,-1.107,-1.2129,-1.3012,-1.4021,-1.527,-1.6911,-1.8216,-1.9109,-2.0878,-2.2188,-2.2837,-2.3556,-2.4003,-2.4251,-2.3696,-2.3447,-2.3397,-2.2896,-2.2594,-2.2594,-2.2594,-2.2594,-2.2594,-2.2594,-2.2388,-2.2013,-2.2013,-2.1336,-2.0417,-2.1347,-2.14,-2.1059,-2.1987,-2.2193,-2.2034,-2.1945,-2.1896,-2.2016,-2.2539,-2.3389,0.0,-2.6164,-2.7602,-2.859,-2.8388,-2.9038,-3.0143,-3.1738,-3.2177,-3.2353,-3.2905,-3.3043,-3.3206,-3.3759,-3.3897,-3.4085,-3.4625,-3.5177,-3.5877,-3.6863,-3.8836,-4.0597,-4.1527,-4.212,-4.2626,-4.3228,-4.2379,-4.2025,0.0,-4.3882,-4.4354,-4.3747,-4.4251,-4.4354,-4.3735,-4.4914,-4.5477,-4.5215,-4.5259,-4.5172,-4.4952,-4.4371,-4.4066,-4.4051,-4.334,-4.3021,-4.3007,-4.2411,-4.215,-4.2121,-4.2121,-4.2121,-4.2092,-4.2092,-4.2092,-4.2092,-4.2092,-4.1686,-4.1091,-4.1062,-4.0249,-3.9088,0.0,0.0,0.0,-0.6655,-0.6847,-0.7014,-0.7051,-0.7168,-0.7344,-0.7614,-0.8359,0.0,0.0,0.0,0.0,0.0,-1.2601,-1.3512,-1.4135,-1.5529,-1.6698,-1.7462,-1.8558,-1.954,-2.0398,-2.0655,-2.0991,-2.1412,-2.1054,-2.0801,-2.0628,-2.0233,-2.0366,-2.0835,-2.0835,-2.1187,-2.179,-2.179,-2.1876,-2.1953,-2.1456,-2.1028,-2.0718,-2.0784,-2.0665,-2.0454,0.0,-2.1118,-2.1354,-2.0659,-2.0653,-2.0948,-2.1105,-2.209,-2.3691,-2.6422,-2.8167,-2.937,-3.0037,-3.0795,-3.1524,-3.2077,-3.2503,-3.283,-3.3031,-3.3124,-3.3174,-3.3319,-3.3357,-3.352,-3.4073,-3.4324,-3.4778,-3.5816,-3.7182,-3.8464,-3.9588,-3.9692,-4.0139,-4.1369,-4.0854,0.0,0.0,0.0,0.0,-4.3071,-4.4117,-4.4602,-4.4101,-4.5172,-4.574,-4.5695,-4.5695,-4.565,-4.5547,-4.4908,-4.4589,-4.4574,-4.395,-4.3427,-4.2977,-4.2774,-4.2469,-4.2092,-4.2092,-4.2092,-4.2092,-4.2092,-4.1633,-4.093,-4.1057,-4.0491,-3.954,-3.911,-3.8724,-3.8311,0.0,0.0,0.0,0.0,0.0,0.0,0.0,0.0,0.0,0.0,0.0,0.0,0.0,0.0,0.0,0.0,0.0,-1.2508,-1.3038,-1.4186,-1.5119,-1.5692,-1.6737,-1.7676,-1.849,-1.8683,-1.9012,-1.9534,-1.9187,-1.8962,-1.892,-1.8528,-1.8604,-1.9073,-1.9415,-2.002,-2.0716,-2.0921,-2.1156,-2.1336,-2.0812,-2.0445,-2.0188,-2.0121,-2.0114,0.0,-1.9951,-2.0318,-2.0776,-1.9746,-1.9975,-2.0672,-2.0672,-2.2385,-2.4798,-2.6986,-2.8651,-3.0125,-3.1502,-3.1893,-3.2064,-3.2667,-3.2943,-3.3124,-3.3124,-3.3124,-3.3061,-3.2805,-3.2616,-3.2579,-3.2943,-3.3006,-3.3432,-3.4705,-3.5891,-3.7148,-3.8568,-3.8452,-3.8831,-4.0207,-4.0193,-4.035,0.0,0.0,0.0,-4.2532,-4.421,-4.4967,-4.4223,-4.5272,-4.588,-4.588,-4.588,-4.573,-4.5338,-4.5266,-4.4978,-4.4362,-4.4356,-4.3603,-4.2247,-4.261,-4.2267,-4.1341,-4.1341,-4.1256,-4.1057,-4.0958,-4.0446,-3.9754,-3.9784,-3.9332,-3.8613,-3.822,-3.7832,-3.7424,0.0,0.0,0.0,0.0,0.0,0.0,0.0,0.0,0.0,0.0,0.0,0.0,0.0,0.0,0.0,0.0,0.0,0.0,-1.1988,-1.2785,-1.3407,-1.3889,-1.5307,-1.643,-1.7099,-1.7447,-1.7918,-1.8491,-1.8002,-1.7918,-1.8172,-1.7701,-1.7453,-1.7531,-1.848,-1.9086,-1.9499,-2.0012,-2.0277,-2.0243,-2.0095,-1.9591,-1.8979,-1.9442,-1.9732,-1.9854,-1.9659,-1.9932,-2.0278,-1.9333,-2.0044,-2.1322,-2.141,-2.423,-2.7589,-2.79,-2.9214,-3.093,-3.268,-3.2458,-3.2051,-3.3571,-3.3545,-3.3187,-3.3093,-3.3099,-3.2867,-3.229,-3.1712,-3.1311,0.0,0.0,-3.1901,-3.3583,-3.5082,-3.6627,-3.8283,-3.8371,-3.8668,0.0,0.0,0.0,0.0,0.0,0.0,-4.2141,0.0,-4.5255,-4.4008,-4.5109,-4.573,-4.573,-4.573,-4.5247,-4.4219,-4.5247,-4.4946,-4.3395,-4.433,-4.3449,-4.0976,-4.1928,-4.1536,-4.0042,-4.0015,-3.9721,-3.9193,-3.8917,-3.8769,-3.8667,-3.8429,-3.8281,-3.8235,-3.8235,-3.7533,-3.6512,0.0,0.0,0.0,0.0,0.0,0.0,0.0,0.0,0.0,0.0,0.0,0.0,0.0,0.0,0.0,0.0,0.0,0.0,-1.1248,-1.1648,-1.2124,-1.2723,-1.3156,-1.3765,-1.4544,-1.4906,-1.5279,-1.5569,-1.5862,-1.5879,-1.5591,-1.5451,-1.5647,-1.6228,-1.6944,-1.7851,-1.8789,-1.9435,-1.98,-1.9904,-1.939,-1.9186,-1.9209,-1.997,-2.013,-1.9966,-2.0618,-2.0707,-2.0549,-2.0602,-2.1605,-2.3181,-2.5063,-2.6166,-2.7254,-2.9611,-3.1435,-3.282,-3.3708,-3.4798,-3.5516,-3.4713,-3.4412,-3.4085,-3.3269,-3.2742,-3.2265,-3.1712,-3.0846,-3.0193,0.0,0.0,0.0,-3.3018,-3.4306,0.0,-3.7318,-3.753,0.0,-3.9404,0.0,-4.0073,-4.1,-4.187,0.0,0.0,-4.2988,-4.3877,-4.3565,-4.358,-4.3606,-4.3606,-4.3606,-4.3464,-4.3177,-4.3464,-4.3395,-4.2944,-4.3229,-4.271,-4.1605,-4.1826,-4.1466,-4.0665,-4.0204,-3.9907,-3.9744,-3.9284,-3.8469,-3.7468,-3.7619,-3.6972,-3.6023,-3.6023,-3.56,-3.4881,0.0,0.0,0.0,0.0,0.0,0.0,0.0,0.0,0.0,0.0,0.0,0.0,0.0,0.0,0.0,0.0,0.0,0.0,0.0,-1.1076,-1.1436,-1.1897,-1.2065,-1.2434,-1.3007,-1.3379,-1.3655,-1.3765,-1.4109,-1.4164,-1.3828,-1.3741,-1.4071,-1.4874,-1.5622,-1.6573,-1.7597,-1.8318,-1.8719,0.0,0.0,-1.8714,-1.8816,-1.9643,-1.9925,-1.9992,-2.0603,-2.1286,-2.1957,-2.2439,0.0,-2.3807,-2.5883,-2.7002,-2.8086,-3.0711,0.0,-3.3999,-3.5185,-3.6163,-3.6496,-3.5077,-3.468,-3.4299,-3.2704,-3.2089,-3.1549,-3.052,-2.9641,-2.9051,-2.9051,-2.9503,-3.0419,0.0,0.0,0.0,-3.6923,-3.7186,-3.7705,0.0,-3.9583,0.0,-4.0653,-4.1349,-4.1795,0.0,-4.262,-4.3017,-4.2726,-4.274,-4.2792,-4.2792,-4.2792,-4.2792,-4.2792,-4.2341,-4.211,-4.2097,-4.2598,-4.207,-4.0723,-4.1138,-4.0737,-3.9631,0.0,-3.8865,-3.8371,-3.7953,-3.7156,-3.6213,-3.626,-3.5763,-3.503,-3.503,-3.4691,-3.4159,0.0,0.0,0.0,0.0,0.0,0.0,0.0,0.0,0.0,0.0,0.0,0.0,0.0,0.0,0.0,0.0,0.0,0.0,0.0,0.0,0.0,-1.1375,-1.167,-1.1964,-1.2291,-1.263,-1.2784,-1.2784,-1.2896,-1.2929,-1.2929,-1.2684,-1.3028,-1.3835,-1.4639,-1.5576,-1.6511,-1.719,-1.7614,-1.781,-1.8187,-1.8225,-1.8142,0.0,0.0,0.0,-2.0268,-2.1609,-2.3364,-2.4168,-2.4205,-2.4183,-2.5628,-2.7316,-2.918,-3.1231,-3.2841,-3.4409,-3.6495,-3.6819,-3.6343,-3.5219,-3.4889,-3.4236,-3.1913,-3.1286,-3.0733,-2.9101,-2.8386,-2.7971,-2.7896,-2.8361,-2.9327,-3.1022,0.0,-3.45,-3.686,-3.7186,-3.7626,-3.8881,-3.9785,-4.0291,-4.0291,-4.1046,-4.1777,-4.2363,-4.2404,-4.221,-4.1719,-4.2156,-4.2404,-4.2404,-4.2404,-4.2404,-4.2404,-4.1468,-4.0982,-4.0982,-4.19,-4.1269,-3.9258,-4.0122,-3.9652,-3.8089,-3.8015,-3.7414,-3.6481,-3.6198,-3.5709,-3.5175,-3.492,-3.4835,-3.4775,-3.4775,-3.445,-3.3934,0.0,0.0,0.0,0.0,0.0,0.0,0.0,0.0,0.0,0.0,-1.0356,0.0,0.0,0.0,0.0,0.0,0.0,0.0,0.0,0.0,0.0,-1.1369,-1.1476,-1.1757,-1.2291,-1.263,-1.2784,-1.2784,-1.3014,-1.3134,-1.3134,-1.3088,-1.3463,-1.4219,-1.491,-1.5805,-1.6759,-1.7276,-1.7519,-1.7588,-1.7984,-1.8017,-1.7974,0.0,0.0,0.0,-2.1042,-2.1615,-2.2184,-2.3896,-2.5177,-2.6334,-2.7734,-2.813,-2.8507,-3.0893,-3.2127,-3.3265,-3.575,-3.7064,-3.7414,-3.637,-3.5708,-3.4655,-3.2001,-3.0708,0.0,-2.8499,-2.7808,-2.7281,-2.6864,-2.757,-2.88,-3.0482,-3.1738,-3.3608,-3.6747,-3.7186,-3.7776,0.0,-3.9739,-3.9841,-3.9841,-3.9982,0.0,0.0,-4.0224,-4.0566,-4.1261,-4.0654,-4.0224,-4.0224,-4.0224,-4.0224,-4.0224,-4.0032,-3.9878,-3.9608,-3.9801,-3.9544,-3.8893,-3.9089,-3.8988,-3.8629,-3.8175,0.0,-3.7009,-3.6505,-3.5905,-3.5223,-3.5126,-3.4981,-3.4775,-3.4775,-3.445,-3.3982,0.0,0.0,0.0,0.0,0.0,0.0,0.0,0.0,0.0,0.0,-1.1202,-1.1022,0.0,0.0,0.0,0.0,0.0,0.0,0.0,0.0,0.0,0.0,-1.1349,-1.163,-1.2064,-1.2556,-1.2703,-1.2556,0.0,-1.2893,0.0,0.0,0.0,0.0,0.0,0.0,-1.6574,-1.69,-1.7081,-1.7225,-1.7632,0.0,0.0,0.0,0.0,0.0,0.0,-2.1491,-2.2136,-2.3109,-2.4366,-2.5786,-2.7457,-2.8143,-2.8635,-3.0397,-3.182,-3.3362,-3.5792,-3.7144,-3.7549,-3.6027,-3.5568,-3.4482,-3.0659,0.0,0.0,-2.7092,-2.6377,-2.6,-2.6047,-2.6929,-2.8122,-2.9477,-3.0618,-3.2441,-3.5479,-3.6144,-3.7061,-3.9032,-3.9521,-3.9697,-3.9697,-3.9697,-3.9697,-3.9697,-3.9697,-3.9929,-4.0415,-3.9981,-3.9645,-3.9478,-3.9478,-3.9426,-3.9218,-3.9218,-3.9166,-3.905,-3.905,-3.8893,-3.8579,-3.8579,-3.8514,-3.8396,-3.8089,-3.7518,-3.6741,-3.6498,-3.5854,-3.4981,-3.4981,-3.4932,-3.4775,-3.4775,-3.4619,-3.4366,0.0,0.0,0.0,0.0,0.0,0.0,0.0,-1.0282,-1.076,-1.1975,-1.2094,-1.2,-1.1737,-1.1396,-1.1095,0.0,0.0,0.0,0.0,0.0,0.0,0.0,0.0,-1.1597,-1.1993,0.0,0.0,0.0,0.0,0.0,0.0,0.0,0.0,0.0,0.0,0.0,0.0,0.0,-1.6661,0.0,0.0,0.0,0.0,0.0,0.0,0.0,0.0,0.0,-2.197,-2.2465,-2.3225,-2.4228,-2.6103,-2.7418,-2.8477,-2.9574,-3.1064,-3.288,-3.5227,-3.6341,-3.6507,-3.4948,-3.4556,-3.3391,-2.9027,-2.774,0.0,-2.5642,-2.5041,-2.4945,-2.549,-2.6427,-2.7469,0.0,-2.9704,-3.1399,-3.4161,-3.5182,-3.6508,0.0,-3.9358,0.0,-3.9697,-3.9697,0.0,-3.9697,-3.9645,-3.9633,-3.9633,-3.9633,-3.9478,-3.9206,-3.9206,-3.905,-3.8788,-3.8788,-3.8788,-3.8736,-3.8736,-3.8566,-3.8303,-3.8303,-3.8198,-3.7986,-3.7986,-3.7445,-3.6567,-3.6459,-3.5845,-3.4943,-3.4823,-3.4775,-3.4775,-3.4775,-3.4677,-3.441,0.0,0.0,0.0,0.0,0.0,0.0,0.0,-1.0846,-1.1526,-1.273,-1.2772,-1.269,-1.2663,-1.2161,-1.167,0.0,0.0,0.0,0.0,0.0,0.0,0.0,0.0,0.0,0.0,0.0,0.0,0.0,0.0,0.0,0.0,0.0,0.0,0.0,0.0,0.0,0.0,0.0,0.0,0.0,0.0,0.0,0.0,0.0,0.0,0.0,0.0,0.0,-2.085,-2.2542,0.0,-2.2377,-2.4166,-2.5682,-2.6947,-2.7862,0.0,0.0,-3.2751,-3.3509,-3.3532,-3.3376,-3.2362,-3.0695,-2.7872,0.0,-2.515,-2.4712,-2.4607,-2.4832,-2.5486,-2.6147,-2.6927,-2.7996,-2.9126,-3.0834,-3.3596,-3.5341,-3.696,-3.8668,0.0,0.0,-3.9697,-3.9697,-3.9697,-3.9697,-3.9478,-3.9322,-3.9322,-3.9322,-3.9206,-3.8841,-3.8841,-3.8841,-3.8788,-3.8788,-3.8684,-3.8461,-3.8461,-3.8303,-3.8039,-3.8039,-3.8027,-3.7986,-3.7986,-3.7649,0.0,-3.6603,-3.6062,-3.5497,-3.4967,-3.4775,-3.4775,-3.4775,-3.4164,-3.335,0.0,0.0,0.0,0.0,0.0,0.0,0.0,-1.0746,-1.1335,-1.2746,-1.2784,-1.2808,-1.3167,-1.2752,-1.2174,0.0,0.0,0.0,0.0,0.0,0.0,0.0,0.0,0.0,0.0,0.0,0.0,0.0,0.0,0.0,0.0,0.0,0.0,0.0,0.0,0.0,0.0,0.0,0.0,0.0,0.0,0.0,0.0,0.0,0.0,0.0,0.0,0.0,0.0,0.0,0.0,0.0,-2.2335,-2.3422,0.0,0.0,-2.7345,-2.8593,-3.0885,-3.1859,-3.2119,-3.1649,-3.1033,-2.9826,-2.6903,-2.5312,-2.4332,-2.3875,-2.3314,-2.3315,-2.4703,-2.5144,-2.582,-2.736,-2.7744,-2.8674,-3.1085,-3.2554,-3.4204,-3.6345,-3.7828,0.0,0.0,0.0,-3.9633,-3.9478,-3.9154,-3.8945,-3.8788,-3.8893,-3.8841,-3.8566,-3.8579,-3.8461,-3.8303,-3.8303,-3.825,-3.8145,-3.8145,-3.8092,-3.7986,-3.7986,-3.7986,-3.7986,-3.7215,-3.6589,0.0,-3.5537,-3.4972,-3.4458,-3.4006,-3.3857,-3.3758,-3.3101,-3.2588,-3.2235,0.0,0.0,0.0,0.0,0.0,0.0,-1.0598,-1.0758,-1.1312,-1.2776,-1.2826,-1.2907,-1.3434,-1.3038,-1.2472,-1.1864,0.0,0.0,0.0,0.0,0.0,0.0,0.0,0.0,0.0,0.0,0.0,0.0,0.0,0.0,0.0,0.0,0.0,0.0,0.0,0.0,0.0,0.0,0.0,0.0,0.0,0.0,0.0,0.0,0.0,0.0,0.0,0.0,0.0,0.0,0.0,0.0,0.0,-2.1694,-2.2749,-2.4716,-2.6169,-2.7478,-2.9203,-3.0229,-3.0633,-2.9914,-2.9335,-2.8243,-2.5787,-2.4187,-2.3183,-2.2981,-2.2329,-2.223,-2.3768,-2.4142,-2.4695,-2.628,-2.6532,-2.732,-2.9625,-3.1069,-3.2707,-3.4965,0.0,-3.7866,0.0,-3.9175,-3.9322,-3.905,-3.8502,-3.8015,-3.7761,-3.7578,-3.7749,-3.825,-3.7921,-3.7655,-3.7483,-3.7096,-3.6935,-3.6935,-3.6935,-3.6935,-3.6935,-3.6935,-3.6935,-3.6869,-3.6057,-3.538,0.0,-3.4362,-3.3813,-3.3316,-3.2892,-3.275,-3.265,-3.188,-3.137,-3.1114,0.0,0.0,0.0,0.0,0.0,0.0,0.0,-1.1149,-1.1682,-1.3028,-1.301,-1.3056,-1.3473,-1.2962,-1.2648,-1.2782,0.0,0.0,0.0,0.0,0.0,0.0,0.0,0.0,0.0,0.0,0.0,0.0,0.0,0.0,0.0,0.0,0.0,0.0,0.0,0.0,0.0,0.0,0.0,0.0,0.0,0.0,0.0,0.0,0.0,0.0,0.0,0.0,0.0,0.0,0.0,0.0,0.0,-2.0803,-2.0907,-2.3215,-2.5215,-2.6822,-2.7686,-2.8266,-2.8578,-2.8297,-2.6945,-2.5388,-2.4336,-2.2625,-2.1407,-2.1994,-2.1912,-2.1963,-2.2857,-2.3298,-2.3781,-2.46,-2.5775,-2.7456,-2.9948,-3.1889,-3.3671,0.0,0.0,-3.6726,-3.7556,-3.8317,-3.8684,-3.8409,-3.7287,0.0,-3.6231,-3.5113,-3.5553,-3.7921,-3.6839,-3.6231,-3.6243,-3.5002,-3.4447,-3.4447,-3.4447,-3.4447,-3.4447,-3.4447,-3.4447,-3.4447,-3.4447,-3.4163,0.0,-3.3245,-3.2763,-3.2345,-3.1812,-3.1626,-3.1626,-3.1575,-3.0908,-2.9922,0.0,0.0,0.0,0.0,0.0,0.0,0.0,-1.0624,-1.1104,-1.1992,-1.2131,-1.2374,-1.3021,-1.2604,-1.2387,-1.2782,0.0,0.0,0.0,0.0,0.0,0.0,0.0,0.0,0.0,0.0,0.0,0.0,0.0,0.0,0.0,0.0,0.0,0.0,0.0,0.0,0.0,0.0,0.0,0.0,0.0,0.0,0.0,0.0,0.0,0.0,0.0,0.0,0.0,0.0,0.0,0.0,0.0,0.0,0.0,-2.1275,-2.2653,-2.4011,-2.491,-2.5485,-2.5688,-2.535,-2.471,-2.3959,-2.3254,-2.209,-2.1242,-2.147,-2.1145,-2.1223,-2.2368,-2.27,-2.3191,-2.4562,-2.5253,-2.6065,-2.7267,0.0,0.0,-3.1792,-3.3957,-3.5559,0.0,0.0,-3.6077,-3.6022,-3.5421,-3.5046,-3.4947,-3.4614,-3.4725,-3.5498,-3.5168,-3.4947,-3.4947,-3.4614,-3.4391,-3.4391,-3.4391,-3.4391,-3.4391,-3.4391,-3.4391,-3.4314,-3.3255,-3.2699,-3.2498,-3.1664,-3.1264,-3.1148,-3.0621,-3.0442,-3.0338,-2.9628,-2.9112,-2.8804,0.0,0.0,0.0,0.0,0.0,0.0,0.0,-1.0375,-1.085,-1.1503,-1.1742,-1.214,-1.2838,-1.2476,-1.2406,-1.2898,0.0,0.0,0.0,0.0,0.0,0.0,0.0,0.0,0.0,0.0,0.0,0.0,0.0,0.0,0.0,0.0,0.0,0.0,0.0,0.0,0.0,0.0,0.0,0.0,0.0,0.0,0.0,0.0,0.0,0.0,0.0,0.0,0.0,0.0,0.0,0.0,0.0,0.0,0.0,0.0,-2.0805,-2.1827,-2.3252,-2.3957,-2.4186,-2.3831,-2.3378,-2.2896,-2.2521,-2.168,-2.1002,-2.1167,-2.0869,-2.0787,-2.1687,-2.1766,-2.2133,-2.3464,-2.3984,-2.4695,0.0,0.0,0.0,-3.0771,0.0,0.0,0.0,-3.4648,-3.4703,-3.4703,-3.4112,-3.3786,-3.3786,-3.3335,-3.3063,-3.3063,-3.3505,-3.3786,-3.3786,-3.3279,-3.3063,-3.3063,-3.3063,-3.3063,-3.3063,-3.3063,-3.2958,-3.2759,-3.1748,-3.1106,0.0,-3.0204,-2.988,-2.9698,-2.9424,-2.9313,-2.9207,-2.8548,-2.8291,-2.8291,0.0,0.0,0.0,0.0,0.0,0.0,0.0,0.0,0.0,0.0,-1.1787,-1.2191,-1.2768,-1.2535,-1.2563,0.0,0.0,0.0,0.0,0.0,0.0,0.0,0.0,0.0,0.0,0.0,0.0,-1.8,-1.8025,-1.8034,-1.8034,0.0,0.0,0.0,0.0,0.0,0.0,0.0,0.0,0.0,0.0,0.0,0.0,0.0,0.0,0.0,0.0,0.0,0.0,0.0,0.0,0.0,0.0,0.0,0.0,0.0,0.0,0.0,0.0,-2.3259,-2.3549,-2.3259,-2.2591,-2.2027,-2.2016,-2.1214,0.0,-2.1029,-2.0798,-2.0634,-2.0898,-2.0781,-2.0877,-2.1791,-2.2403,0.0,0.0,-2.7426,0.0,0.0,-3.2545,0.0,-3.3071,-3.3736,-3.4168,-3.4168,-3.3176,-3.2571,-3.2571,-3.1508,-3.0889,-3.0889,-3.2018,-3.2571,-3.2571,-3.145,-3.0889,-3.0889,-3.0889,-3.0889,-3.0889,-3.0859,-3.0605,0.0,-3.0127,-2.9658,-2.8916,-2.8887,-2.8643,-2.8291,-2.8291,-2.8291,-2.8291,-2.8291,-2.8291,-2.8291,0.0,0.0,0.0,0.0,0.0,0.0,0.0,0.0,0.0,0.0,-1.1349,-1.1819,-1.2109,-1.2054,-1.2239,0.0,0.0,0.0,0.0,0.0,0.0,0.0,0.0,0.0,0.0,0.0,0.0,-1.8,-1.8323,-1.8459,-1.8468,-1.9025,0.0,0.0,0.0,0.0,0.0,0.0,0.0,0.0,0.0,0.0,0.0,0.0,0.0,0.0,-1.7081,-1.8245,0.0,0.0,0.0,0.0,0.0,0.0,0.0,0.0,-1.9161,-1.9082,-1.9991,0.0,-2.0745,-2.0376,-2.0266,-2.0183,0.0,-1.9774,-1.9715,-2.0113,-2.0144,-2.0381,-2.1477,-2.1065,-2.1183,-2.3011,0.0,-2.3777,-2.5194,0.0,0.0,-3.0419,-3.1113,-3.1455,-3.1455,-3.1599,-3.173,-3.173,-3.145,-3.1344,-3.1344,-3.1064,-3.0889,-3.0889,-3.117,-3.1344,-3.1344,-3.1064,-3.0889,-3.0889,-3.0889,-3.0889,-3.0879,-3.0518,-3.0303,-3.0156,-2.9502,-2.9101,-2.8896,-2.8574,-2.8389,-2.8291,-2.8291,-2.8291,-2.8291,-2.8291,-2.8291,-2.8291,0.0,0.0,0.0,0.0,0.0,0.0,0.0,0.0,0.0,0.0,0.0,0.0,0.0,0.0,0.0,0.0,0.0,0.0,0.0,0.0,0.0,0.0,0.0,0.0,0.0,0.0,0.0,0.0,0.0,-1.8387,0.0,0.0,0.0,0.0,0.0,0.0,0.0,0.0,0.0,0.0,0.0,0.0,0.0,0.0,0.0,0.0,-1.5852,-1.6807,0.0,-1.8239,-1.9071,-1.9851,0.0,0.0,0.0,0.0,-1.8984,-1.8607,-1.8691,-1.9449,-2.0163,-1.9948,-1.9986,-2.0023,-1.9911,-1.957,-1.9346,-1.958,-1.9775,-2.0137,-2.085,-2.1084,-2.1593,-2.2725,-2.3344,0.0,0.0,0.0,-2.9062,-3.0361,-3.0732,-3.0889,0.0,-3.0889,-3.0889,-3.0889,-3.0889,-3.0889,-3.0889,-3.0889,-3.0889,-3.0889,-3.0889,-3.0889,-3.0889,-3.0889,-3.0889,-3.0889,-3.0889,-3.0889,-3.0889,-3.0635,-3.04,-3.0156,-2.9502,-2.9101,-2.8887,-2.8467,-2.8291,-2.8291,-2.8291,-2.8291,-2.8291,-2.8291,-2.8291,-2.8237,0.0,0.0,0.0,0.0,0.0,0.0,0.0,0.0,0.0,0.0,0.0,0.0,0.0,0.0,0.0,0.0,0.0,0.0,0.0,0.0,0.0,0.0,0.0,0.0,0.0,0.0,0.0,0.0,0.0,0.0,0.0,0.0,-1.7615,0.0,0.0,0.0,0.0,0.0,0.0,0.0,0.0,0.0,0.0,0.0,0.0,0.0,0.0,0.0,0.0,-1.6619,-1.757,-1.8608,-1.8797,0.0,0.0,0.0,0.0,0.0,-1.8227,-1.9221,-2.0274,-2.0294,-2.041,-2.0488,-2.0429,-1.9852,-1.9307,-1.9365,-1.9668,-1.999,-2.0264,-2.1172,0.0,0.0,0.0,0.0,-2.7562,-2.8467,-2.9414,-3.0732,-3.0889,0.0,-3.0889,-3.0889,-3.0889,-3.0889,-3.0889,-3.0889,-3.0889,-3.0889,-3.0889,-3.0889,-3.0889,-3.0889,-3.0889,-3.0889,-3.0889,-3.0889,-3.0889,-3.0889,-3.0889,-3.082,-3.0566,-3.0166,0.0,0.0,-2.8887,-2.8413,-2.8276,-2.8335,-2.8267,-2.8286,-2.8335,-2.8267,-2.8237,-2.8184,0.0,0.0,0.0,0.0,0.0,0.0,0.0,0.0,0.0,0.0,0.0,0.0,0.0,0.0,0.0,0.0,0.0,0.0,0.0,0.0,0.0,0.0,0.0,0.0,0.0,0.0,0.0,0.0,0.0,0.0,-1.8378,-1.8576,-1.8195,0.0,0.0,0.0,0.0,0.0,0.0,0.0,0.0,0.0,0.0,0.0,0.0,0.0,0.0,0.0,0.0,-1.5796,-1.6704,-1.76,-1.7018,0.0,0.0,0.0,0.0,0.0,-1.8763,-1.894,-1.8825,-1.8885,-1.9446,-1.9922,-1.957,-1.9385,-1.9394,-1.9746,-1.9873,-2.0361,-2.1846,-2.1992,-2.2471,0.0,0.0,-2.6631,0.0,0.0,-2.9414,-3.0732,0.0,-3.0889,-3.0889,-3.0889,-3.0889,-3.0889,-3.0889,-3.0889,-3.0889,-3.0889,-3.0889,-3.0889,-3.0889,-3.0889,-3.0889,-3.0889,-3.0889,-3.0889,-3.0889,-3.0889,-3.0879,-3.0478,-3.0264,-3.0156,0.0,-2.8984,-2.8832,-2.8242,-2.8182,-2.8427,-2.8105,-2.8192,-2.8417,-2.8095,-2.796,-2.7906,0.0,0.0,0.0,0.0,0.0,0.0,0.0,0.0,0.0,0.0,0.0,0.0,0.0,0.0,0.0,0.0,0.0,0.0,0.0,0.0,0.0,0.0,0.0,0.0,0.0,0.0,0.0,0.0,0.0,-1.8543,-1.8192,-1.7925,-1.7265,-1.6189,0.0,0.0,0.0,0.0,0.0,0.0,0.0,0.0,0.0,0.0,0.0,0.0,0.0,0.0,0.0,0.0,-1.5348,-1.6352,-1.6024,0.0,0.0,0.0,0.0,0.0,-1.7143,-1.7661,-1.7994,-1.8118,-1.9025,-1.9784,-1.943,-1.9629,-1.9829,-1.9734,-2.0397,-2.106,-2.1249,0.0,-2.3545,-2.5469,0.0,-2.7773,-2.8779,-2.9316,-2.9932,0.0,0.0,-3.0889,-3.0889,-3.0889,-3.0889,-3.0889,-3.0889,-3.0889,-3.0889,-3.0889,-3.0889,-3.0889,-3.0889,-3.0889,-3.0889,-3.0889,-3.0889,-3.0889,-3.0889,-3.0889,-3.0889,-3.0674,-3.043,-3.0166,0.0,-2.8865,-2.8633,-2.7927,-2.7886,-2.8174,-2.7809,-2.7895,-2.811,-2.7056,-2.6572,-2.64,0.0,0.0,0.0,0.0,0.0,0.0,0.0,0.0,0.0,0.0,0.0,0.0,0.0,0.0,0.0,0.0,0.0,0.0,0.0,0.0,0.0,0.0,0.0,0.0,0.0,0.0,-1.8515,-1.7735,-1.8438,-1.8419,-1.7718,-1.7002,-1.6206,0.0,0.0,0.0,0.0,0.0,0.0,0.0,0.0,0.0,0.0,0.0,0.0,0.0,0.0,0.0,0.0,0.0,0.0,0.0,0.0,0.0,0.0,-1.6094,-1.5713,-1.5461,-1.5844,-1.6426,-1.706,-1.7546,-1.8658,-1.958,-1.951,-1.98,-2.0025,-1.9709,-2.0683,-2.1371,0.0,-2.2546,0.0,-2.6249,-2.7389,-2.8259,-2.8959,-2.9717,-3.0371,-3.083,-3.0889,-3.0889,-3.0889,-3.0889,-3.0889,-3.0889,-3.0889,-3.0889,-3.0889,-3.0889,-3.0889,-3.0889,-3.0518,-3.0333,-3.0333,-2.9962,-3.0147,-3.0889,-3.083,-3.0645,-3.046,-3.0343,-2.9918,-2.9231,-2.8539,-2.8136,-2.7908,-2.6865,-2.6875,-2.7503,-2.6774,-2.6655,-2.6774,-2.5567,-2.4901,-2.4689,0.0,0.0,0.0,0.0,0.0,0.0,0.0,0.0,0.0,0.0,0.0,0.0,0.0,0.0,0.0,0.0,0.0,0.0,0.0,0.0,0.0,0.0,0.0,0.0,0.0,-1.778,-1.7759,-1.7262,-1.7785,-1.7704,-1.6963,-1.6272,-1.5789,-1.5389,0.0,0.0,0.0,0.0,0.0,0.0,0.0,0.0,0.0,0.0,0.0,0.0,0.0,0.0,0.0,0.0,0.0,0.0,0.0,0.0,-1.4964,-1.4903,-1.4668,-1.4724,-1.6204,-1.5945,-1.5612,-1.7004,-1.8037,-1.8897,-1.9706,-1.9656,-1.9523,-1.9844,-2.0208,-2.0842,0.0,-2.3416,-2.5056,-2.6672,-2.7122,-2.7799,-2.9351,0.0,-3.0371,-3.083,-3.0889,-3.0889,-3.0889,-3.0889,-3.0889,-3.0889,-3.0889,-3.0889,-3.0889,-3.0889,-3.0889,-3.0889,-2.9403,-2.8605,-2.8605,-2.7073,-2.7871,-3.0889,-3.0577,-2.9962,-2.9048,-2.8769,-2.7822,-2.6388,-2.5895,-2.5986,-2.6296,-2.4426,-2.4704,-2.6165,-2.4392,-2.3735,-2.3695,-2.3615,-2.3399,-2.3143,0.0,0.0,0.0,0.0,0.0,0.0,0.0,0.0,0.0,0.0,0.0,0.0,0.0,0.0,0.0,0.0,0.0,0.0,0.0,0.0,0.0,0.0,0.0,-1.7156,-1.6645,-1.8128,-1.8394,-1.737,-1.7507,-1.7097,-1.6265,-1.6023,0.0,0.0,0.0,0.0,0.0,0.0,0.0,0.0,0.0,0.0,0.0,0.0,0.0,0.0,0.0,0.0,0.0,0.0,-1.2684,-1.3175,-1.3056,-1.3426,-1.3871,-1.3674,-1.3528,-1.3601,-1.431,-1.4675,-1.5063,-1.5967,-1.6851,-1.7689,-1.82,-1.9383,-2.0322,-2.0165,-2.1065,-2.1992,-2.2195,0.0,-2.339,-2.4699,-2.5707,-2.6619,-2.7227,-2.7813,-2.8282,-2.8453,-2.8462,-2.8462,-2.8462,-2.8462,-2.8462,-2.8462,-2.8462,-2.8462,-2.8462,-2.8265,-2.8188,-2.8188,-2.7331,-2.6893,-2.6893,-2.628,-2.6651,-2.788,-2.7751,-2.7443,-2.7082,-2.697,-2.6338,-2.5336,-2.4986,-2.4704,-2.4438,-2.3691,-2.3965,-2.4728,-2.4053,-2.3046,-2.2006,-2.2006,-2.1957,-2.1851,0.0,0.0,0.0,0.0,0.0,0.0,0.0,0.0,0.0,0.0,0.0,0.0,0.0,0.0,0.0,0.0,0.0,0.0,0.0,0.0,0.0,0.0,0.0,-1.6462,-1.6039,-1.772,-1.8027,-1.6838,-1.6854,-1.6601,-1.6052,0.0,0.0,0.0,0.0,0.0,0.0,0.0,0.0,0.0,0.0,0.0,0.0,0.0,0.0,0.0,0.0,0.0,0.0,0.0,-1.2283,-1.2726,-1.275,-1.2937,-1.3119,-1.3,-1.2966,-1.2966,-1.3114,-1.3796,-1.4601,-1.5226,-1.6005,-1.6791,-1.7309,-1.8961,-2.0315,-2.006,-2.1242,-2.2291,-2.215,0.0,0.0,0.0,-2.4614,-2.546,-2.5866,-2.6525,-2.7013,-2.7013,-2.7013,-2.7013,-2.7004,-2.7013,-2.7013,-2.7013,-2.6883,-2.6814,-2.6814,-2.6547,-2.6349,-2.6349,-2.5627,-2.5261,-2.5261,-2.4709,-2.4463,-2.4463,-2.4463,-2.477,-2.5383,-2.5322,-2.4635,-2.3563,-2.335,-2.308,-2.2685,-2.2314,-2.2311,-2.2581,-2.2629,-2.1817,-2.0608,-2.0608,-2.0608,-2.0608,0.0,0.0,0.0,0.0,0.0,0.0,0.0,0.0,0.0,0.0,0.0,0.0,0.0,0.0,0.0,0.0,0.0,0.0,0.0,0.0,0.0,0.0,0.0,-1.6095,-1.5712,-1.627,-1.6219,-1.5396,-1.5717,-1.6074,-1.6389,-1.5716,0.0,0.0,0.0,0.0,0.0,0.0,0.0,0.0,0.0,0.0,0.0,0.0,0.0,0.0,0.0,0.0,0.0,0.0,-1.1899,-1.2042,-1.2852,-1.2839,-1.2661,-1.3,-1.3044,-1.3006,-1.3006,-1.3495,-1.4186,-1.4913,-1.5627,-1.6369,-1.7298,-1.8426,-1.9322,-1.9338,-2.0438,-2.1476,-2.1709,-2.1764,0.0,-2.3795,-2.4064,-2.4477,-2.5692,-2.6474,-2.6952,-2.6952,-2.6952,-2.6944,-2.6979,-2.6944,-2.6952,-2.6952,-2.6677,-2.6478,-2.6478,-2.6167,-2.5976,-2.5976,-2.4409,-2.3566,-2.3566,-2.1902,-2.1102,-2.1102,-2.1102,-2.2153,-2.4077,-2.369,-2.2548,-2.0711,-2.0705,-2.0896,-2.106,-1.988,-1.943,-1.9457,-1.9686,-1.9626,-1.9424,-1.9424,-1.9424,-1.9424,0.0,0.0,0.0,0.0,0.0,0.0,0.0,0.0,0.0,0.0,0.0,0.0,0.0,0.0,0.0,0.0,0.0,0.0,0.0,0.0,0.0,0.0,0.0,0.0,0.0,0.0,-1.5637,-1.6089,-1.6184,-1.6052,0.0,0.0,0.0,-1.5389,0.0,0.0,0.0,0.0,0.0,0.0,0.0,0.0,0.0,0.0,0.0,0.0,0.0,0.0,0.0,0.0,0.0,0.0,-1.2119,-1.2321,-1.2392,-1.2523,-1.2698,-1.2898,-1.2968,-1.3642,-1.4471,-1.5031,-1.632,-1.7435,-1.7531,-1.8317,-1.9184,-1.9885,-2.0129,-2.0325,-2.0364,-2.0615,0.0,-2.1583,-2.2299,-2.2886,-2.321,-2.3802,-2.4147,-2.3961,-2.4085,-2.427,-2.4263,-2.4015,-2.3899,-2.3899,-2.3574,-2.3387,-2.3387,-2.3076,-2.285,-2.2624,-2.1961,-2.143,-2.1209,-2.0733,-2.0494,-2.0494,-2.0494,-2.1011,-2.1971,-2.1693,-2.1142,-2.0342,-2.0133,-2.0008,-1.9894,-1.9762,-1.9673,-1.9679,-1.9766,-1.9626,-1.9424,-1.9424,-1.9424,-1.9457,0.0,0.0,0.0,0.0,0.0,0.0,0.0,0.0,0.0,0.0,0.0,0.0,0.0,0.0,0.0,0.0,0.0,0.0,0.0,0.0,0.0,0.0,0.0,0.0,0.0,-1.4918,-1.5185,0.0,0.0,0.0,0.0,0.0,0.0,-1.5257,0.0,-1.4869,0.0,0.0,0.0,0.0,0.0,-1.3331,-1.2804,0.0,0.0,0.0,0.0,0.0,0.0,0.0,0.0,0.0,-1.1777,-1.1904,-1.1997,-1.2231,-1.2549,-1.2929,-1.344,-1.4139,-1.4894,-1.563,-1.6738,-1.7752,-1.8063,-1.8632,-1.9341,-2.013,-2.0025,-1.9843,-2.0132,-2.0245,0.0,-2.0852,-2.151,-2.1987,-2.1926,-2.2395,-2.2675,-2.2613,-2.2801,-2.2918,-2.2918,-2.2731,-2.2543,-2.2425,-2.1999,-2.1742,-2.1742,-2.132,-2.0984,-2.0808,-2.0624,-2.0414,-2.0173,-2.0173,-2.0173,-2.0173,-2.0173,-2.0421,-2.0755,-2.0581,-2.0341,-2.0047,-1.9753,-1.9533,-1.9379,-1.9553,-1.9626,-1.9626,-1.9626,-1.9519,-1.9424,-1.9424,-1.9424,-1.9392,0.0,0.0,0.0,0.0,0.0,0.0,0.0,0.0,0.0,0.0,0.0,0.0,0.0,0.0,0.0,0.0,0.0,0.0,0.0,0.0,0.0,0.0,0.0,0.0,0.0,0.0,0.0,0.0,0.0,0.0,0.0,0.0,-1.4726,-1.5047,0.0,-1.4689,0.0,0.0,0.0,0.0,-1.3144,-1.2899,-1.2663,-1.2614,0.0,0.0,0.0,0.0,0.0,0.0,0.0,0.0,-1.1638,-1.1558,-1.1431,-1.1995,-1.2454,-1.3038,-1.4077,-1.4672,-1.529,-1.6413,-1.6987,-1.7621,-1.8704,-1.9192,-1.9544,-2.0099,0.0,-1.9934,-2.0494,-2.0395,-2.043,-2.1024,-2.1378,-2.1646,-2.1644,-2.1897,-2.2139,-2.248,-2.255,-2.2536,-2.2507,-2.2507,-2.2305,-2.2027,-2.1465,-2.1129,-2.1129,-2.0557,-2.016,-2.0133,-2.0133,-2.012,-2.0154,-2.0154,-2.0154,-2.0154,-2.0154,-2.0154,-2.0154,-2.012,-2.0034,-1.9746,-1.9486,-1.9424,-1.9424,-1.9424,-1.9424,-1.9424,-1.9424,-1.9424,-1.9424,-1.9424,-1.9424,-1.943,0.0,0.0,0.0,0.0,0.0,0.0,0.0,0.0,0.0,0.0,0.0,0.0,0.0,0.0,0.0,0.0,0.0,0.0,0.0,0.0,0.0,0.0,0.0,0.0,0.0,0.0,0.0,0.0,0.0,0.0,0.0,0.0,0.0,-1.4465,0.0,-1.3916,0.0,0.0,0.0,-1.1859,-1.21,-1.1977,-1.166,-1.134,-1.1035,0.0,0.0,0.0,0.0,0.0,0.0,0.0,-1.0346,-1.069,-1.0867,-1.1026,-1.1887,-1.2868,-1.3142,-1.4112,-1.529,-1.6413,-1.7462,-1.839,-1.9105,-1.933,-1.9459,-1.9584,-1.9543,-1.9516,-1.9635,-1.9825,-2.0053,-2.0416,-2.0753,-2.1065,-2.1305,-2.1608,-2.1783,-2.1832,-2.2048,-2.2138,-2.1899,-2.163,-2.1348,-2.1046,-2.0666,-2.0388,-2.0388,-2.0267,-2.0127,-1.99,-1.9893,-1.978,-1.9553,-1.9553,-1.9553,-1.9553,-1.9553,-1.9553,-1.9559,-1.9786,-1.9733,-1.9459,-1.9457,-1.9424,-1.9424,-1.9424,-1.9424,-1.9424,-1.9424,-1.9424,-1.9424,-1.9424,-1.9424,-1.9457,0.0,0.0,0.0,0.0,0.0,0.0,0.0,0.0,0.0,0.0,0.0,0.0,0.0,0.0,0.0,0.0,0.0,0.0,0.0,0.0,-1.3389,0.0,0.0,0.0,0.0,0.0,0.0,0.0,0.0,0.0,0.0,0.0,0.0,-1.4324,0.0,-1.3618,0.0,0.0,-1.1778,-1.0949,-1.1096,-1.0896,-1.0425,-1.0213,-1.0038,-0.9858,-0.944,0.0,0.0,0.0,0.0,0.0,0.0,0.0,-0.984,-1.0025,-1.0622,-1.1453,-1.2216,-1.3495,-1.4939,-1.619,-1.7089,-1.7746,-1.8237,-1.8912,-1.9424,-1.9424,-1.9424,-1.9424,-1.9591,-1.9707,-1.9928,-2.0254,-2.0465,-2.0662,-2.0943,-2.1135,-2.1286,-2.1375,-2.1583,-2.1527,-2.1223,-2.1066,-2.0821,-2.0483,-2.0161,-2.0027,-2.0027,-1.9893,-1.9746,-1.9599,-1.9593,-1.9519,-1.9424,-1.9424,-1.9424,-1.9424,-1.9424,-1.9424,-1.943,-1.9519,-1.9512,-1.9424,-1.9424,-1.9424,-1.9424,-1.9424,-1.9424,-1.9424,-1.9424,-1.9424,-1.9424,-1.9424,-1.9424,-1.947,0.0,0.0,0.0,0.0,0.0,0.0,0.0,0.0,0.0,0.0,0.0,0.0,0.0,0.0,0.0,0.0,0.0,0.0,0.0,-1.2902,-1.3342,-1.4284,0.0,0.0,0.0,0.0,0.0,0.0,0.0,0.0,0.0,0.0,0.0,-1.4226,0.0,0.0,0.0,0.0,-1.1129,-1.0067,-1.0067,-0.9725,-0.9244,-0.9106,-0.9071,-0.9077,-0.8976,-0.8922,-0.8964,-0.9088,0.0,0.0,0.0,0.0,-0.869,-0.9008,-0.9338,-0.9845,-1.1153,-1.2733,-1.4304,-1.5648,-1.6172,-1.6452,-1.6767,-1.7827,-1.8713,-1.8765,-1.9068,-1.9482,-1.97,-1.9758,-1.9815,-2.0104,-2.0144,-2.0235,-2.0535,-2.0551,-2.0664,-2.1019,-2.1026,-2.091,-2.061,-2.0516,-2.0435,-2.0087,-1.986,-1.9726,-1.9726,-1.9499,-1.9424,-1.9424,-1.9424,-1.9424,-1.9424,-1.9424,-1.9424,-1.9424,-1.9424,-1.9424,-1.9424,-1.9424,-1.9424,-1.9424,-1.9424,-1.9424,-1.9424,-1.9424,-1.9424,-1.9424,-1.9424,-1.9424,-1.9424,-1.9424,-1.9424,-1.947,0.0,0.0,0.0,0.0,0.0,0.0,0.0,0.0,0.0,0.0,0.0,-1.3645,-1.3612,-1.2821,0.0,0.0,0.0,0.0,-1.222,0.0,0.0,0.0,0.0,0.0,0.0,0.0,0.0,0.0,0.0,0.0,-1.4099,-1.3541,0.0,-1.3646,0.0,0.0,0.0,0.0,-0.9291,-0.8744,-0.8744,-0.8712,-0.8549,-0.7964,-0.7767,-0.7692,-0.7231,-0.7061,-0.7099,-0.7283,-0.7325,0.0,0.0,0.0,-0.7845,-0.7908,-0.8646,-0.9487,-0.9761,-1.1498,-1.3466,-1.4367,-1.4751,-1.4994,-1.5451,0.0,-1.5898,0.0,-1.7883,-1.9424,-1.9424,-1.9424,-1.9482,-1.954,-1.9515,-1.9584,-1.9872,-1.9893,-2.0007,-2.0321,-2.0348,-2.0234,-1.9946,-1.9913,-1.9812,-1.9499,-1.9446,-1.9426,-1.9426,-1.945,-1.9424,-1.9424,-1.9424,-1.9424,-1.9424,-1.9424,-1.9424,-1.9424,-1.9424,-1.9424,-1.9424,-1.9424,-1.9424,-1.9424,-1.9424,-1.9424,-1.9424,-1.9424,-1.9424,-1.9424,-1.9424,-1.9424,-1.9424,-1.9424,-1.9424,-1.947,0.0,0.0,0.0,0.0,0.0,0.0,0.0,0.0,0.0,0.0,0.0,-1.3329,-1.332,-1.2582,0.0,0.0,0.0,0.0,-1.2039,-1.2152,0.0,0.0,0.0,0.0,0.0,0.0,0.0,0.0,0.0,-1.1502,-1.2129,-1.1969,-1.2554,0.0,0.0,0.0,0.0,0.0,-0.8847,-0.8054,-0.7957,-0.7865,-0.7699,-0.7094,-0.7072,-0.7259,-0.6713,-0.6538,-0.6566,-0.6749,-0.6837,-0.6851,-0.7078,0.0,0.0,0.0,-0.7401,-0.8203,-0.9555,-1.0395,-1.1211,-1.275,-1.3324,-1.3567,-1.3887,-1.4566,-1.5183,-1.5374,-1.6303,-1.7344,-1.8202,-1.835,-1.859,-1.9307,-1.9424,-1.9466,-1.976,-1.98,-1.9846,-1.9973,-1.9993,-1.9873,-1.9586,-1.9559,-1.9506,-1.9437,-1.9424,-1.9424,-1.9424,-1.9424,-1.9424,-1.9424,-1.9424,-1.9424,-1.9424,-1.8706,-1.7994,-1.7291,-1.7994,-1.7935,-1.7291,-1.7994,-1.8706,-1.9424,-1.9424,-1.9424,-1.9366,-1.8648,-1.835,-1.8286,-1.7525,-1.7291,-1.7291,-1.7291,-1.7315,-1.7417,0.0,0.0,0.0,0.0,0.0,0.0,0.0,0.0,0.0,0.0,0.0,0.0,-1.2823,0.0,0.0,0.0,0.0,0.0,-1.1865,0.0,0.0,0.0,0.0,0.0,0.0,0.0,0.0,0.0,-1.0178,-1.0273,-1.083,-1.0935,-1.1817,-1.3241,-1.2683,-1.1585,0.0,0.0,0.0,-0.7572,-0.7457,-0.7316,-0.7167,-0.698,-0.7114,-0.7324,-0.6867,0.0,0.0,0.0,0.0,0.0,0.0,0.0,0.0,0.0,0.0,-0.7053,-0.8972,-0.9161,-0.9254,-1.0979,-1.1686,-1.2067,0.0,0.0,-1.4035,0.0,-1.4298,-1.4797,-1.6202,-1.6762,-1.7337,-1.8298,-1.8415,-1.8491,-1.8695,-1.872,-1.872,-1.872,-1.872,-1.8644,-1.8434,-1.8415,-1.8415,-1.8415,-1.8415,-1.8415,-1.8415,-1.8415,-1.8415,-1.8415,-1.8415,-1.8415,-1.8415,-1.7461,-1.6514,-1.5634,-1.6573,-1.6514,-1.5634,-1.6573,-1.7519,-1.8415,-1.8415,-1.8415,-1.8233,-1.7343,-1.6979,-1.6803,-1.5924,-1.5575,-1.558,-1.5639,-1.5703,-1.583,0.0,0.0,0.0,0.0,0.0,0.0,0.0,0.0,0.0,0.0,0.0,0.0,0.0,0.0,0.0,0.0,0.0,0.0,0.0,0.0,0.0,0.0,0.0,0.0,0.0,0.0,0.0,-1.0228,-0.9338,-0.9769,-1.145,-1.1343,-1.1435,-1.1689,-1.0967,-1.0176,-0.9361,0.0,0.0,0.0,0.0,-0.72,-0.726,-0.7947,-0.8101,-0.7923,0.0,0.0,0.0,0.0,0.0,0.0,0.0,-0.6432,-0.6399,0.0,0.0,0.0,-0.7175,-0.771,-0.8243,-0.9075,-0.978,-1.0383,0.0,0.0,-1.1251,-1.1368,-1.1549,-1.2085,-1.3381,-1.4777,-1.5747,-1.5811,-1.5811,-1.5811,-1.5828,-1.5828,-1.5828,-1.5828,-1.5828,-1.5822,-1.5811,-1.5811,-1.5811,-1.5811,-1.5811,-1.5811,-1.5811,-1.5811,-1.5811,-1.5811,-1.5811,-1.5811,-1.5811,-1.5747,-1.5693,-1.5575,-1.5693,-1.5628,-1.5575,-1.5693,-1.5747,-1.5811,-1.5811,-1.5628,-1.5322,-1.5628,-1.551,-1.5268,-1.551,-1.5575,-1.5596,-1.5751,-1.5771,-1.5851,0.0,0.0,0.0,0.0,0.0,0.0,0.0,0.0,0.0,0.0,0.0,0.0,0.0,-1.1457,-1.1334,-1.1404,0.0,0.0,0.0,0.0,0.0,0.0,0.0,0.0,0.0,0.0,-0.9136,-0.8482,-0.8126,-0.8285,-0.8943,-0.9082,-0.9298,-0.95,-1.0347,-1.0048,-0.8957,-0.7936,0.0,0.0,0.0,0.0,0.0,-0.8105,-0.8361,-0.8645,0.0,0.0,0.0,0.0,0.0,0.0,-0.6595,-0.6513,-0.6387,-0.6387,-0.6505,-0.6688,-0.7074,-0.7443,-0.7849,-0.8576,-0.912,-0.9571,-0.9929,-1.0331,-1.0676,-1.0846,-1.1029,-1.1364,-1.1876,-1.332,-1.4679,-1.5451,-1.5575,-1.5575,-1.5575,-1.5575,-1.5575,-1.5575,-1.5575,-1.5575,-1.5575,-1.5575,-1.5575,-1.5575,-1.5575,-1.5575,-1.5575,-1.5575,-1.5575,-1.5575,-1.5575,-1.5213,-1.4381,-1.4381,-1.3968,-1.3144,-1.3784,-1.36,-1.2886,-1.3481,-1.3301,-1.2526,-1.2526,-1.3481,-1.503,-1.4133,-1.3655,-1.3476,-1.2762,-1.2526,-1.2548,-1.2921,-1.3137,-1.3287,0.0,0.0,0.0,0.0,0.0,0.0,0.0,0.0,0.0,0.0,0.0,0.0,0.0,0.0,-1.1454,-1.1277,0.0,0.0,0.0,0.0,0.0,0.0,0.0,0.0,0.0,-0.8898,-0.8235,-0.7565,-0.7333,-0.7298,-0.7403,-0.7695,-0.8,-0.8339,-0.9286,-0.9319,0.0,0.0,0.0,-0.7971,0.0,0.0,-0.8624,0.0,-0.8958,-0.923,0.0,0.0,0.0,0.0,0.0,0.0,0.0,-0.6664,-0.6387,-0.6387,-0.6505,-0.6656,-0.6856,0.0,0.0,0.0,-0.8605,-0.8982,-0.9579,-0.9994,-1.0318,-1.0558,-1.0802,-1.1005,-1.1118,-1.2074,-1.3185,-1.4084,-1.4212,-1.4242,-1.4316,-1.4331,-1.4331,-1.4331,-1.4331,-1.4331,-1.4331,-1.4331,-1.4331,-1.4331,-1.4331,0.0,-1.4331,-1.4331,-1.4331,-1.4331,-1.4331,-1.3913,-1.3075,-1.3075,-1.2603,-1.1647,-1.2234,-1.2049,-1.1152,-1.1804,-1.1623,-1.0789,-1.0668,-1.1744,-1.3416,-1.2462,-1.1981,-1.18,-1.1088,-1.0789,-1.0876,-1.129,-1.1513,-1.1703,0.0,0.0,0.0,0.0,0.0,0.0,0.0,0.0,0.0,-1.2054,0.0,0.0,0.0,0.0,0.0,-1.1267,0.0,0.0,0.0,0.0,0.0,0.0,0.0,0.0,0.0,-0.8117,-0.768,-0.7671,-0.7027,-0.6867,-0.7175,-0.7387,-0.7752,-0.8235,-0.7715,-0.7914,-0.8567,0.0,-0.8272,-0.8321,0.0,-0.8616,-0.8763,0.0,0.0,0.0,-0.9603,-0.9421,0.0,-0.8511,0.0,0.0,0.0,-0.6819,-0.6391,-0.6387,-0.6395,-0.6432,0.0,0.0,0.0,0.0,0.0,0.0,-0.9583,0.0,-0.9953,-1.0335,-1.0692,-1.0996,-1.1016,-1.1094,-1.1269,-1.1451,-1.1488,-1.1557,-1.1744,-1.1768,-1.1768,-1.1776,-1.1776,-1.1776,-1.1776,-1.1776,-1.1776,-1.1776,-1.1776,-1.1776,-1.1776,-1.1776,-1.1776,-1.1776,-1.1776,-1.1776,-1.1776,-1.1776,-1.1647,-1.1273,-1.1273,-1.1091,-1.0789,-1.0789,-1.0789,-1.0728,-1.0425,-1.0304,-1.0304,-1.0668,-1.0607,-1.0304,-1.0668,-1.0789,-1.083,-1.1169,-1.1292,-1.134,0.0,0.0,0.0,0.0,0.0,0.0,-1.3057,-1.2653,-1.2253,0.0,0.0,0.0,-1.1963,-1.2179,-1.2277,-1.2082,0.0,0.0,0.0,0.0,0.0,-0.9869,-0.9103,-0.8497,-0.8078,-0.7503,-0.7128,-0.6967,-0.6659,-0.6615,-0.6846,0.0,-0.7286,-0.7521,-0.7492,-0.7594,-0.7804,-0.7494,0.0,-0.8645,-0.8304,-0.871,0.0,0.0,0.0,0.0,0.0,-0.9977,-0.9644,0.0,-0.8865,-0.8012,0.0,0.0,0.0,-0.6461,-0.6603,-0.6784,-0.6489,0.0,0.0,0.0,0.0,0.0,0.0,0.0,-0.9108,-0.9721,-1.003,-1.0302,-1.0696,-1.0806,-1.0899,-1.1086,-1.122,-1.1362,-1.1549,-1.1577,-1.1626,-1.176,-1.1776,-1.1776,-1.1776,-1.1776,-1.1776,0.0,-1.1776,-1.1776,-1.1776,-1.1776,-1.1776,-1.1776,-1.1776,-1.1776,-1.1776,-1.1587,-1.1398,-1.1273,-1.0789,-1.0547,-1.0425,-1.0183,-1.0061,-1.0065,-1.0001,-0.994,-0.994,-1.0061,-1.0004,-0.994,-1.0061,-1.0061,-1.0161,-1.073,-1.0915,-1.1022,0.0,0.0,0.0,0.0,0.0,-1.3543,-1.3296,-1.3039,-1.2848,0.0,0.0,0.0,-1.2469,-1.2723,-1.276,0.0,0.0,0.0,0.0,-1.0295,-0.9633,-0.8877,-0.8391,-0.7908,-0.742,-0.7187,-0.7016,-0.6837,-0.6619,-0.6546,-0.6583,0.0,-0.6826,-0.7005,-0.7029,-0.7123,-0.7277,-0.6918,0.0,0.0,-0.8548,0.0,0.0,-0.9888,-1.0111,0.0,0.0,0.0,-1.0111,-1.0111,-0.9453,0.0,0.0,-0.7326,-0.7163,-0.6761,-0.686,0.0,0.0,0.0,0.0,0.0,0.0,0.0,-0.7948,-0.8351,0.0,0.0,-0.9713,-0.9981,-1.0298,-1.0481,-1.0619,-1.0729,-1.0891,-1.109,-1.135,-1.1382,-1.1451,-1.1638,-1.1663,-1.1691,-1.1768,-1.1776,-1.1776,-1.1776,-1.1776,-1.1776,-1.1776,-1.1776,-1.1776,-1.1776,-1.1651,-1.1587,-1.1587,-1.1277,-1.1031,-1.091,-1.0486,-1.0243,-1.0061,-0.9879,-0.9822,-0.9822,-0.9822,-0.9822,-0.9822,-0.9822,-0.9822,-0.9822,-0.9822,-0.9822,-0.9849,-1.0281,-1.0542,-1.0629,0.0,0.0,-1.4667,-1.4667,-1.4243,-1.3775,-1.3456,-1.3624,-1.368,0.0,-1.3514,-1.3584,-1.348,-1.3353,-1.2981,0.0,0.0,0.0,0.0,-0.9925,-0.9207,-0.7597,-0.7764,-0.7619,-0.7023,-0.7131,-0.7147,-0.7016,-0.6812,-0.6599,-0.6448,-0.6395,0.0,-0.6656,-0.6493,-0.6595,-0.6914,-0.6639,0.0,-0.8085,-0.8931,-0.9351,0.0,0.0,-1.0327,-1.0318,-1.0603,-1.0611,-1.0456,-1.0366,-0.9864,0.0,0.0,-0.806,-0.7967,-0.7236,-0.7175,0.0,-0.7018,-0.6832,0.0,0.0,-0.7253,0.0,-0.8134,-0.84,-0.8645,0.0,-0.9535,-0.973,-0.9811,-1.0095,-1.0269,-1.029,-1.0505,-1.0765,-1.1143,-1.1196,-1.1265,-1.1447,-1.1468,-1.1541,-1.1727,-1.1748,-1.1756,-1.1776,-1.1776,-1.1776,-1.1776,-1.1776,-1.1712,-1.1712,-1.1402,-1.1212,-1.1212,-1.091,-1.0607,-1.0304,-1.0243,-1.0061,-0.9822,-0.9822,-0.9822,-0.9822,-0.9822,-0.9822,-0.9822,-0.9822,-0.9822,-0.9822,-0.9822,-0.9822,-0.9839,-0.993,-1.0148,-1.03,0.0,0.0,-1.5204,-1.5038,-1.4691,-1.4375,-1.4151,-1.3943,-1.3796,-1.3694,-1.3106,-1.2875,-1.3361,-1.2482,0.0,0.0,0.0,0.0,0.0,0.0,-0.802,-0.7682,-0.7359,-0.713,-0.6988,-0.7131,-0.7171,-0.7171,-0.6851,-0.6676,-0.6639,-0.6489,-0.6403,-0.6473,-0.6403,-0.6457,-0.6554,-0.7062,0.0,-0.8028,-0.8203,0.0,-1.0069,-1.0212,-1.0371,-1.0619,-1.0838,-1.0798,-1.0599,-1.031,-0.9998,-0.9558,0.0,0.0,-0.8464,-0.7446,-0.7567,-0.7889,-0.7297,-0.7233,-0.7267,-0.6972,0.0,0.0,-0.723,-0.7515,-0.7942,0.0,-0.8552,-0.8775,-0.94,-0.9567,-0.9612,-0.9762,-1.0054,-1.0494,-1.0948,-1.1017,-1.1082,-1.1256,-1.1277,-1.135,-1.1537,-1.1553,-1.1614,-1.1764,-1.1776,-1.1776,-1.1776,-1.1522,-1.1398,-1.1398,-1.1091,-1.091,-1.091,-1.0547,-1.0365,-1.0304,-1.0001,-0.9883,-0.9822,-0.9822,-0.9822,-0.9822,-0.9822,-0.9822,-0.9822,-0.9822,-0.9822,-0.9822,-0.9822,-0.9822,-0.9839,-0.993,-1.0148,-1.03,0.0,-1.5025,-1.4866,-1.4783,-1.4539,-1.4317,-1.4227,-1.4063,-1.407,-1.4371,-1.3791,-1.3159,-1.2694,-1.212,0.0,0.0,0.0,0.0,0.0,0.0,-0.7932,-0.7381,-0.7208,-0.709,-0.709,-0.7265,-0.7313,-0.7187,-0.6956,-0.6812,-0.6692,-0.6505,-0.6513,-0.668,-0.6595,-0.6656,-0.6803,0.0,-0.7514,-0.7943,-0.8568,0.0,-1.0245,-1.0514,-1.0676,-1.0842,-1.0936,-1.085,-1.0635,-1.0335,-1.0151,0.0,0.0,-0.8784,-0.8566,0.0,-0.7782,-0.7594,-0.6841,-0.6643,-0.6489,-0.5697,0.0,0.0,0.0,-0.6102,-0.656,-0.6981,-0.7231,-0.749,-0.7969,-0.8168,-0.8416,-0.8927,-0.9287,-0.9596,-0.9854,-1.0441,-1.0895,-1.1074,-1.1094,-1.1167,-1.1342,-1.1362,-1.138,-1.1383,-1.1399,-1.1375,-1.1277,-1.1156,-1.1031,-1.1031,-1.0728,-1.0547,-1.0547,-1.0243,-1.0061,-1.0061,-0.9879,-0.9822,-0.9822,-0.9822,-0.9822,-0.9822,-0.9822,-0.9822,-0.9822,-0.9822,-0.9822,-0.9822,-0.9822,-0.9822,-0.9839,-0.993,-1.0148,-1.03,0.0,-1.4805,-1.444,-1.4398,-1.4286,-1.4124,-1.413,-1.3955,-1.4008,-1.4411,-1.4184,-1.3444,-1.201,0.0,0.0,0.0,0.0,0.0,0.0,0.0,-0.8125,-0.7196,-0.7216,-0.7277,-0.7277,-0.7411,-0.7415,-0.7277,-0.7094,-0.6918,-0.6741,-0.6558,-0.6627,-0.6931,-0.6826,-0.6976,-0.7269,0.0,0.0,-0.8196,0.0,-0.973,-1.0073,-1.0635,-1.0842,-1.0822,-1.0947,-1.0842,-1.0688,-1.0335,-1.0213,-1.0072,-0.9567,-0.8953,0.0,0.0,0.0,0.0,0.0,0.0,0.0,0.0,0.0,-0.4497,0.0,0.0,0.0,-0.5515,-0.581,0.0,0.0,0.0,0.0,0.0,0.0,0.0,0.0,-0.9429,0.0,-1.0516,-1.0766,-1.0932,-1.1102,-1.1118,-1.1039,-1.0961,-1.0915,-1.0804,-1.0793,-1.0684,-1.0699,-1.0725,-1.0365,-1.0183,-1.0183,-0.994,-0.9822,-0.9822,-0.9822,-0.9822,-0.9822,-0.9822,-0.9822,-0.9822,-0.9822,-0.9822,-0.9822,-0.9822,-0.9822,-0.9822,-0.9822,-0.9822,-0.9839,-0.993,-1.0148,-1.03,-1.4441,-1.4565,-1.4608,-1.444,-1.4398,-1.4321,-1.4124,-1.3392,-1.2802,-1.2625,-1.2708,-1.2529,0.0,0.0,0.0,0.0,0.0,0.0,-0.9324,0.0,0.0,-0.7718,-0.7567,-0.7452,-0.7452,-0.7472,-0.7476,-0.7452,-0.7155,-0.698,-0.6955,-0.6745,-0.668,-0.6755,-0.7029,-0.7273,-0.7464,0.0,-0.8294,0.0,-0.9375,-0.9367,0.0,-1.0168,-1.0396,-1.0347,-1.0611,-1.0814,-1.0883,0.0,-1.0235,-0.9951,0.0,-0.8764,-0.7777,-0.7223,0.0,0.0,0.0,0.0,0.0,0.0,-0.4724,0.0,0.0,0.0,-0.4808,-0.4664,0.0,0.0,0.0,0.0,0.0,0.0,0.0,0.0,-0.73,-0.7874,-0.8379,-0.8955,-0.9871,-1.0562,-1.0737,-1.0753,-1.0779,-1.0828,-1.057,-1.0439,-1.0617,-1.0346,-1.0229,-1.0361,-1.0001,-0.9883,-0.9883,-0.9822,-0.9822,-0.9822,-0.9822,-0.9822,-0.9822,-0.9822,-0.9822,-0.9822,-0.9822,-0.9822,-0.9822,-0.9822,-0.9822,-0.9822,-0.9822,-0.9822,-0.9839,-0.993,-1.0148,-1.03,-1.3878,-1.3981,0.0,-1.4216,-1.4243,-1.4208,-1.413,-1.3941,-1.3269,-1.1722,-1.2207,-1.226,0.0,0.0,0.0,0.0,0.0,-0.9571,0.0,0.0,0.0,-0.8277,-0.7947,-0.7789,-0.7789,-0.7735,-0.7629,-0.7484,-0.7232,-0.7094,-0.6988,-0.6914,-0.6988,-0.7192,-0.7419,-0.7805,-0.826,0.0,-0.8531,0.0,0.0,0.0,0.0,-1.0282,-1.0696,-1.0706,-1.0798,-1.0325,-0.9466,0.0,-0.8881,0.0,0.0,0.0,0.0,0.0,0.0,0.0,0.0,0.0,0.0,0.0,0.0,0.0,-0.2712,0.0,-0.3204,0.0,0.0,0.0,0.0,0.0,0.0,0.0,-0.4632,0.0,0.0,0.0,-0.7171,0.0,0.0,0.0,-1.0209,-1.0225,-1.0158,-1.0067,-0.9242,-0.8778,-0.8737,-0.808,-0.7706,-0.7755,-0.7638,-0.7551,-0.7551,-0.7551,-0.7551,-0.7551,-0.7551,-0.7551,-0.7551,-0.7551,-0.7551,-0.7551,-0.7551,-0.7551,-0.7551,-0.7551,-0.7551,-0.7551,-0.7551,-0.8518,-0.9909,-1.0127,-1.0276,-1.0426,-1.3547,0.0,0.0,-1.3704,-1.3743,-1.3576,-1.3163,-1.3579,-1.3192,-1.1074,-1.1799,0.0,-1.0945,-1.0724,0.0,0.0,-1.0692,-1.0286,0.0,0.0,-0.9088,-0.8869,-0.8459,-0.8235,-0.8235,-0.7967,-0.778,-0.76,-0.7334,-0.7159,-0.7065,0.0,-0.7204,-0.7427,-0.7796,-0.8247,-0.8816,0.0,-0.8852,-0.9092,-0.925,-0.9319,-0.9437,-1.0387,-1.0783,-1.0852,-1.0799,-0.9768,-0.8325,-0.7974,-0.7597,0.0,-0.6052,0.0,0.0,0.0,0.0,0.0,-0.4111,0.0,0.0,0.0,0.0,0.0,0.0,0.0,0.0,0.0,0.0,0.0,0.0,0.0,0.0,0.0,0.0,-0.3547,0.0,0.0,0.0,0.0,0.0,0.0,0.0,-0.9372,-0.9326,-0.8864,-0.7963,-0.7234,-0.6914,-0.6192,-0.5839,-0.5889,-0.5914,-0.5896,-0.5896,-0.5896,-0.5896,-0.5896,-0.5896,-0.5896,-0.5896,-0.5896,-0.5896,-0.5896,-0.5896,-0.5896,-0.5896,-0.5896,-0.5896,-0.5898,-0.5923,-0.7172,-0.8986,-0.9148,-0.9267,-0.9332,-1.3547,-1.3874,0.0,-1.2918,-1.2747,-1.2267,-1.0847,-1.1636,-1.1836,-1.0436,0.0,0.0,0.0,0.0,0.0,0.0,0.0,-1.137,-1.1167,0.0,-0.9961,-0.9608,-0.908,-0.8796,0.0,-0.8276,-0.7923,-0.7792,-0.7399,-0.7187,-0.7179,-0.7179,-0.7187,-0.7227,-0.7963,-0.8475,-0.8832,-0.9007,-0.9583,-1.0294,-0.9998,-1.0168,-1.0599,0.0,-1.0351,-1.0498,-1.0382,0.0,0.0,-0.7893,-0.6926,0.0,0.0,0.0,0.0,0.0,0.0,0.0,0.0,0.0,0.0,-0.1647,0.0,0.0,0.0,0.0,-0.1514,0.0,0.0,0.0,0.0,0.0,0.0,0.0,0.0,0.0,0.0,0.0,0.0,0.0,0.0,0.0,0.0,-0.8113,-0.8079,0.0,-0.6845,-0.6324,-0.562,-0.5568,-0.5704,-0.5885,-0.5914,-0.5896,-0.5896,-0.5896,-0.5896,-0.5896,-0.5896,-0.5896,-0.5896,-0.5896,-0.5896,-0.5896,-0.5896,-0.5896,-0.5896,-0.5896,-0.5896,-0.5904,-0.5932,-0.6084,-0.6293,-0.6298,-0.6356,-0.6382,0.0,0.0,0.0,0.0,-1.2186,-1.1537,-1.0767,-1.1506,-1.1815,0.0,-1.1398,0.0,0.0,-1.1943,-1.204,0.0,0.0,-1.1853,-1.1435,-1.0846,0.0,0.0,0.0,-0.9295,0.0,-0.8763,-0.8406,-0.8151,-0.7866,-0.7608,-0.7336,-0.7496,-0.7422,-0.7168,-0.79,-0.8506,0.0,0.0,0.0,0.0,0.0,-1.0134,-1.0677,0.0,-1.0754,-1.069,-0.9649,-0.8374,0.0,-0.5775,-0.4945,-0.43,-0.3499,-0.3403,-0.364,-0.3661,-0.2757,0.0,0.0,0.0,-0.1806,-0.1725,0.0,0.0,0.0,0.0,0.0,0.0,0.0,0.0,0.0,0.0,0.0,0.0,0.0,0.0,0.0,0.0,0.0,0.0,0.0,0.0,0.0,0.0,0.0,0.0,-0.502,0.0,-0.4043,-0.3446,-0.3154,-0.3259,-0.3252,-0.3293,-0.3328,-0.3328,-0.3328,-0.3328,-0.3328,-0.3328,-0.3328,-0.3328,-0.3328,-0.3328,-0.3328,-0.3328,-0.3328,-0.3328,-0.3328,-0.3332,-0.3319,-0.3369,-0.3738,-0.5525,-0.6249,-0.6326,-1.2128,0.0,0.0,-1.1709,-1.103,-1.0508,-1.0417,-1.1071,-1.1487,0.0,-1.148,0.0,-1.2268,0.0,-1.2357,0.0,-1.2495,-1.2239,-1.1638,-1.1325,0.0,-1.0891,-1.0277,0.0,0.0,0.0,-0.8778,-0.8348,-0.8168,-0.7869,-0.7519,-0.7545,-0.7397,-0.7137,-0.78,-0.8367,-0.8865,-0.9276,-0.9628,0.0,0.0,-1.0147,0.0,0.0,-1.0776,-1.0558,0.0,-0.7519,-0.6029,-0.4498,-0.3605,-0.3008,-0.2195,-0.2459,-0.3108,-0.3007,-0.2474,-0.2002,-0.2772,-0.2435,0.0,-0.1781,-0.1792,0.0,-0.1581,0.0,0.0,0.0,0.0,0.0,0.0,0.0,0.0,0.0,0.0,0.0,0.0,-0.159,0.0,0.0,0.0,0.0,0.0,0.0,-0.4782,-0.444,-0.366,0.0,0.0,-0.2127,-0.1807,-0.1868,-0.1909,-0.1946,-0.1976,-0.1977,-0.1977,-0.1977,-0.1977,-0.1977,-0.1977,-0.1977,-0.1977,-0.1977,-0.1977,-0.1977,-0.1977,-0.1977,-0.1977,-0.198,-0.202,-0.2047,-0.2325,-0.4121,-0.4841,-0.4899,-1.1473,-1.0497,-0.9867,-0.9886,-0.9485,0.0,0.0,0.0,-1.0838,0.0,-1.1573,-1.1939,-1.2296,-1.2333,-1.2471,-1.2742,-1.277,-1.2483,-1.1874,-1.1902,0.0,0.0,-1.076,-1.0411,-1.0284,0.0,0.0,0.0,-0.8302,-0.8037,-0.7725,-0.73,-0.7093,-0.7108,-0.7636,0.0,-0.8334,-0.8987,-0.9557,-1.0035,-1.0191,-1.0319,-1.0287,-1.0443,-1.0406,-1.0091,-0.8393,-0.6941,-0.5536,-0.4096,-0.2924,-0.1972,-0.1943,-0.1932,-0.1926,-0.1896,-0.1887,-0.1886,-0.1887,-0.1888,-0.1874,-0.1817,0.0,0.0,0.0,0.0,-0.1703,0.0,0.0,0.0,0.0,0.0,0.0,0.0,0.0,0.0,0.0,0.0,0.0,0.0,0.0,0.0,0.0,-0.3554,-0.3739,-0.2983,-0.2853,-0.2492,0.0,-0.1769,-0.1774,-0.1779,-0.1836,-0.1942,-0.1974,-0.1975,-0.1975,-0.1977,-0.1977,-0.1977,-0.1977,-0.1977,-0.1977,-0.1977,-0.1977,-0.1977,-0.1977,-0.1977,-0.1977,-0.1984,-0.2105,-0.213,-0.2137,-0.2101,-0.213,-0.2222,-1.0662,-0.9967,-0.9609,0.0,-0.9657,-0.9628,0.0,0.0,0.0,0.0,-1.1947,-1.2308,-1.2661,-1.2702,-1.2739,-1.2762,-1.2572,0.0,0.0,0.0,0.0,-1.1665,-1.1008,-1.0535,-1.0239,-0.9785,0.0,-0.9118,0.0,-0.8136,-0.7997,-0.7656,-0.7246,-0.6822,-0.7346,-0.7768,-0.8095,-0.8618,-0.9248,-0.9853,-1.0014,-1.0146,-1.031,0.0,-1.0102,-1.0003,-0.7637,-0.6566,-0.5861,-0.3308,-0.2215,-0.1975,-0.1967,-0.1949,-0.193,-0.1922,-0.1904,-0.1891,-0.1913,-0.1919,-0.1916,-0.19,-0.1862,-0.1814,0.0,0.0,0.0,0.0,0.0,0.0,0.0,0.0,0.0,0.0,0.0,0.0,0.0,0.0,0.0,-0.1367,0.0,0.0,0.0,-0.1988,-0.2072,-0.1907,-0.1882,0.0,0.0,0.0,-0.1776,-0.1804,-0.1844,-0.183,-0.1942,-0.1943,-0.1954,-0.1977,-0.1977,-0.1977,-0.1977,-0.1977,-0.1977,-0.1977,-0.1977,-0.1977,-0.1977,-0.1977,-0.1989,-0.2011,-0.2049,-0.2157,-0.2199,-0.2207,-0.2215,-0.2222,-1.0075,-0.9854,0.0,-0.9985,0.0,0.0,-1.0493,-1.0838,0.0,-1.1715,-1.2154,0.0,-1.2433,-1.266,-1.2704,-1.2496,-1.2288,0.0,-1.2098,0.0,0.0,-1.1553,-1.1055,-1.0689,-1.0499,-0.9988,0.0,-0.9287,0.0,0.0,-0.7909,-0.7501,-0.7095,-0.6715,-0.7216,-0.7566,-0.778,-0.858,-0.921,-0.963,-0.9849,-0.9988,0.0,-0.9958,-0.9982,-0.9924,-0.793,-0.6795,-0.5824,-0.358,-0.2478,-0.1992,-0.198,-0.1964,-0.1951,-0.1951,-0.1939,-0.1929,-0.1947,-0.1951,-0.1951,-0.1951,-0.1925,-0.1889,-0.1844,-0.1848,-0.1851,0.0,0.0,0.0,0.0,0.0,0.0,0.0,0.0,0.0,0.0,0.0,0.0,0.0,-0.1412,0.0,0.0,0.0,-0.1423,-0.144,-0.1481,0.0,0.0,0.0,-0.171,-0.1773,-0.1818,-0.1811,-0.187,-0.1871,-0.1947,-0.1977,-0.1977,-0.1977,-0.1977,-0.1977,-0.1977,-0.1977,-0.1977,-0.1977,-0.1977,-0.199,-0.2004,-0.2022,-0.2067,-0.2113,-0.2222,-0.2222,-0.2222,-0.2222,-0.9725,-1.0042,0.0,0.0,0.0,0.0,0.0,-1.1227,0.0,-1.1772,0.0,-1.2474,-1.2076,-1.2412,-1.2551,-1.2142,0.0,-1.1781,-1.1415,-1.1566,-1.1523,-1.1239,-1.1034,-1.0905,-1.0757,-1.0251,-0.9702,0.0,0.0,0.0,-0.772,-0.7152,-0.6858,-0.6749,-0.7139,0.0,0.0,-0.8726,-0.9299,-0.9408,-0.9703,-0.9832,-0.9866,-0.9936,-1.0,-0.9906,-0.8889,-0.7453,-0.5725,-0.4411,-0.3058,-0.2014,-0.199,-0.1979,-0.1977,-0.1977,-0.1977,-0.1977,-0.1977,-0.1977,-0.1977,-0.1977,-0.1977,-0.1962,-0.191,-0.1898,-0.1898,-0.1898,-0.1852,-0.1827,0.0,0.0,0.0,0.0,0.0,0.0,0.0,0.0,0.0,0.0,0.0,0.0,0.0,0.0,0.0,0.0,0.0,0.0,0.0,0.0,-0.1704,-0.1797,-0.1799,-0.1859,-0.1924,-0.1925,-0.1942,-0.1977,-0.1977,-0.1977,-0.1977,-0.1977,-0.1977,-0.1977,-0.1977,-0.1977,-0.1979,-0.2007,-0.2023,-0.2036,-0.2093,-0.2131,-0.2222,-0.2222,-0.2222,-0.2222,-1.0049,0.0,0.0,0.0,0.0,-1.1327,-1.178,-1.1999,-1.2065,-1.1948,-1.2425,-1.2611,-1.2202,-1.2281,-1.2391,-1.2639,-1.1969,0.0,0.0,0.0,0.0,-1.1169,-1.093,-1.0674,-1.0586,-1.0013,-0.9585,0.0,0.0,0.0,-0.7769,-0.7196,-0.6873,-0.6849,-0.697,0.0,-0.7977,-0.8804,0.0,-0.9408,-0.9703,-0.9897,-0.995,-0.9977,-1.0131,-1.0243,-1.0012,-0.8336,-0.5952,-0.46,-0.3175,-0.2018,-0.2012,-0.1995,-0.1977,-0.1977,-0.1977,-0.1977,-0.1977,-0.1977,-0.1977,-0.1977,-0.1977,-0.1974,-0.1963,-0.196,-0.196,-0.196,-0.1932,-0.1903,-0.1889,0.0,0.0,0.0,0.0,0.0,0.0,0.0,0.0,0.0,0.0,-0.1442,0.0,0.0,0.0,0.0,0.0,0.0,0.0,0.0,-0.1631,0.0,-0.1747,0.0,0.0,0.0,-0.1922,-0.1977,-0.1977,-0.1977,-0.1977,-0.1977,-0.1977,-0.1977,-0.1977,-0.1977,-0.1979,-0.2007,-0.2048,-0.2097,-0.2133,-0.2217,-0.2222,-0.2222,-0.2222,-0.2222,-1.0944,0.0,0.0,0.0,0.0,0.0,0.0,-1.2141,-1.2261,-1.1876,-1.2141,-1.221,-1.1801,-1.2025,-1.2141,-1.2054,-1.1627,-1.1435,-1.1689,-1.1069,-1.0787,-1.0916,-1.0787,-1.0683,-1.0612,-1.0232,-0.98,-0.9337,0.0,0.0,0.0,0.0,0.0,-0.6199,-0.6948,-0.7692,0.0,0.0,0.0,-0.9629,-0.9849,-0.997,-1.0178,-1.0249,-1.0324,-1.0399,-1.048,-0.8666,-0.6227,-0.5492,-0.4313,-0.3091,-0.2302,-0.2033,-0.2019,-0.2003,-0.1998,-0.1995,-0.198,-0.1977,-0.1977,-0.1977,-0.1977,-0.1977,-0.1977,-0.1977,-0.1977,-0.1977,-0.1965,-0.1936,-0.1874,-0.1789,0.0,0.0,0.0,0.0,0.0,0.0,0.0,0.0,0.0,0.0,0.0,0.0,0.0,0.0,0.0,0.0,0.0,0.0,-0.1628,0.0,0.0,0.0,-0.1885,0.0,-0.1916,-0.1977,-0.1977,-0.1977,-0.1977,-0.1977,-0.1977,-0.1977,-0.1977,-0.1985,-0.2002,-0.2047,-0.2092,-0.2134,-0.2216,-0.2222,-0.2222,-0.2222,-0.2222,-0.2222,0.0,-1.18,0.0,0.0,-1.1789,-1.1871,-1.1773,-1.2058,-1.2168,-1.1783,-1.1946,-1.1913,-1.1502,-1.1829,-1.193,-1.1592,-1.1371,-1.1217,-1.107,-1.0853,-1.0755,-1.0721,-1.0721,-1.0721,-1.0721,-1.0432,-0.9985,0.0,0.0,0.0,0.0,0.0,0.0,0.0,0.0,0.0,0.0,0.0,-0.949,-0.9883,-0.9974,-1.0188,-1.0337,-1.0449,-1.0514,-1.0489,-1.0343,-0.8773,-0.6745,-0.6013,-0.4897,-0.3613,-0.247,-0.2069,-0.2059,-0.2035,-0.2028,-0.2022,-0.1993,-0.1986,-0.1984,-0.1978,-0.1977,-0.1977,-0.1977,-0.1977,-0.1977,-0.1977,-0.1977,-0.1949,-0.1799,-0.1806,0.0,0.0,0.0,0.0,0.0,0.0,0.0,0.0,0.0,0.0,-0.1395,0.0,0.0,0.0,0.0,0.0,-0.1488,-0.1558,-0.1628,0.0,0.0,-0.1784,-0.1875,0.0,-0.1916,-0.1977,-0.1977,-0.1977,-0.1977,-0.1977,-0.1977,-0.1977,-0.1977,-0.1996,-0.2033,-0.2087,-0.2127,-0.2222,-0.2222,-0.2222,-0.2222,-0.2222,-0.2222,-0.2222,0.0,0.0,0.0,0.0,0.0,-1.1768,-1.1863,-1.1643,-1.1586,-1.1822,-1.2027,-1.2059,-1.163,-1.1596,-1.176,-1.2101,-1.1673,-1.1444,-1.1634,-1.1142,-1.0799,-1.0724,-1.0721,-1.0721,-1.0721,-1.0432,-0.9985,0.0,0.0,-0.788,0.0,0.0,0.0,0.0,0.0,0.0,0.0,-0.9381,-0.9744,-0.9977,-1.0198,-1.0344,-1.0473,-1.0487,-1.0578,-1.0498,-0.9238,-0.864,-0.7969,-0.5354,-0.3522,-0.2306,-0.2171,-0.2086,-0.2128,-0.2061,-0.206,-0.2053,-0.2022,-0.2015,-0.2008,-0.1983,-0.1977,-0.1977,-0.1977,-0.1977,-0.1977,-0.1977,-0.1977,-0.1949,-0.1799,-0.1858,-0.1836,0.0,0.0,0.0,0.0,0.0,0.0,-0.1612,0.0,0.0,0.0,-0.1365,0.0,0.0,-0.1386,0.0,-0.1519,-0.153,-0.1575,-0.1715,-0.1694,-0.1752,-0.1786,-0.1872,-0.1916,-0.1977,-0.1977,-0.1977,-0.1977,-0.1977,-0.1977,-0.1977,-0.1977,-0.2008,-0.2062,-0.2095,-0.2127,-0.2222,-0.2222,-0.2222,-0.2222,-0.2222,-0.2222,-0.2222,0.0,0.0,0.0,0.0,0.0,0.0,0.0,-1.1599,-1.1599,-1.1671,-1.1797,-1.1763,-1.1619,-1.1619,-1.1691,-1.1835,-1.1551,-1.1435,-1.151,-1.1227,-1.1012,-1.0796,-1.0789,-1.0749,-1.0721,-1.0605,-1.0293,0.0,0.0,-0.7849,-0.6831,-0.6234,0.0,0.0,0.0,-0.7118,-0.8187,-0.8476,-0.9228,-1.0321,-1.0382,-1.0497,-1.0629,-1.0629,-1.0132,-0.9377,-0.8776,-0.7505,-0.5837,-0.4701,-0.3884,-0.3267,-0.2402,-0.2128,-0.2181,-0.2096,-0.2091,-0.2084,-0.2054,-0.2046,-0.2043,-0.2032,-0.2016,-0.2002,-0.2002,-0.1989,-0.1977,-0.1977,-0.1977,-0.196,-0.1905,-0.1875,-0.1842,0.0,0.0,0.0,0.0,0.0,0.0,0.0,0.0,-0.1523,0.0,0.0,0.0,0.0,0.0,0.0,-0.1495,-0.1516,0.0,-0.1633,0.0,-0.1748,-0.1782,-0.187,-0.1916,-0.1977,-0.1977,-0.1977,-0.1977,-0.1977,-0.1986,-0.2003,-0.2021,-0.2052,-0.2093,-0.2124,-0.2144,-0.2222,-0.2222,-0.2222,-0.2222,-0.2222,-0.2222,-0.2222,-1.2098,0.0,-1.1779,0.0,-1.1633,-1.1462,-1.1572,-1.1619,-1.1619,-1.1619,-1.1619,-1.1619,-1.1619,-1.1619,-1.1619,-1.1619,-1.1521,-1.144,-1.1396,-1.129,-1.1165,-1.1019,-1.0904,0.0,-1.0792,-1.0744,-1.0524,-1.0117,-0.9121,-0.8058,-0.6837,-0.5257,0.0,0.0,-0.5199,-0.602,-0.7232,-0.7338,-0.8132,-0.9303,-0.9303,-0.936,-0.9443,-0.9443,-0.8842,-0.7905,-0.7505,-0.6038,-0.4234,-0.3831,-0.3698,-0.3497,-0.249,-0.2222,-0.2218,-0.2129,-0.2123,-0.2116,-0.2086,-0.2077,-0.2075,-0.2131,-0.2048,-0.203,-0.202,-0.2003,-0.1987,-0.1978,-0.1977,-0.1967,-0.1937,-0.1889,-0.1848,-0.1829,0.0,0.0,0.0,0.0,0.0,0.0,-0.1606,-0.1557,-0.1553,-0.1501,0.0,0.0,0.0,0.0,0.0,0.0,0.0,0.0,0.0,0.0,-0.1782,-0.1879,-0.1925,-0.1977,-0.1977,-0.1977,-0.1977,-0.1977,-0.1992,-0.202,-0.205,-0.2081,-0.2112,-0.2142,-0.2222,-0.2155,-0.2087,-0.202,-0.202,-0.202,-0.202,-0.202,-1.1916,-1.1878,-1.1857,-1.1661,-1.1613,-1.1613,-1.1619,-1.1619,-1.1619,-1.1619,-1.1619,-1.1619,-1.1619,-1.1619,-1.1619,-1.1619,-1.1616,-1.1552,-1.1402,-1.1389,-1.1321,0.0,0.0,-1.088,-1.0877,-1.0799,-1.0575,-1.0276,0.0,0.0,-0.5885,0.0,-0.4264,-0.529,-0.5636,-0.5886,-0.6042,-0.6133,-0.6285,-0.6431,-0.6431,-0.6431,-0.6433,-0.6433,-0.6433,-0.6233,-0.4833,-0.4301,-0.41,-0.2691,-0.2222,-0.2222,-0.2222,-0.2222,-0.2222,-0.2222,-0.2221,-0.2214,-0.2117,-0.2108,-0.2101,-0.2071,-0.2128,-0.2056,-0.2025,-0.2018,-0.201,-0.1982,-0.1977,-0.1967,-0.1937,-0.1906,-0.1866,-0.1806,0.0,0.0,0.0,0.0,0.0,0.0,-0.1598,-0.155,-0.161,-0.1459,0.0,0.0,0.0,0.0,0.0,0.0,0.0,-0.1711,-0.1772,0.0,-0.1782,-0.1841,-0.1946,-0.1977,-0.1977,-0.1977,-0.1977,-0.1977,-0.1992,-0.202,-0.205,-0.2081,-0.2112,-0.2142,-0.2222,-0.2155,-0.175,-0.1616,-0.1616,-0.1616,-0.1616,-0.1683,-1.1681,-1.1688,-1.1705,-1.1613,-1.1619,-1.1619,-1.1619,-1.1619,-1.1619,-1.1619,-1.1619,-1.1619,-1.1619,-1.1619,-1.1619,0.0,-1.1619,-1.1599,0.0,-1.1548,-1.0973,-0.9833,-0.9719,-0.9098,-0.791,-0.7869,-0.7781,-0.7712,0.0,0.0,0.0,-0.3976,-0.3517,-0.3139,-0.3233,-0.3859,-0.4838,-0.486,-0.5478,-0.6433,-0.6433,-0.6433,-0.6433,-0.6433,-0.5834,-0.49,-0.4434,-0.3698,-0.2826,-0.2357,-0.2222,-0.2222,-0.2222,-0.2222,-0.2222,-0.2222,-0.2222,-0.222,-0.2143,-0.214,-0.2138,-0.2195,-0.211,-0.2092,-0.2082,-0.2048,-0.201,-0.1982,-0.1977,-0.1974,-0.1964,-0.1937,-0.1904,-0.1864,-0.1839,0.0,0.0,0.0,0.0,0.0,-0.1635,-0.1596,0.0,-0.1037,0.0,0.0,0.0,0.0,0.0,0.0,0.0,0.0,0.0108,0.0,0.0115,0.0533,0.0728,0.0739,0.1169,0.1169,0.0739,0.0747,0.0505,0.0128,0.1103,0.125,0.0734,0.0268,0.0067,-0.0067,-0.0942,-0.1414,-0.1616,-0.1616,-0.1616,-0.1616,-1.1619,-1.1619,-1.1619,-1.1619,-1.1619,-1.1619,-1.1619,-1.1619,-1.1619,-1.1619,-1.1619,-1.14,-1.0818,-1.0746,0.0,-1.1548,-1.1619,-1.1329,-1.0743,-1.0746,-0.9979,-0.839,-0.8277,-0.7731,-0.6615,-0.6527,0.0,-0.65,-0.5706,-0.4883,-0.4005,-0.3425,-0.2808,-0.2126,-0.2126,-0.2669,-0.3497,-0.3497,-0.4031,-0.4832,-0.4832,-0.4832,-0.4832,-0.4832,-0.4298,-0.3497,-0.3497,-0.296,-0.2222,-0.2222,-0.2222,-0.2222,-0.2222,-0.2222,-0.2222,-0.2222,-0.2222,-0.2222,-0.2222,-0.2222,-0.2222,-0.2222,-0.214,-0.2123,-0.2112,-0.2062,-0.2014,-0.1996,-0.1984,-0.1977,-0.1977,-0.1952,-0.1921,-0.1891,-0.186,-0.1772,-0.163,0.0,0.0,0.0,0.0,0.0,0.0,-0.0154,0.0154,0.0,0.0,0.0,0.0,0.0,0.0,0.1259,0.1544,0.16,0.1402,0.2036,0.2377,0.24,0.2845,0.2791,0.2421,0.2521,0.2303,0.1948,0.2878,0.2979,0.2482,0.2081,0.1879,0.1813,0.1008,0.0605,0.0403,0.0403,0.0403,0.0403,-1.1619,-1.1619,-1.1619,0.0,-1.1619,0.0,-1.1472,-1.1472,-1.14,-1.1257,-1.1257,-1.0746,-0.9291,-0.9144,-0.9726,-1.1181,0.0,0.0,0.0,-0.9144,-0.842,-0.6896,-0.6749,-0.6567,-0.6423,-0.6268,-0.6185,-0.6168,-0.4807,-0.4172,-0.4105,-0.2828,-0.2222,-0.2222,-0.2222,-0.2222,-0.2222,-0.2222,-0.2222,-0.2222,-0.2222,-0.2222,-0.2222,-0.2222,-0.2222,-0.2222,-0.2222,-0.2222,-0.2222,-0.2222,-0.2222,-0.2222,-0.2222,-0.2222,-0.2222,-0.2222,-0.2222,-0.2222,-0.2222,-0.2222,-0.2222,-0.2222,-0.2222,-0.2213,-0.2116,-0.2065,-0.2024,-0.2019,-0.1997,-0.1979,-0.1977,-0.1952,-0.1861,-0.1832,-0.1802,-0.1658,-0.1293,0.0,0.0,0.0,0.0,0.0,0.0,0.1172,0.1663,0.0,0.0,0.0,0.0,0.0,0.1311,0.2123,0.2792,0.2859,0.2284,0.293,0.3321,0.3325,0.3374,0.3398,0.3402,0.3514,0.3564,0.3544,0.3613,0.3576,0.3486,0.3419,0.3419,0.3419,0.3755,0.3823,0.3823,0.3823,0.3823,0.3756,0.0,0.0,-1.1619,-1.1619,-1.1619,-1.1181,-1.0017,-0.987,-0.9435,-0.8273,-0.8056,-0.7984,-0.7548,-0.7548,-0.7693,-0.8056,-0.8056,-0.7912,-0.7548,-0.7548,-0.6827,-0.5309,-0.5222,-0.4635,-0.3335,-0.3294,-0.3251,-0.3207,-0.289,-0.2666,-0.2666,-0.2368,-0.2222,-0.2222,-0.2222,-0.2222,-0.2222,-0.2222,-0.2222,-0.2222,-0.2222,-0.2222,-0.2222,-0.2222,-0.2222,-0.2222,-0.2222,-0.2222,-0.2222,-0.2222,-0.2222,-0.2222,-0.2222,-0.2222,-0.2222,-0.2222,-0.2222,-0.2222,-0.2222,-0.2222,-0.2222,-0.2222,-0.2222,-0.2213,-0.2116,-0.2098,-0.2075,-0.2028,-0.2013,-0.1939,-0.1671,-0.1769,-0.1741,-0.1241,-0.1337,-0.1372,-0.1068,-0.0995,0.0,0.0,0.0598,0.1193,0.2384,0.3124,0.3411,0.0,0.0,0.0,0.4856,0.4417,0.4345,0.4643,0.4953,0.5018,0.4874,0.5616,0.6309,0.6881,0.6404,0.6202,0.6339,0.6366,0.6159,0.5724,0.6843,0.7018,0.6437,0.5902,0.5635,0.5568,0.4561,0.4024,0.3823,0.3823,0.3823,0.3756,-0.9507,-0.9507,-0.9507,-0.9507,-0.9507,-0.9219,-0.8345,-0.8273,-0.7984,-0.7115,-0.6968,-0.6753,-0.6031,-0.5958,-0.5668,-0.4943,-0.6174,-0.668,-0.6031,-0.5958,-0.5235,-0.364,-0.3569,-0.3205,-0.2333,-0.2318,-0.2296,-0.2266,-0.2221,-0.2207,-0.222,-0.2175,-0.223,-0.2175,-0.2228,-0.2222,-0.2222,-0.2222,-0.2222,-0.2222,-0.2222,-0.2222,-0.2222,-0.2222,-0.2222,-0.2222,-0.2222,-0.2222,-0.2222,-0.2222,-0.2222,-0.2222,-0.2222,-0.2222,-0.2222,-0.2222,-0.2222,-0.2222,-0.2222,-0.2222,-0.2222,-0.2222,-0.2222,-0.2218,-0.2133,-0.2119,-0.2034,-0.1873,-0.1783,-0.1699,-0.1312,-0.1409,-0.138,-0.0945,-0.1046,-0.0857,0.0,0.0111,0.0,0.2063,0.2345,0.2855,0.4114,0.4664,0.5011,0.5137,0.5518,0.0,0.6212,0.6357,0.6281,0.5956,0.6448,0.6522,0.6323,0.7094,0.7676,0.8117,0.7849,0.774,0.7804,0.7916,0.7766,0.7438,0.8227,0.8387,0.7984,0.7581,0.7381,0.7312,0.6573,0.6168,0.5965,0.5965,0.5965,0.5965,-0.6968,-0.6968,-0.6968,-0.6968,-0.6968,-0.6898,-0.668,-0.668,-0.6536,-0.6319,-0.6319,-0.5813,-0.4511,-0.4367,-0.3787,-0.2405,-0.4727,-0.5741,-0.4439,-0.4367,-0.3713,-0.2333,-0.2333,-0.2333,-0.2333,-0.2333,-0.2321,-0.2297,-0.2241,-0.2227,-0.218,-0.2195,-0.218,-0.2199,-0.2173,-0.2226,-0.2223,-0.2227,-0.2226,-0.2223,-0.2232,-0.223,-0.2223,-0.2228,-0.2229,-0.2229,-0.2229,-0.2232,-0.2168,-0.2168,-0.2168,-0.2168,-0.223,-0.2232,-0.2166,-0.2225,-0.2225,-0.2228,-0.2223,-0.2222,-0.2222,-0.2222,-0.2222,-0.2222,-0.2222,-0.2135,-0.1916,-0.1648,-0.1486,-0.1332,-0.1011,-0.0987,-0.0963,-0.0768,-0.0639,-0.0114,0.1178,0.0,0.2258,0.3894,0.4089,0.4588,0.5883,0.6009,0.6429,0.7511,0.7554,0.7546,0.7546,0.766,0.744,0.6747,0.7373,0.7538,0.7096,0.777,0.8152,0.8174,0.8318,0.8426,0.8446,0.8543,0.8587,0.8587,0.8587,0.8587,0.8587,0.8587,0.8587,0.8587,0.8587,0.8587,0.8587,0.8587,0.8587,0.8587,-0.6968,-0.6968,-0.6968,-0.6968,-0.6968,-0.6536,-0.5236,-0.5091,-0.4583,-0.3204,-0.3059,-0.2914,-0.2696,-0.2696,-0.2551,-0.2333,-0.2768,-0.2914,-0.2696,-0.2696,-0.2551,-0.2333,-0.2333,-0.2333,-0.2333,-0.2333,-0.233,-0.2326,-0.2293,-0.2279,-0.2283,-0.2248,-0.222,-0.22,-0.2195,-0.2178,-0.2224,-0.2182,-0.2178,-0.2227,-0.2211,-0.22,-0.2225,-0.2183,-0.2193,-0.2193,-0.2193,-0.2209,-0.2232,-0.2232,-0.2232,-0.2227,-0.2201,-0.2211,-0.2221,-0.217,-0.2173,-0.2187,-0.2229,-0.2222,-0.2222,-0.2222,-0.2222,-0.2222,-0.2222,-0.1949,-0.1672,-0.1585,-0.1313,-0.0975,-0.0634,-0.0747,-0.0731,-0.0237,0.0464,0.1141,0.1627,0.0,0.3888,0.5096,0.5459,0.6034,0.7251,0.7373,0.7532,0.7809,0.7728,0.7674,0.7674,0.7782,0.7837,0.7694,0.7773,0.7902,0.79,0.8083,0.8258,0.8361,0.8399,0.847,0.8562,0.8579,0.8587,0.8587,0.8587,0.8587,0.8587,0.8587,0.8587,0.8587,0.8587,0.8587,0.8587,0.8587,0.8587,0.8587,-0.4436,-0.4436,-0.4436,-0.4436,-0.4436,-0.4229,-0.3529,-0.3438,-0.3148,-0.2451,-0.2367,-0.2363,-0.238,-0.2382,-0.2382,-0.2382,-0.2367,-0.2357,-0.2357,-0.2342,-0.2333,-0.2333,-0.2333,-0.2333,-0.2333,-0.2333,-0.2333,-0.2333,-0.2305,-0.2298,-0.2313,-0.2196,-0.2247,-0.2248,-0.2232,-0.2217,-0.2204,-0.2219,-0.2217,-0.2206,-0.2234,-0.2229,-0.2205,-0.2219,-0.2224,-0.2224,-0.2224,-0.2234,-0.2175,-0.2175,-0.2175,-0.2173,-0.2229,-0.2234,-0.217,-0.2212,-0.219,-0.2172,-0.2226,-0.2222,-0.2222,-0.2222,-0.202,-0.1885,-0.1885,-0.1616,-0.1277,-0.1068,-0.0861,-0.0656,-0.0324,-0.0315,-0.0062,0.0979,0.1426,0.0,0.0,0.4475,0.5317,0.6655,0.6875,0.7228,0.7913,0.7929,0.7913,0.8026,0.7921,0.7891,0.7891,0.8002,0.8068,0.8068,0.8068,0.8095,0.8152,0.8272,0.8361,0.8418,0.8481,0.8535,0.8587,0.8587,0.8587,0.8587,0.8587,0.8587,0.8587,0.8587,0.8587,0.8587,0.8587,0.8587,0.8587,0.8587,0.8587,0.8587,-0.2333,-0.2333,-0.2333,-0.2333,-0.2333,-0.2341,-0.2364,-0.2348,-0.2352,-0.2406,-0.2393,-0.239,-0.242,-0.2423,-0.2423,-0.2423,-0.2402,-0.2386,-0.2378,-0.2356,-0.234,-0.2333,-0.2333,-0.2333,-0.2333,-0.2333,-0.2333,-0.2333,-0.2311,-0.2311,-0.2332,-0.2215,-0.2275,-0.229,-0.2266,-0.2182,-0.2176,-0.2182,-0.2182,-0.2176,-0.219,-0.2187,-0.2176,-0.2183,-0.2256,-0.2256,-0.2256,-0.219,-0.2195,-0.2195,-0.2195,-0.2194,-0.2258,-0.219,-0.2192,-0.2109,-0.2005,-0.197,-0.2167,-0.2093,-0.1953,-0.202,-0.175,-0.1481,-0.1481,-0.1212,-0.0875,-0.0538,-0.0467,-0.0198,0.0396,0.0513,0.0941,0.2391,0.0,0.0,0.0,0.612,0.6683,0.783,0.7937,0.803,0.8217,0.8149,0.8095,0.8095,0.8095,0.8095,0.8095,0.8185,0.8183,0.8277,0.8277,0.8277,0.8277,0.8397,0.8456,0.8459,0.8546,0.8587,0.8587,0.8587,0.8587,0.8587,0.8587,0.8587,0.8587,0.8587,0.8587,0.8587,0.8587,0.8587,0.8587,0.8587,0.8587,0.8587,-0.2333,-0.2333,-0.2333,-0.2333,-0.2333,-0.2333,-0.2336,-0.2334,-0.2345,-0.2377,-0.238,-0.239,-0.242,-0.2423,-0.2423,-0.2423,-0.2421,-0.2408,-0.238,-0.2376,-0.2362,-0.2334,-0.2333,-0.2333,-0.2333,-0.2333,-0.2333,-0.2333,-0.233,-0.233,-0.2333,-0.2328,-0.2313,-0.2291,-0.2288,-0.2272,-0.2177,-0.2275,-0.2271,-0.218,-0.2233,-0.2222,-0.2178,-0.2277,-0.2288,-0.2288,-0.2288,-0.2304,-0.2326,-0.2326,-0.2326,-0.2322,-0.2296,-0.2305,-0.2243,-0.1837,-0.1471,-0.1325,-0.1997,-0.1699,-0.1279,-0.1548,-0.1414,-0.1144,-0.1144,-0.0808,-0.0538,-0.0538,-0.0269,0.0402,0.1715,0.1969,0.2403,0.392,0.0,0.0,0.6031,0.7143,0.7957,0.81,0.8141,0.8214,0.817,0.8225,0.822,0.822,0.822,0.822,0.822,0.8167,0.8288,0.8402,0.8405,0.8405,0.8405,0.8519,0.8573,0.8573,0.8584,0.8587,0.8587,0.8587,0.8587,0.8587,0.8587,0.8587,0.8587,0.8587,0.8587,0.8587,0.8587,0.8587,0.8587,0.8587,0.8587,0.8587,-0.2333,-0.2333,-0.2333,-0.2333,-0.2354,-0.2375,-0.2387,-0.2389,-0.2407,-0.2456,-0.2446,-0.2446,-0.2476,-0.248,-0.248,-0.248,-0.2463,-0.2447,-0.2435,-0.2417,-0.2393,-0.2362,-0.2343,-0.2341,-0.236,-0.2343,-0.2333,-0.2333,-0.2333,-0.2333,-0.2333,-0.2333,-0.2327,-0.2317,-0.2317,-0.231,-0.2229,-0.2311,-0.231,-0.223,-0.2324,-0.232,-0.2301,-0.2312,-0.2317,-0.2317,-0.2317,-0.2178,-0.1968,-0.1968,-0.1823,-0.1604,-0.1596,-0.1599,-0.1602,-0.1442,-0.1072,-0.0922,-0.1412,-0.1318,-0.1159,-0.1227,-0.1016,-0.074,-0.074,0.0202,0.1143,0.1143,0.1948,0.2816,0.3334,0.3438,0.394,0.5375,0.0,0.651,0.7375,0.7867,0.8195,0.8272,0.832,0.8375,0.8446,0.8391,0.835,0.835,0.835,0.835,0.835,0.8416,0.8475,0.8522,0.8522,0.8522,0.8522,0.8565,0.8587,0.8587,0.8587,0.8587,0.8587,0.8587,0.8587,0.8587,0.8587,0.8587,0.8587,0.8587,0.8587,0.8587,0.8587,0.8587,0.8587,0.8587,0.8587,0.8587,-0.2333,-0.2333,-0.2336,-0.2345,-0.2371,-0.2398,-0.242,-0.2423,-0.2442,-0.2493,-0.2482,-0.248,-0.2511,-0.2515,-0.2515,-0.2515,-0.2495,-0.2479,-0.247,-0.244,-0.2414,-0.2393,-0.2373,-0.2367,-0.2378,-0.2358,-0.2342,-0.2333,-0.2333,-0.2333,-0.2333,-0.2333,-0.226,-0.2114,-0.2114,-0.2041,-0.1969,-0.1969,-0.2042,-0.2114,-0.2114,-0.2114,-0.2114,-0.2114,-0.2041,-0.1969,-0.1969,-0.1823,-0.1604,-0.1604,-0.1459,-0.1168,-0.1168,-0.1095,-0.1022,-0.1022,-0.0362,0.0288,0.0,0.0354,0.0556,-0.0069,0.0068,0.0474,0.0947,0.1955,0.2821,0.2821,0.3624,0.4427,0.4897,0.4991,0.5438,0.6833,0.7062,0.7389,0.8328,0.8399,0.8378,0.8462,0.8473,0.8503,0.8581,0.8516,0.8473,0.8473,0.8473,0.8473,0.8473,0.8546,0.8587,0.8587,0.8587,0.8587,0.8587,0.8587,0.8587,0.8587,0.8587,0.8587,0.8587,0.8587,0.8587,0.8587,0.8587,0.8587,0.8587,0.8587,0.8587,0.8587,0.8587,0.8587,0.8587,0.8587,0.8587,0.8587,-0.2333,-0.2333,-0.2343,-0.2373,-0.2378,-0.2389,-0.2419,-0.2424,-0.2435,-0.2465,-0.247,-0.248,-0.2511,-0.2515,-0.2515,-0.2515,-0.2515,-0.2502,-0.2472,-0.2441,-0.2424,-0.2424,-0.2424,-0.241,-0.238,-0.2378,-0.2364,-0.2333,-0.2333,-0.226,-0.226,-0.226,-0.2114,-0.1822,-0.1822,-0.1604,-0.1168,-0.1168,-0.1459,-0.1822,-0.1822,-0.1822,-0.1822,-0.1822,-0.1531,-0.1168,-0.1168,-0.1168,-0.1168,-0.1168,-0.1168,-0.1168,-0.1168,-0.0876,-0.0584,-0.0584,0.0802,0.233,0.233,0.346,0.4268,0.2316,0.194,0.2539,0.4112,0.4406,0.4294,0.4294,0.4293,0.4763,0.6174,0.6443,0.6911,0.8384,0.8587,0.8587,0.8587,0.8587,0.8587,0.8587,0.8587,0.8587,0.8587,0.8587,0.8587,0.8587,0.8587,0.8587,0.8587,0.8587,0.8587,0.8587,0.8587,0.8587,0.8587,0.8587,0.8587,0.8587,0.8587,0.8587,0.8587,0.8587,0.8587,0.8587,0.8587,0.8587,0.8587,0.8587,0.8587,0.8587,0.8587,0.8587,0.8587,0.8587,0.8587,0.8587,-0.2333,-0.235,-0.2367,-0.2376,-0.2414,-0.2445,-0.2454,-0.2474,-0.2491,-0.25,-0.2501,-0.2504,-0.2513,-0.2515,-0.2515,-0.2515,-0.2515,-0.251,-0.2502,-0.2492,-0.2487,-0.2487,-0.2446,-0.2429,-0.2442,-0.2421,-0.2405,-0.2396,-0.2078,-0.1921,-0.1921,-0.1685,-0.1459,-0.1386,-0.1386,-0.1313,-0.1168,-0.1168,-0.124,-0.1386,-0.1386,-0.1386,-0.1386,-0.1386,-0.1313,-0.1168,-0.1168,-0.1022,-0.0803,-0.0803,-0.0584,-0.0146,0.1031,0.1477,0.1775,0.2982,0.3638,0.4053,0.4053,0.4383,0.4544,0.3985,0.3862,0.4033,0.4519,0.5296,0.5924,0.5924,0.6686,0.7445,0.7848,0.7917,0.8117,0.852,0.8587,0.8587,0.8587,0.8587,0.8587,0.8587,0.8587,0.8587,0.8587,0.8587,0.8587,0.8587,0.8587,0.8587,0.8587,0.8587,0.8587,0.8587,0.8587,0.8587,0.8587,0.8587,0.8587,0.8587,0.8587,0.8587,0.8587,0.8587,0.8587,0.8587,0.8587,0.8587,0.8587,0.8587,0.8587,0.8587,0.8587,0.8587,0.8587,0.8587,0.8587,0.8587,-0.2366,-0.2384,-0.24,-0.2412,-0.2444,-0.2473,-0.2485,-0.2502,-0.2515,-0.2515,-0.2515,-0.2515,-0.2515,-0.2515,-0.2515,-0.2515,-0.2357,-0.22,-0.2043,-0.2043,-0.2043,-0.2043,-0.2014,-0.2077,-0.2237,-0.1991,-0.1903,-0.1893,-0.1653,-0.1572,-0.1572,-0.1338,-0.1111,-0.0963,-0.0963,-0.0889,-0.0741,-0.0741,-0.0815,-0.0963,-0.0963,-0.0963,-0.0963,-0.0963,-0.0444,0.0296,0.0296,0.0814,0.1627,0.1627,0.1775,0.2145,0.3113,0.3411,0.3635,0.461,0.5254,0.5661,0.5661,0.6069,0.6532,0.6552,0.6047,0.5708,0.6272,0.6976,0.753,0.753,0.8131,0.866,0.866,0.8619,0.8587,0.8587,0.8587,0.8587,0.8587,0.8587,0.8587,0.8587,0.8587,0.8587,0.8587,0.8587,0.8587,0.8587,0.8587,0.8587,0.8587,0.8587,0.8587,0.8587,0.8587,0.8587,0.8587,0.8587,0.8587,0.8587,0.8587,0.8587,0.8587,0.8587,0.8587,0.8587,0.8587,0.8587,0.8587,0.8587,0.8587,0.8587,0.8587,0.8587,0.8587,0.8587,0.8587,0.8587,-0.2418,-0.2425,-0.2436,-0.2464,-0.2471,-0.2482,-0.251,-0.2515,-0.2515,-0.2515,-0.2515,-0.2515,-0.2436,-0.2436,-0.2436,-0.2357,-0.2043,-0.1728,-0.1335,-0.1335,-0.1335,-0.1335,-0.1257,-0.1328,-0.1468,-0.1313,-0.123,-0.1216,-0.0986,-0.091,-0.091,-0.0757,-0.0454,-0.0076,-0.0076,0.0076,0.0454,0.0454,0.0227,-0.0076,-0.0076,-0.0076,-0.0076,-0.0076,0.1059,0.2722,0.2722,0.3702,0.4983,0.4983,0.4983,0.4975,0.4996,0.5054,0.5044,0.5143,0.6141,0.7223,0.7223,0.8227,0.9304,0.9304,0.8141,0.7427,0.8789,0.8984,0.8898,0.8898,0.887,0.8788,0.8788,0.8685,0.8603,0.8603,0.8595,0.8587,0.8587,0.8587,0.8587,0.8587,0.8587,0.8587,0.8587,0.8587,0.8587,0.8587,0.8587,0.8587,0.8587,0.8587,0.8587,0.8587,0.8587,0.8587,0.8587,0.8587,0.8587,0.8587,0.8587,0.8587,0.8587,0.8587,0.8587,0.8587,0.8587,0.8587,0.8587,0.8587,0.8587,0.8587,0.8587,0.8587,0.8587,0.8587,0.8587,0.8587,-0.2418,-0.2443,-0.2461,-0.2468,-0.2489,-0.2506,-0.2513,-0.2515,-0.2515,-0.2515,-0.2515,-0.2357,-0.2043,-0.2043,-0.1886,-0.1571,-0.1492,-0.1414,-0.1335,-0.1335,-0.1335,-0.1335,-0.0943,-0.0157,0.1093,-0.0469,-0.125,-0.1247,0.0385,0.1227,0.1227,0.2884,0.3701,0.3777,0.3777,0.3852,0.3928,0.3928,0.3852,0.3777,0.3777,0.3777,0.3777,0.3777,0.4078,0.4456,0.4456,0.4682,0.4983,0.4983,0.4983,0.5217,0.6544,0.6939,0.7179,0.8459,0.8973,0.914,0.914,0.9228,0.9304,0.9304,0.8994,0.8829,0.9194,0.9179,0.9025,0.9025,0.8997,0.8913,0.8913,0.8812,0.8731,0.8731,0.8649,0.8587,0.8587,0.8587,0.8587,0.8587,0.8587,0.8587,0.8587,0.8587,0.8587,0.8587,0.8587,0.8587,0.8587,0.8587,0.8587,0.8587,0.8587,0.8587,0.8587,0.8587,0.8587,0.8587,0.8587,0.8587,0.8587,0.8587,0.8587,0.8587,0.8587,0.8587,0.8587,0.8587,0.8587,0.8587,0.8587,0.8587,0.8587,0.8587,0.8587,0.8587,-0.2458,-0.248,-0.2491,-0.2491,-0.2504,-0.2515,-0.2515,-0.2515,-0.2436,-0.22,-0.22,-0.2043,-0.1649,-0.1649,-0.1414,-0.1021,-0.0943,-0.055,0.0471,0.0549,0.0863,0.1646,0.196,0.2508,0.3368,0.2273,0.1725,0.1725,0.2803,0.3415,0.3416,0.4473,0.4995,0.4995,0.4995,0.4995,0.4995,0.4995,0.4995,0.4995,0.4995,0.4995,0.4995,0.4995,0.5532,0.6222,0.6222,0.6683,0.7374,0.7374,0.7374,0.7527,0.8375,0.8607,0.8762,0.9619,0.9767,0.9669,0.9669,0.9533,0.9391,0.9391,0.9348,0.9304,0.9304,0.9258,0.9215,0.9215,0.912,0.8968,0.8968,0.894,0.8856,0.8856,0.8804,0.8742,0.8682,0.8674,0.8652,0.8595,0.8587,0.8587,0.8587,0.8587,0.8587,0.8587,0.8587,0.8587,0.8587,0.8587,0.8587,0.8587,0.8587,0.8587,0.8587,0.8587,0.8587,0.8587,0.8587,0.8587,0.8587,0.8587,0.8587,0.8587,0.8587,0.8587,0.8587,0.8587,0.8587,0.8587,0.8587,0.8587,0.8587,0.8587,0.8587,0.8587,-0.2495,-0.2511,-0.2515,-0.2515,-0.2515,-0.2515,-0.2515,-0.2436,-0.2278,-0.1964,-0.1807,-0.1649,-0.1257,-0.11,-0.0785,-0.0157,-0.0079,0.0784,0.282,0.2899,0.3526,0.4936,0.5014,0.517,0.5405,0.5405,0.5248,0.5014,0.5248,0.5405,0.5405,0.5717,0.5874,0.5874,0.5874,0.5874,0.5874,0.5874,0.5874,0.5874,0.5874,0.5874,0.5874,0.5874,0.6733,0.7907,0.7907,0.8844,1.0019,1.0019,1.0019,1.0003,0.99,0.9867,0.9851,0.9756,0.9715,0.9699,0.9699,0.9612,0.9516,0.9516,0.944,0.9362,0.934,0.9318,0.9304,0.9304,0.9228,0.9163,0.9163,0.8995,0.8914,0.8914,0.8895,0.8847,0.8815,0.8802,0.8755,0.8633,0.86,0.8587,0.8587,0.8587,0.8587,0.8587,0.8587,0.8587,0.8587,0.8587,0.8587,0.8587,0.8606,0.8619,0.8619,0.8638,0.8649,0.8649,0.8649,0.8628,0.8587,0.8587,0.8587,0.8587,0.8587,0.8587,0.8587,0.8587,0.8587,0.8587,0.8587,0.8587,0.8587,0.8587,0.86,0.8619,-0.2468,-0.2496,-0.2515,-0.2515,-0.2515,-0.2515,-0.2515,-0.22,-0.1964,-0.1886,-0.1571,-0.1178,-0.0707,-0.0393,0.0471,0.196,0.2116,0.282,0.4543,0.47,0.4779,0.5014,0.5014,0.5639,0.7123,0.7125,0.642,0.5014,0.642,0.7125,0.7201,0.8611,0.9314,0.9314,0.9314,0.9314,0.9314,0.9314,0.9314,0.9314,0.9314,0.9314,0.9314,0.9314,0.9472,0.9628,0.9628,0.9786,1.0019,1.0019,1.0019,1.0017,1.0,0.9995,0.9992,0.9976,0.9897,0.9815,0.9815,0.9731,0.9644,0.9644,0.9633,0.9593,0.9487,0.9381,0.9304,0.9304,0.9291,0.928,0.928,0.9188,0.9038,0.9038,0.8952,0.8876,0.886,0.8857,0.888,0.8761,0.8652,0.8587,0.8587,0.8587,0.8587,0.8587,0.8587,0.8587,0.8587,0.8587,0.8587,0.8587,0.869,0.8745,0.8745,0.8851,0.8833,0.8833,0.8833,0.8791,0.8587,0.8587,0.8587,0.8587,0.8587,0.8587,0.8587,0.8587,0.8587,0.8587,0.8587,0.8587,0.8587,0.8587,0.8655,0.8745,-0.2463,-0.2493,-0.2435,-0.22,-0.22,-0.2121,-0.1886,-0.1649,-0.1492,-0.1178,-0.1021,-0.0393,0.102,0.2117,0.3057,0.3839,0.3917,0.4621,0.6264,0.642,0.6811,0.7749,0.7827,0.8141,0.8844,0.8922,0.8533,0.7827,0.8533,0.8922,0.8925,0.9628,1.0019,1.0019,1.0019,1.0019,1.0019,1.0019,1.0019,1.0019,1.0019,1.0019,1.0019,1.0019,1.0019,1.0028,1.0098,1.0166,1.0223,1.0223,1.0223,1.0223,1.0223,1.0177,1.0123,1.0123,1.0036,0.9941,0.9941,0.9854,0.9764,0.9764,0.9715,0.9655,0.9601,0.9546,0.947,0.9332,0.9304,0.9304,0.9304,0.9264,0.9228,0.9228,0.9185,0.9125,0.8992,0.8984,0.8984,0.8793,0.8723,0.8663,0.8595,0.8587,0.8587,0.8587,0.8587,0.8587,0.8587,0.8652,0.869,0.869,0.8807,0.8872,0.8872,0.8855,0.8882,0.8882,0.8882,0.8828,0.8791,0.8791,0.8755,0.869,0.869,0.8649,0.8587,0.8587,0.8587,0.8595,0.8663,0.8731,0.8791,0.8791,0.8826,0.8872]},{"header":{"parameterUnit":"m.s-1","parameterCategory":1,"la1":30.6,"la2":28.766,"lo1":-90.7593,"lo2":-88.6598,"dy":0.0162,"dx":0.0183,"nx":116,"ny":114,"refTime":"2024-06-09T12:00:00:Z","depth":0,"parameterNumber":3,"parameterNumberName":"V-component_of_WINDS"},"data":[0.0,0.0,0.0,0.0,0.0,0.0,0.0,0.0,0.0,0.0,0.0,0.0,0.0,0.0,0.0,0.0,0.0,0.0,0.0,0.0,0.0,0.0,0.0,0.0,0.0,0.0,0.0,0.0,0.0,0.0,0.0,0.0,0.0,0.0,0.0,0.0,0.0,0.0,0.0,0.0,0.0,0.0,0.0,0.0,0.0,0.0,0.0,0.0,0.0,0.0,0.0,0.0,0.0,0.0,0.0,0.0,0.0,0.0,0.0,0.0,0.0,0.0,0.0,0.0,0.0,0.0,0.0,0.0,0.0,0.0,0.0,0.0,0.0,0.0,0.0,0.0,0.0,0.0,0.0,0.0,0.0,0.0,0.0,0.0,0.0,0.0,0.0,0.0,0.0,0.0,0.0,0.0,0.0,0.0,0.0,0.0,0.0,0.0,0.0,0.0,0.0,0.0,0.0,0.0,0.0,0.0,0.0,0.0,0.0,0.0,0.0,0.0,0.0,0.0,0.0,0.0,0.0,0.0,0.0,0.0,0.0,0.0,0.0,0.0,0.0,0.0,0.0,0.0,0.0,0.0,0.0,0.0,0.0,0.0,0.0,0.0,0.0,0.0,0.0,0.0,0.0,0.0,0.0,0.0,0.0,0.0,0.0,0.0,0.0,0.0,0.0,0.0,0.0,0.0,0.0,0.0,0.0,0.0,0.0,0.0,0.0,0.0,0.0,0.0,0.0,0.0,0.0,0.0,0.0,0.0,0.0,0.0,0.0,0.0,0.0,0.0,0.0,0.0,0.0,0.0,0.0,0.0,0.0,0.0,0.0,0.0,0.0,0.0,0.0,0.0,0.0,0.0,0.0,0.0,0.0,0.0,0.0,0.0,0.0,0.0,0.0,0.0,0.0,0.0,0.0,0.0,0.0,0.0,0.0,0.0,0.0,0.0,0.0,0.0,0.0,0.0,0.0,0.0,0.0,0.0,0.0,0.0,0.0,0.0,0.0,0.0,0.0,0.0,0.0,0.0,0.0,0.0,0.0,0.0,0.0,0.0,0.0,0.0,0.0,0.0,0.0,0.0,0.0,0.0,0.0,0.0,0.0,0.0,0.0,0.0,0.0,0.0,0.0,0.0,0.0,0.0,0.0,0.0,0.0,0.0,0.0,0.0,0.0,0.0,0.0,0.0,0.0,0.0,0.0,0.0,0.0,0.0,0.0,0.0,0.0,0.0,0.0,0.0,0.0,0.0,0.0,0.0,0.0,0.0,0.0,0.0,0.0,0.0,0.0,0.0,0.0,0.0,0.0,0.0,0.0,0.0,0.0,0.0,0.0,0.0,0.0,0.0,0.0,0.0,0.0,0.0,0.0,0.0,0.0,0.0,0.0,0.0,0.0,0.0,0.0,0.0,0.0,0.0,0.0,0.0,0.0,0.0,0.0,0.0,0.0,0.0,0.0,0.0,0.0,0.0,0.0,0.0,0.0,0.0,0.0,0.0,0.0,0.0,0.0,0.0,0.0,0.0,0.0,0.0,0.0,0.0,0.0,0.0,0.0,0.0,0.0,0.0,0.0,0.0,0.0,0.0,0.0,0.0,0.0,0.0,0.0,0.0,0.0,0.0,0.0,0.0,0.0,0.0,0.0,0.0,0.0,0.0,0.0,0.0,0.0,0.0,0.0,0.0,0.0,0.0,0.0,0.0,0.0,0.0,0.0,0.0,0.0,0.0,0.0,0.0,0.0,0.0,0.0,0.0,0.0,0.0,0.0,0.0,0.0,0.0,0.0,0.0,0.0,0.0,0.0,0.0,0.0,0.0,0.0,0.0,0.0,0.0,0.0,0.0,0.0,0.0,0.0,0.0,0.0,0.0,0.0,0.0,0.0,0.0,0.0,0.0,0.0,0.0,0.0,0.0,0.0,0.0,0.0,0.0,0.0,0.0,0.0,0.0,0.0,0.0,0.0,0.0,0.0,0.0,0.0,0.0,0.0,0.0,0.0,0.0,0.0,0.0,0.0,0.0,0.0,0.0,0.0,0.0,0.0,0.0,0.0,0.0,0.0,0.0,0.0,0.0,0.0,0.0,0.0,0.0,0.0,0.0,0.0,0.0,0.0,0.0,0.0,0.0,0.0,0.0,0.0,0.0,0.0,0.0,0.0,0.0,0.0,0.0,0.0,0.0,0.0,0.0,0.0,0.0,0.0,0.0,0.0,0.0,0.0,0.0,0.0,0.0,0.0,0.0,0.0,0.0,0.0,0.0,0.0,0.0,0.0,0.0,0.0,0.0,0.0,0.0,0.0,0.0,0.0,0.0,0.0,0.0,0.0,0.0,0.0,0.0,0.0,0.0,0.0,0.0,0.0,0.0,0.0,0.0,0.0,0.0,0.0,0.0,0.0,0.0,0.0,0.0,0.0,0.0,0.0,0.0,0.0,0.0,0.0,0.0,0.0,0.0,0.0,0.0,0.0,0.0,0.0,0.0,0.0,0.0,0.0,0.0,0.0,0.0,0.0,0.0,0.0,0.0,0.0,0.0,0.0,0.0,0.0,0.0,0.0,0.0,0.0,0.0,0.0,0.0,0.0,0.0,0.0,0.0,0.0,0.0,0.0,0.0,0.0,0.0,0.0,0.0,0.0,0.0,0.0,0.0,0.0,0.0,0.0,0.0,0.0,0.0,0.0,0.0,0.0,0.0,0.0,0.0,0.0,0.0,0.0,0.0,0.0,0.0,0.0,0.0,0.0,0.0,0.0,0.0,0.0,0.0,0.0,0.0,0.0,0.0,0.0,0.0,0.0,0.0,0.0,0.0,0.0,0.0,0.0,0.0,0.0,0.0,0.0,0.0,0.0,0.0,0.0,0.0,0.0,0.0,0.0,0.0,0.0,0.0,0.0,0.0,0.0,0.0,0.0,0.0,0.0,0.0,0.0,0.0,0.0,0.0,0.0,0.0,0.0,0.0,0.0,0.0,0.0,0.0,0.0,0.0,0.0,0.0,0.0,0.0,0.0,0.0,0.0,0.0,0.0,0.0,0.0,0.0,0.0,0.0,0.0,0.0,0.0,0.0,0.0,0.0,0.0,0.0,0.0,0.0,0.0,0.0,0.0,0.0,0.0,0.0,0.0,0.0,0.0,0.0,0.0,0.0,0.0,0.0,0.0,0.0,0.0,0.0,0.0,0.0,0.0,0.0,0.0,0.0,0.0,0.0,0.0,0.0,0.0,0.0,0.0,0.0,0.0,0.0,0.0,0.0,0.0,0.0,0.0,0.0,0.0,0.0,0.0,0.0,0.0,0.0,0.0,0.0,0.0,0.0,0.0,0.0,0.0,0.0,0.0,0.0,0.0,0.0,0.0,0.0,0.0,0.0,0.0,0.0,0.0,0.0,0.0,0.0,0.0,0.0,0.0,0.0,0.0,0.0,0.0,0.0,0.0,0.0,0.0,0.0,0.0,0.0,0.0,0.0,0.0,0.0,0.0,0.0,0.0,0.0,0.0,0.0,0.0,0.0,0.0,0.0,0.0,0.0,0.0,0.0,0.0,0.0,0.0,0.0,0.0,0.0,0.0,0.0,0.0,0.0,0.0,0.0,0.0,0.0,0.0,0.0,0.0,0.0,0.0,0.0,0.0,0.0,0.0,0.0,0.0,0.0,0.0,0.0,0.0,0.0,0.0,0.0,0.0,0.0,0.0,0.0,0.0,0.0,0.0,0.0,0.0,0.0,0.0,0.0,0.0,0.0,0.0,0.0,0.0,0.0,0.0,0.0,0.0,0.0,0.0,0.0,0.0,0.0,0.0,0.0,0.0,0.0,0.0,0.0,0.0,0.0,0.0,0.0,0.0,0.0,0.0,0.0,0.0,0.0,0.0,0.0,0.0,0.0,0.0,0.0,0.0,0.0,0.0,0.0,0.0,0.0,0.0,0.0,0.0,0.0,0.0,0.0,0.0,0.0,0.0,0.0,0.0,0.0,0.0,0.0,0.0,0.0,0.0,0.0,0.0,0.0,0.0,0.0,0.0,0.0,0.0,0.0,0.0,0.0,0.0,0.0,0.0,0.0,0.0,0.0,0.0,0.0,0.0,0.0,0.0,0.0,0.0,0.0,0.0,0.0,0.0,0.0,0.0,0.0,0.0,0.0,0.0,0.0,0.0,0.0,0.0,0.0,0.0,0.0,0.0,0.0,0.0,0.0,0.0,0.0,0.0,0.0,0.0,0.0,0.0,0.0,0.0,0.0,0.0,0.0,0.0,0.0,0.0,0.0,0.0,0.0,0.0,0.0,0.0,0.0,0.0,0.0,0.0,0.0,0.0,0.0,0.0,0.0,0.0,0.0,0.0,0.0,0.0,0.0,0.0,0.0,0.0,0.0,0.0,0.0,0.0,0.0,0.0,0.0,0.0,0.0,0.0,0.0,0.0,0.0,0.0,0.0,0.0,0.0,0.0,0.0,0.0,0.0,0.0,0.0,0.0,0.0,0.0,0.0,0.0,0.0,0.0,0.0,0.0,0.0,0.0,0.0,0.0,0.0,0.0,0.0,0.0,0.0,0.0,0.0,0.0,0.0,0.0,0.0,0.0,0.0,0.0,0.0,0.0,0.0,0.0,0.0,0.0,0.0,0.0,0.0,0.0,0.0,0.0,0.0,0.0,0.0,0.0,0.0,0.0,0.0,0.0,0.0,0.0,0.0,0.0,0.0,0.0,0.0,0.0,0.0,0.0,0.0,0.0,0.0,0.0,0.0,0.0,0.0,0.0,0.0,0.0,0.0,0.0,0.0,0.0,0.0,0.0,0.0,0.0,0.0,0.0,0.0,0.0,0.0,0.0,0.0,0.0,0.0,0.0,0.0,0.0,0.0,0.0,0.0,0.0,0.0,0.0,0.0,0.0,0.0,0.0,0.0,0.0,0.0,0.0,0.0,0.0,0.0,0.0,0.0,0.0,0.0,0.0,0.0,0.0,0.0,0.0,0.0,0.0,0.0,0.0,0.0,0.0,0.0,0.0,0.0,0.0,0.0,0.0,0.0,0.0,0.0,0.0,0.0,0.0,0.0,0.0,0.0,0.0,0.0,0.0,0.0,0.0,0.0,0.0,0.0,0.0,0.0,0.0,0.0,0.0,0.0,0.0,0.0,0.0,0.0,0.0,0.0,0.0,0.0,0.0,0.0,0.0,0.0,0.0,0.0,0.0,0.0,0.0,0.0,0.0,0.0,0.0,0.0,0.0,0.0,0.0,0.0,0.0,0.0,0.0,0.0,0.0,0.0,0.0,0.0,0.0,0.0,0.0,0.0,0.0,0.0,0.0,0.0,0.0,0.0,0.0,0.0,0.0,0.0,0.0,0.0,0.0,0.0,0.0,0.0,0.0,0.0,0.0,0.0,0.0,0.0,0.0,0.0,0.0,0.0,0.0,0.0,0.0,0.0,0.0,0.0,0.0,0.0,0.0,0.0,0.0,0.0,0.0,0.0,0.0,0.0,0.0,0.0,0.0,0.0,0.0,0.0,0.0,0.0,0.0,0.0,0.0,0.0,0.0,0.0,0.0,0.0,0.0,0.0,0.0,0.0,0.0,0.0,0.0,0.0,0.0,0.0,0.0,0.0,0.0,0.0,0.0,0.0,0.0,0.0,0.0,0.0,0.0,0.0,0.0,0.0,0.0,0.0,0.0,0.0,0.0,0.0,0.0,0.0,0.0,0.0,0.0,0.0,0.0,0.0,0.0,0.0,0.0,0.0,0.0,0.0,0.0,0.0,0.0,0.0,0.0,0.0,0.0,0.0,0.0,0.0,0.0,0.0,0.0,0.0,0.0,0.0,0.0,0.0,0.0,0.0,0.0,0.0,0.0,0.0,0.0,0.0,0.0,0.0,0.0,0.0,0.0,0.0,0.0,0.0,0.0,0.0,0.0,0.0,0.0,0.0,0.0,0.0,0.0,0.0,0.0,0.0,0.0,0.0,0.0,0.0,0.0,0.0,0.0,0.0,0.0,0.0,0.0,0.0,0.0,0.0,0.0,0.0,0.0,0.0,0.0,0.0,0.0,0.0,0.0,0.0,0.0,0.0,0.0,0.0,0.0,0.0,0.0,0.0,0.0,0.0,0.0,0.0,0.0,0.0,0.0,0.0,1.368,0.0,0.0,0.0,0.0,0.0,0.0,0.0,0.0,0.0,0.0,0.0,0.0,0.0,0.0,0.0,0.0,0.0,0.0,0.0,0.0,0.0,0.0,0.0,0.0,1.9839,2.0027,2.0135,2.0824,2.107,2.0602,0.0,0.0,0.0,0.0,0.0,1.8207,1.8003,1.8144,1.8672,1.9051,1.9861,2.1051,2.07,1.9271,1.7,0.0,0.0,0.0,0.0,0.0,0.0,0.0,0.0,0.0,0.0,0.0,0.0,0.0,0.0,0.0,0.0,0.0,0.0,0.0,0.0,0.0,0.0,0.0,0.0,0.0,0.0,0.0,0.0,0.0,0.0,0.0,0.0,0.0,0.0,0.0,0.0,0.0,0.0,0.0,0.0,0.0,0.0,0.0,0.0,0.0,0.0,0.0,0.0,0.0,0.0,0.0,0.0,0.0,0.0,0.0,0.0,0.0,0.0,0.0,0.0,0.0,0.0,0.0,0.0,0.0,0.0,0.0,0.0,0.0,0.0,0.0,1.5648,0.0,0.0,0.0,0.0,0.0,0.0,0.0,0.0,0.0,0.0,0.0,0.0,0.0,0.0,0.0,0.0,0.0,0.0,0.0,0.0,0.0,1.9435,1.9886,2.0557,2.0956,2.0888,2.2051,2.2431,2.163,2.1216,0.0,0.0,0.0,1.8624,1.8351,1.8345,1.891,2.0052,2.0674,2.2174,2.4492,2.5381,2.3681,1.9844,1.9162,0.0,0.0,0.0,0.0,0.0,0.0,0.0,0.0,0.0,0.0,0.0,0.0,0.0,0.0,0.0,0.0,0.0,0.0,0.0,0.0,0.0,0.0,0.0,0.0,0.0,0.0,0.0,0.0,0.0,0.0,0.0,0.0,0.0,0.0,0.0,0.0,0.0,0.0,0.0,0.0,0.0,0.0,0.0,0.0,0.0,0.0,0.0,0.0,0.0,0.0,0.0,0.0,0.0,0.0,0.0,0.0,0.0,0.0,0.0,0.0,0.0,0.0,0.0,1.9089,1.9117,1.9155,1.9212,1.9745,2.0668,1.9818,1.938,1.9195,1.7943,0.0,0.0,0.0,0.0,0.0,0.0,0.0,0.0,0.0,0.0,0.0,0.0,0.0,0.0,0.0,0.0,0.0,0.0,0.0,2.0653,2.1574,2.237,2.316,2.3947,2.4194,2.396,2.3171,2.2514,0.0,0.0,2.0459,1.9957,1.9732,2.0276,2.0865,2.144,2.4305,2.6477,2.7964,2.8644,2.8423,2.7229,2.3782,2.2272,2.2164,0.0,0.0,0.0,0.0,0.0,0.0,0.0,0.0,0.0,0.0,0.0,0.0,0.0,0.0,0.0,0.0,0.0,0.0,0.0,0.0,0.0,0.0,0.0,0.0,0.0,0.0,0.0,0.0,0.0,0.0,0.0,0.0,0.0,0.0,0.0,0.0,0.0,0.0,0.0,0.0,0.0,1.6418,1.708,0.0,0.0,0.0,0.0,0.0,0.0,0.0,0.0,0.0,0.0,0.0,0.0,0.0,1.9056,1.9841,2.1107,2.214,2.2889,2.3368,2.3645,2.3645,2.3645,2.3728,2.3906,2.3753,0.0,2.0767,2.0189,0.0,0.0,0.0,0.0,0.0,0.0,0.0,0.0,0.0,0.0,0.0,0.0,0.0,0.0,0.0,0.0,0.0,0.0,0.0,0.0,0.0,2.3853,2.5226,2.5537,2.6888,2.6958,2.5139,2.4341,2.3293,2.1876,2.1262,2.0806,2.0461,2.1431,2.2951,2.5024,2.8308,3.0223,3.0821,3.148,3.1511,3.0934,2.9166,2.7062,2.4652,2.2585,0.0,0.0,0.0,0.0,0.0,0.0,0.0,0.0,0.0,0.0,0.0,0.0,0.0,0.0,0.0,0.0,0.0,0.0,0.0,0.0,0.0,0.0,0.0,0.0,0.0,0.0,0.0,0.0,0.0,0.0,0.0,0.0,0.0,0.0,0.0,0.0,0.0,0.0,0.0,1.6377,1.777,1.7976,1.7833,1.7448,0.0,0.0,0.0,0.0,0.0,0.0,0.0,0.0,0.0,2.0742,2.1349,2.2144,2.3036,2.3705,2.4303,2.4908,2.5148,2.5295,2.5295,2.5295,2.5295,2.5295,2.5295,2.4716,2.3681,2.2317,2.111,2.0125,0.0,0.0,0.0,0.0,2.1223,2.1394,0.0,0.0,0.0,0.0,0.0,0.0,0.0,0.0,0.0,0.0,0.0,0.0,2.2815,2.559,2.7395,2.7472,2.9231,2.9403,2.7155,2.5797,2.4313,2.257,2.1866,2.1365,2.105,2.2954,2.5488,2.8618,3.139,3.2841,3.3036,3.3694,3.38,3.3412,3.3412,3.1444,2.7964,2.5804,2.4118,2.2682,0.0,0.0,0.0,0.0,0.0,0.0,0.0,0.0,0.0,0.0,0.0,0.0,0.0,0.0,0.0,0.0,0.0,0.0,0.0,0.0,0.0,0.0,0.0,0.0,0.0,0.0,0.0,0.0,0.0,0.0,0.0,0.0,0.0,0.0,0.0,0.0,0.0,1.8202,1.9386,1.9134,1.9776,1.9685,0.0,0.0,0.0,0.0,0.0,0.0,2.1765,2.2068,2.2768,2.3903,2.4202,2.4741,2.5564,2.5689,2.5916,2.6273,2.6273,2.6273,2.6273,2.6273,2.6273,2.6273,2.6273,2.621,2.5951,2.4232,2.3011,2.2176,2.1913,2.18,2.195,2.3307,2.3734,2.4048,0.0,0.0,0.0,0.0,0.0,0.0,0.0,0.0,0.0,0.0,0.0,2.3614,2.5588,2.7967,2.9783,3.0607,3.0733,3.0249,0.0,2.6468,2.4509,2.3381,2.2169,2.1581,2.1762,2.543,2.8637,3.1301,3.2751,3.3769,3.4414,3.5085,3.5385,3.5355,3.5355,3.4668,3.3294,2.9897,2.8292,2.7705,2.3892,0.0,0.0,0.0,0.0,0.0,0.0,0.0,0.0,0.0,0.0,0.0,0.0,0.0,0.0,0.0,0.0,0.0,0.0,0.0,0.0,0.0,0.0,0.0,0.0,0.0,0.0,0.0,0.0,0.0,0.0,0.0,0.0,0.0,0.0,0.0,0.0,0.0,0.0,2.1689,2.2271,0.0,0.0,0.0,0.0,2.1131,2.2372,2.3131,2.3202,2.4173,2.475,2.4812,2.5877,2.6501,2.6542,2.6988,2.7216,2.7237,2.7237,2.7237,2.7237,2.7237,2.7237,2.7237,2.7237,2.6988,2.6501,2.5737,2.4935,2.4021,2.386,2.3722,2.3841,2.5249,2.6214,2.7097,0.0,0.0,0.0,0.0,0.0,1.9676,1.9573,1.9863,2.0185,2.0466,2.2823,2.5064,2.661,2.9891,3.2173,3.2664,3.3404,3.2973,3.0971,2.8471,2.6719,2.594,2.4661,2.4845,2.678,2.8992,3.1001,3.2796,3.4143,3.4906,3.5145,3.5385,3.5504,3.5504,3.591,3.6091,3.5962,3.3072,3.1417,3.0464,2.7624,2.5227,0.0,0.0,0.0,0.0,0.0,0.0,0.0,0.0,0.0,0.0,0.0,0.0,0.0,0.0,0.0,0.0,0.0,0.0,0.0,0.0,0.0,0.0,0.0,0.0,0.0,0.0,0.0,0.0,0.0,0.0,0.0,0.0,0.0,0.0,0.0,0.0,0.0,2.4464,2.4901,0.0,2.3765,2.335,2.3287,2.3583,2.42,2.49,2.5817,2.6259,2.6692,2.728,2.7669,2.7738,2.7448,2.7603,2.7541,2.7309,2.7309,2.7309,2.7309,2.7309,2.7309,2.7309,2.7309,2.7537,2.7943,2.8034,2.7125,2.5773,2.6023,2.6437,2.7036,2.7779,2.8594,2.9467,0.0,0.0,0.0,0.0,1.9815,1.967,1.9585,2.0099,2.0691,2.1238,2.3885,2.6447,2.8403,3.1738,3.4032,3.4462,3.4972,3.4443,3.2538,2.9856,2.8135,2.762,2.6994,2.8077,3.1133,3.2283,3.3359,3.4484,3.5391,3.5701,3.5504,3.5716,3.5797,3.5814,3.6461,3.7101,3.7581,3.5913,3.4473,3.3165,3.1027,2.9054,2.723,0.0,0.0,0.0,0.0,0.0,0.0,0.0,0.0,0.0,0.0,0.0,0.0,0.0,0.0,0.0,0.0,0.0,0.0,0.0,0.0,0.0,0.0,0.0,0.0,0.0,0.0,0.0,0.0,0.0,0.0,0.0,0.0,0.0,0.0,0.0,2.6115,2.6348,2.7303,2.7525,2.6556,2.6531,2.651,2.6445,2.6704,2.7117,2.7714,2.7717,2.7986,2.8597,2.8618,2.8473,2.8162,2.8152,2.7924,2.7479,2.7479,2.7455,2.7309,2.7309,2.7357,2.7404,2.7404,2.7809,2.8538,2.9246,2.8776,2.7729,2.8309,2.8976,2.9618,2.9876,3.054,3.1288,0.0,0.0,0.0,1.9955,1.9866,1.9688,1.9682,2.0181,2.1103,2.2685,2.5055,2.7823,3.1072,3.3538,3.5248,3.6043,3.5314,3.4453,3.3639,3.0516,2.8596,2.83,2.9059,3.1054,3.4424,3.5126,3.5812,3.6492,3.6492,3.6209,3.5662,3.6225,3.6492,3.6523,3.7194,3.7828,3.8371,3.8355,3.7513,3.5984,3.4079,3.2483,3.1049,0.0,0.0,0.0,0.0,0.0,0.0,0.0,0.0,0.0,0.0,0.0,0.0,0.0,0.0,0.0,0.0,0.0,0.0,0.0,0.0,0.0,0.0,0.0,0.0,0.0,0.0,0.0,0.0,0.0,0.0,0.0,0.0,0.0,2.555,2.6929,2.7831,2.7342,2.9432,3.0362,2.8887,3.019,3.0718,2.9668,3.0038,2.9834,2.8769,2.8719,2.869,2.87,2.87,2.869,2.868,2.868,2.8442,2.7986,2.7976,2.7728,2.7351,2.733,2.7415,2.7594,2.7584,2.7762,2.8175,2.936,2.9897,2.9988,3.0644,3.1153,3.1427,3.1414,3.1941,3.262,0.0,0.0,1.8367,1.9658,1.9774,1.9643,1.9504,2.0519,2.168,2.2749,2.6025,2.9258,3.1977,3.4348,3.5957,3.6412,3.5439,3.4263,3.3036,3.0476,2.9394,3.0332,3.2526,3.4646,3.66,3.6822,3.748,3.8669,3.8669,3.8576,3.8388,3.8576,3.8669,3.8669,3.9358,3.9731,3.9875,3.9832,3.9567,3.9007,3.6876,3.5538,3.4577,0.0,0.0,0.0,0.0,0.0,0.0,0.0,0.0,0.0,0.0,0.0,0.0,0.0,0.0,0.0,0.0,0.0,0.0,0.0,0.0,0.0,0.0,0.0,0.0,0.0,0.0,0.0,0.0,0.0,0.0,0.0,0.0,2.8324,2.8549,2.9656,3.0682,3.1373,3.1763,3.1989,3.2015,3.1774,3.1664,3.1743,3.1891,3.1748,3.1365,3.1357,3.1114,3.0658,3.0615,3.046,3.0118,3.0118,2.988,2.9425,2.9083,2.869,2.8235,2.7893,2.762,2.7404,2.7536,2.8434,2.9863,3.0553,3.1665,3.2821,3.1782,3.1884,3.2533,3.2089,3.2232,3.2672,0.0,1.7583,1.8055,1.962,1.9763,1.9616,1.9464,2.0643,2.1999,2.3197,2.656,2.9801,3.2331,3.4357,3.5575,3.5596,3.5048,3.3876,3.1876,3.0778,3.1254,3.3558,3.5554,3.7268,3.8691,3.8998,3.9326,3.9703,3.9856,3.9703,3.9298,3.9734,3.9918,3.9948,4.058,4.0876,4.0872,4.0838,4.074,4.0477,3.907,3.8081,3.7286,3.5506,3.4143,3.2866,3.0678,2.9977,2.9797,2.7569,0.0,0.0,0.0,0.0,0.0,0.0,0.0,0.0,0.0,0.0,0.0,0.0,0.0,0.0,0.0,0.0,0.0,0.0,0.0,0.0,0.0,0.0,0.0,0.0,2.9416,3.0583,3.1399,3.1851,3.2428,3.3319,3.3583,3.3931,3.4541,3.4256,3.4102,3.4184,3.4169,3.3978,3.3425,3.3417,3.3238,3.2867,3.2813,3.2683,3.2401,3.1934,3.1455,3.0978,3.0256,2.9786,2.9558,2.9282,2.9241,2.9361,2.9598,3.0259,3.1241,3.2002,3.286,0.0,0.0,0.0,0.0,0.0,3.3073,3.3064,0.0,1.7691,1.8141,1.973,1.9781,1.9589,1.9504,2.0658,2.2126,2.3809,2.6739,2.9661,3.2223,3.3707,3.4421,3.4153,3.4305,3.3415,0.0,3.1728,3.3748,3.7085,3.8013,3.9113,4.0553,4.1153,4.1098,4.0342,4.0661,4.0373,3.9534,4.0434,4.087,4.0942,4.1498,4.1742,4.1782,4.1699,4.1504,4.118,4.0715,4.007,3.9219,3.7857,3.6936,3.6042,3.3563,3.2294,3.1456,2.9069,0.0,0.0,0.0,0.0,0.0,0.0,0.0,0.0,0.0,0.0,0.0,0.0,0.0,0.0,0.0,0.0,0.0,0.0,0.0,0.0,0.0,0.0,0.0,0.0,3.1864,3.2822,3.3847,3.3621,3.3533,3.4022,3.4956,3.5821,3.6445,3.6973,3.7096,3.6715,3.6601,3.612,3.5115,0.0,0.0,0.0,0.0,3.4878,3.4935,3.3958,3.3228,3.284,3.1732,3.1283,3.1384,3.1329,3.1698,3.2371,3.2606,3.259,3.2433,3.3524,3.3683,3.3351,3.4118,3.4397,3.4397,3.4397,3.4097,3.3679,0.0,1.8582,1.8854,1.9825,1.9811,1.9617,1.9452,2.0709,2.229,2.4026,2.6376,2.8895,3.1512,3.2433,3.3061,3.3597,3.3541,3.3425,0.0,3.4492,3.6033,3.7914,3.9255,4.0502,4.1678,4.1825,4.2097,4.2488,4.2566,4.2657,4.2717,4.2914,4.3194,4.3571,4.3702,4.3923,4.4187,4.3603,4.3316,4.3131,4.1878,4.073,3.9713,3.9116,3.8801,3.8427,3.6745,3.6414,3.6461,3.4267,3.2876,3.1839,3.0504,2.8194,0.0,0.0,0.0,0.0,0.0,0.0,0.0,0.0,0.0,0.0,0.0,0.0,0.0,0.0,0.0,0.0,0.0,0.0,0.0,3.2166,3.3195,3.4041,3.4474,3.4806,3.5056,3.5169,3.5784,3.6445,3.6985,3.7525,3.7978,3.8403,3.7967,3.7378,3.6705,3.622,3.5773,3.5331,3.529,3.5485,3.5941,3.5737,3.5571,3.548,0.0,0.0,3.4365,3.4012,3.3616,3.3197,3.347,3.3699,3.3991,3.4385,3.4659,3.4808,3.4497,3.4397,3.4397,3.4397,3.4332,3.4241,1.9278,1.9077,1.9004,1.9809,1.9782,1.9584,1.9431,2.0674,2.2246,2.3878,2.6132,2.8424,3.0564,3.1373,3.1706,3.161,3.1411,0.0,3.4605,3.554,3.6986,3.9206,4.068,4.1687,4.2252,4.2436,4.2736,4.3113,4.3113,4.3309,4.3697,4.386,4.4179,4.4597,4.4597,4.4708,4.4875,4.45,4.4257,4.4001,4.3083,4.2031,4.0931,3.9967,3.9484,3.9166,3.8046,3.7665,3.738,3.5633,3.4348,3.3187,3.1767,2.9904,2.7941,0.0,0.0,0.0,0.0,0.0,0.0,0.0,0.0,0.0,0.0,0.0,0.0,0.0,0.0,3.2008,0.0,0.0,3.4033,3.5112,3.532,3.5524,3.6079,3.6288,3.627,3.5981,3.6445,3.7123,3.7952,3.8278,3.8567,3.8894,3.8605,3.8179,3.7587,3.7279,3.7175,3.7132,3.7144,3.7409,3.7938,3.7489,3.7252,3.7252,3.6554,3.6367,3.6545,3.6333,3.6193,3.6096,3.6088,3.6053,3.5925,3.5564,3.5533,3.5678,3.5365,3.4894,3.4397,3.4397,3.4397,3.4397,1.9844,1.9422,1.9141,1.9788,1.977,1.9645,1.9663,2.0782,2.2219,2.3808,2.5768,2.7614,2.9168,2.9799,2.997,0.0,0.0,0.0,3.5329,3.6236,3.7903,4.0721,4.2049,4.2741,4.2833,4.3132,4.3279,4.3279,4.3309,4.3532,4.3985,4.4276,4.4642,4.5045,4.5045,4.5072,4.5152,4.5152,4.4992,4.4696,4.4242,4.3388,4.2258,4.0781,3.9889,3.9305,3.8434,3.7555,3.6636,3.5512,3.4459,3.3355,3.2011,3.0998,2.9981,2.8278,2.7667,0.0,0.0,0.0,0.0,0.0,0.0,0.0,0.0,0.0,3.2059,3.2872,3.3917,3.5053,3.6278,3.6255,3.6453,3.7782,3.7462,3.718,3.7629,3.744,3.7157,3.6817,3.7121,3.7701,3.8617,3.8856,3.8919,3.8919,3.8668,3.8341,3.7864,3.7852,3.8165,3.8793,3.8806,3.907,3.9663,3.8844,3.8396,3.8396,3.7682,3.7621,3.8151,3.8151,3.8366,3.8775,3.8424,3.8026,3.7533,3.6752,3.6384,3.6279,3.6279,3.5587,3.4567,3.4567,3.4502,3.4397,0.0,1.9826,1.9783,1.9871,1.9825,1.9975,2.0553,2.1287,2.2421,2.4195,2.4987,2.5783,2.6859,2.6788,2.7225,2.8586,3.1271,3.3711,3.5722,3.7797,3.9995,4.2329,4.3117,4.3629,4.4006,4.3951,4.3914,4.3914,4.4013,4.4271,4.458,4.4746,4.5072,4.5529,4.5529,4.5709,4.6055,4.6055,4.6045,4.593,4.524,4.4248,4.3061,4.1858,4.0748,3.9671,3.8322,3.6943,3.571,3.5331,3.4304,3.316,3.3071,3.231,3.1158,2.9883,2.8383,2.7281,2.7851,2.8725,2.9894,3.1644,3.172,3.2437,0.0,0.0,3.6362,3.815,3.9103,3.9432,3.8841,3.9596,3.9823,3.8244,3.8729,3.8998,3.8062,3.7741,3.7701,3.8132,3.8024,3.7965,3.809,3.8567,3.8919,3.8919,3.7939,3.7349,3.7274,3.7274,3.7635,3.8448,3.8474,3.8826,3.9622,3.9051,3.8759,3.8759,3.8648,3.8758,3.9036,3.9036,3.892,3.8681,3.818,3.7919,3.7841,3.7756,3.739,3.6907,3.6907,3.6201,3.5195,3.5195,3.4855,3.4397,0.0,1.9776,1.9788,1.9788,1.9795,2.0032,2.0704,2.1443,2.252,2.417,2.486,2.5531,2.6341,2.6471,2.6783,2.7478,3.0539,3.2913,3.4077,3.7393,4.0102,4.1929,4.3036,4.3888,4.4479,4.4243,4.4157,4.4288,4.4311,4.4591,4.5106,4.5249,4.5555,4.5955,4.5955,4.6048,4.6196,4.6196,4.6196,4.6179,4.5863,4.4896,4.3515,4.2299,4.0536,3.8603,3.7538,3.61,0.0,3.4143,3.321,3.22,3.1975,3.1124,3.0135,2.9746,2.9253,2.9273,3.1219,3.208,3.2751,3.3948,3.4891,3.5923,3.7464,3.7704,3.7943,3.917,4.0247,4.089,4.052,4.0952,4.1218,0.0,4.0021,3.9581,3.992,3.8463,3.7483,3.8056,3.7718,3.7589,3.7989,3.8377,3.839,3.7964,3.8045,3.7914,3.7453,3.7876,3.8454,3.9138,3.9164,3.9482,4.0132,3.973,3.9509,3.9496,3.9333,3.931,3.9407,3.9407,3.9177,3.8697,3.8462,3.8187,3.79,3.79,3.7756,3.7521,3.7521,3.7024,3.6214,3.5534,3.492,3.4397,0.0,1.9694,1.9699,1.9688,1.9913,2.0356,2.108,2.1857,2.2837,2.4144,2.4715,2.5244,2.591,2.6603,2.6956,2.6854,2.9908,3.2232,3.3119,3.6876,3.9865,4.1615,4.2944,4.3956,4.4683,4.4616,4.4652,4.4742,4.4773,4.5045,4.552,4.5701,4.593,4.6196,4.6196,4.6196,4.6196,4.6196,4.6074,4.5898,4.5898,4.4852,4.3156,4.2111,3.9819,3.7091,3.6373,3.4953,3.3323,3.2571,3.1823,3.1126,3.0663,3.002,2.9474,2.9873,3.0417,3.1353,3.3385,3.4377,3.5011,3.6043,3.736,3.8317,3.8033,3.8332,3.8871,3.9544,4.0442,4.116,4.1392,4.1627,4.1927,4.2241,4.0956,4.0189,4.0925,3.8804,3.742,3.7985,3.736,3.7122,3.7705,3.8231,3.818,3.7465,3.8273,3.8495,3.7766,3.8549,3.9272,3.9794,3.9807,4.0,4.0462,4.0094,3.9871,3.9907,3.9529,3.9364,3.9364,3.9207,3.8893,3.8488,3.8488,3.8266,3.79,3.79,3.79,3.79,3.79,3.7534,3.6907,3.607,3.5286,3.462,0.0,0.0,1.9693,1.9693,2.0347,2.1157,2.2027,2.2783,2.3539,2.4305,2.4293,2.4493,2.5158,2.664,2.7399,2.6925,3.0016,3.2537,3.38,3.6788,3.9627,4.2053,4.3165,4.4021,4.4699,4.5251,4.5502,4.5371,4.5641,4.577,4.5795,4.6048,4.6196,4.6196,4.6196,4.6196,4.6196,4.6196,4.5775,4.5133,4.5133,4.3746,4.163,4.1117,3.8606,3.531,3.4763,3.3372,3.1614,3.0625,3.0275,3.0164,2.9775,2.9736,0.0,3.0975,3.2034,3.2961,3.3238,3.4377,3.5923,3.7823,3.8347,3.8556,3.9215,3.9379,3.9574,4.0232,4.0397,4.0621,4.1265,4.1923,4.2099,4.1211,4.1284,4.1132,4.0278,3.8596,3.7712,3.8329,3.7165,3.6532,0.0,3.8146,3.8556,3.7945,3.8466,3.8556,3.8018,3.9043,3.9794,4.0091,4.0042,4.014,4.0386,3.9864,3.959,3.9577,3.9024,3.8736,3.8723,3.8187,3.7952,3.7926,3.7926,3.7926,3.79,3.79,3.79,3.79,3.79,3.7534,3.6998,3.6972,3.624,3.5195,0.0,0.0,0.0,2.1186,2.1965,2.2588,2.2884,2.3174,2.3652,2.4427,2.4801,0.0,0.0,0.0,0.0,0.0,2.9597,3.1544,3.2509,3.5502,3.8061,3.9922,4.1317,4.263,4.3868,4.4675,4.5273,4.5658,4.6468,4.6582,4.606,4.6257,4.5878,4.5065,4.5065,4.4922,4.4676,4.4676,4.4852,4.501,4.3992,4.3114,4.2244,4.0901,3.7962,3.4466,0.0,3.1906,2.9799,2.8566,2.8426,2.8767,2.8652,2.8594,2.8867,3.0395,3.2189,3.3861,3.4783,3.6216,3.7569,3.8227,3.8736,3.9125,3.9364,3.9388,3.9448,3.9709,3.9753,3.9948,4.0606,4.0905,4.1264,4.1843,4.1477,4.1338,4.1809,4.0215,3.8931,3.8916,3.818,0.0,0.0,0.0,0.0,3.7441,3.8945,3.9547,3.8846,4.0052,4.0824,4.0874,4.0874,4.0924,4.101,4.0435,4.0148,4.0135,3.9573,3.9102,3.8697,3.8514,3.824,3.79,3.79,3.79,3.79,3.79,3.8317,3.8926,3.8792,3.9102,3.954,3.9196,3.8809,3.8228,0.0,0.0,0.0,0.0,0.0,0.0,0.0,0.0,0.0,0.0,0.0,0.0,0.0,0.0,0.0,0.0,0.0,3.0862,3.1574,3.4037,3.6166,3.7768,3.9193,4.0532,4.1774,4.2586,4.3337,4.4003,4.4794,4.5081,4.4844,4.5007,4.4638,4.3865,4.3736,4.3677,4.3676,4.3253,4.3377,4.3746,4.2437,4.1573,4.0937,3.9704,3.695,0.0,3.2717,3.0843,2.853,2.7178,2.7494,2.8388,2.8,2.8587,2.9751,3.125,3.296,3.4732,3.664,3.759,3.8212,3.8931,3.926,3.9388,3.9388,3.9388,3.9313,3.9095,3.8871,3.8826,3.926,3.9334,3.9843,4.1452,4.1106,4.1166,4.2647,4.1055,3.9774,4.0032,3.924,3.8543,0.0,0.0,0.0,3.7464,3.9459,4.0311,3.9384,4.0585,4.1311,4.1311,4.1311,4.1448,4.1819,4.1117,4.0766,4.0918,4.0202,3.9955,4.0091,3.9734,3.9415,3.9231,3.9231,3.9065,3.8877,3.8953,3.9401,4.0015,3.9958,4.0376,4.0957,4.0629,4.0217,3.9609,0.0,0.0,0.0,0.0,0.0,0.0,0.0,0.0,0.0,0.0,0.0,0.0,0.0,0.0,0.0,0.0,0.0,0.0,3.1026,3.2456,3.4036,3.5715,3.6955,3.79,3.8631,3.9417,4.0126,4.0811,4.1157,4.1704,4.2424,4.2602,4.2662,4.2587,4.2248,4.2492,4.3035,4.1956,4.1459,4.1389,4.0526,3.9293,3.7962,3.7748,3.569,3.2799,3.2002,3.0185,2.7974,2.6609,2.7589,2.9147,2.8155,2.9989,3.2661,3.3547,3.4509,3.5895,3.8689,3.8596,3.8197,4.0008,3.9978,3.9463,3.9439,3.9358,3.917,3.8482,3.7793,3.7315,0.0,0.0,3.8018,4.0023,4.018,4.0768,4.2798,4.1238,4.0393,0.0,0.0,0.0,0.0,0.0,0.0,3.8195,0.0,4.0838,3.98,4.0795,4.1448,4.1448,4.1448,4.1918,4.2889,4.1918,4.1639,4.1998,4.1068,4.1322,4.2618,4.1654,4.1355,4.1646,4.1618,4.1223,4.0674,4.0831,4.0944,4.1014,4.121,4.1321,4.1363,4.1363,4.0603,3.9498,0.0,0.0,0.0,0.0,0.0,0.0,0.0,0.0,0.0,0.0,0.0,0.0,0.0,0.0,0.0,0.0,0.0,0.0,3.0387,3.1364,3.2645,3.4257,3.5304,3.6452,3.7765,3.9216,4.0328,4.1095,4.2425,4.2898,4.2546,4.2597,4.213,4.1196,4.0907,4.069,4.0524,3.9958,3.9713,3.9595,3.8891,3.8273,3.7802,3.7361,3.5399,3.2822,3.2208,3.0771,2.9077,2.8487,3.0219,3.2574,3.2442,3.4255,3.6249,3.5604,3.7796,4.0349,3.9994,4.1196,4.2327,4.1369,4.101,4.0621,3.9649,3.902,3.8452,3.7793,3.6761,3.5983,0.0,0.0,0.0,3.9349,4.0435,0.0,4.3694,4.346,0.0,4.3286,0.0,4.2506,4.1996,4.2237,0.0,0.0,4.1604,4.1637,4.1342,4.2732,4.3511,4.3511,4.3511,4.3654,4.3937,4.3654,4.3585,4.37,4.3418,4.3273,4.3178,4.2936,4.266,4.2294,4.1815,4.1505,4.1336,4.0858,4.1253,4.2164,4.2056,4.2625,4.3506,4.3506,4.2995,4.222,0.0,0.0,0.0,0.0,0.0,0.0,0.0,0.0,0.0,0.0,0.0,0.0,0.0,0.0,0.0,0.0,0.0,0.0,0.0,3.043,3.1421,3.2687,3.3603,3.4632,3.5858,3.7136,3.8033,3.8471,3.9841,4.0277,3.9877,3.9907,3.9461,3.8622,3.8304,3.8115,3.8062,3.7351,3.7239,0.0,0.0,3.6827,3.673,3.6273,3.4774,3.2784,3.2032,3.1558,3.143,3.2046,0.0,3.4639,3.5707,3.6825,3.787,3.8437,0.0,4.1428,4.184,4.2906,4.3494,4.1803,4.1422,4.0876,3.8975,3.8242,3.7599,3.6372,3.5325,3.4622,3.4622,3.516,3.6252,0.0,0.0,0.0,4.4003,4.4317,4.4441,0.0,4.4544,0.0,4.3595,4.3477,4.3375,0.0,4.3088,4.283,4.254,4.3682,4.4312,4.4312,4.4312,4.4312,4.4312,4.4716,4.4961,4.4946,4.4499,4.4624,4.5227,4.4796,4.4555,4.4501,0.0,4.364,4.3086,4.2804,4.2931,4.3349,4.3309,4.3771,4.4435,4.4435,4.4005,4.333,0.0,0.0,0.0,0.0,0.0,0.0,0.0,0.0,0.0,0.0,0.0,0.0,0.0,0.0,0.0,0.0,0.0,0.0,0.0,0.0,0.0,3.136,3.2063,3.2871,3.377,3.4582,3.5004,3.5004,3.5919,3.6384,3.6384,3.645,3.6287,3.5924,3.5562,3.561,3.5918,3.4859,3.4756,3.5335,3.5407,3.5387,3.532,0.0,0.0,0.0,3.1968,3.2494,3.3995,3.5999,3.6397,3.6365,3.8265,3.874,3.9077,4.1445,4.1659,4.1648,4.3978,4.4369,4.3698,4.2066,4.1579,4.0801,3.8033,3.7285,3.6626,3.4758,3.3829,3.3335,3.3245,3.3874,3.5028,3.6971,0.0,4.1115,4.3928,4.4317,4.484,4.6234,4.5667,4.5142,4.5142,4.4403,4.412,4.4642,4.4684,4.4383,4.3771,4.4326,4.4684,4.4684,4.4684,4.4684,4.4684,4.5553,4.6018,4.6018,4.513,4.5734,4.7624,4.677,4.6632,4.7141,4.705,4.6305,4.5151,4.5203,4.4893,4.432,4.4496,4.4587,4.461,4.461,4.4194,4.3531,0.0,0.0,0.0,0.0,0.0,0.0,0.0,0.0,0.0,0.0,2.8551,0.0,0.0,0.0,0.0,0.0,0.0,0.0,0.0,0.0,0.0,3.1342,3.1531,3.2302,3.377,3.4582,3.5004,3.5004,3.5877,3.6332,3.6332,3.6328,3.6128,3.5753,3.5449,3.5188,3.4939,3.4555,3.4015,3.3517,3.4918,3.5077,3.4528,0.0,0.0,0.0,3.335,3.3285,3.4079,3.76,3.9331,4.007,4.0448,4.1902,4.348,4.3411,4.4833,4.6421,4.6276,4.691,4.6931,4.3828,4.265,4.1392,3.8138,3.6596,0.0,3.3963,3.314,3.2512,3.1944,3.2856,3.4322,3.6327,3.7823,4.0053,4.3793,4.4317,4.502,0.0,4.6942,4.6855,4.6855,4.6709,0.0,0.0,4.6785,4.6359,4.5425,4.6255,4.6785,4.6785,4.6785,4.6785,4.6785,4.6975,4.7106,4.7307,4.7119,4.7336,4.7922,4.7737,4.7719,4.7809,4.7247,0.0,4.5804,4.5282,4.4737,4.4281,4.4358,4.4473,4.461,4.461,4.4194,4.3593,0.0,0.0,0.0,0.0,0.0,0.0,0.0,0.0,0.0,0.0,3.0779,3.0283,0.0,0.0,0.0,0.0,0.0,0.0,0.0,0.0,0.0,0.0,3.1182,3.1953,3.3146,3.438,3.4784,3.438,0.0,3.5422,0.0,0.0,0.0,0.0,0.0,0.0,3.3333,3.3169,3.3076,3.3178,3.4418,0.0,0.0,0.0,0.0,0.0,0.0,3.3898,3.4414,3.6803,3.8712,4.0379,4.188,4.2925,4.3676,4.4021,4.5339,4.6664,4.6539,4.7542,4.7845,4.4689,4.3148,4.146,3.7776,0.0,0.0,3.2287,3.1435,3.0986,3.0972,3.2093,3.3514,3.5207,3.657,3.8661,4.2282,4.3075,4.4167,4.6516,4.71,4.7309,4.7309,4.7309,4.7309,4.7309,4.7309,4.7062,4.6594,4.7019,4.7352,4.7467,4.7467,4.751,4.7681,4.7681,4.7724,4.7794,4.7794,4.7922,4.8175,4.8175,4.8202,4.8271,4.7992,4.7272,4.6293,4.5987,4.5277,4.4473,4.4473,4.4511,4.461,4.461,4.4409,4.4086,0.0,0.0,0.0,0.0,0.0,0.0,0.0,2.8058,2.9464,3.268,3.3115,3.2858,3.2247,3.1311,3.0381,0.0,0.0,0.0,0.0,0.0,0.0,0.0,0.0,3.1861,3.2839,0.0,0.0,0.0,0.0,0.0,0.0,0.0,0.0,0.0,0.0,0.0,0.0,0.0,3.2436,0.0,0.0,0.0,0.0,0.0,0.0,0.0,0.0,0.0,3.4403,3.5778,3.7168,3.8868,4.1773,4.2627,4.2821,4.4156,4.5198,4.6096,4.6748,4.7791,4.8009,4.534,4.354,4.1419,3.7574,3.511,0.0,3.1106,3.031,3.006,3.0445,3.1495,3.2736,0.0,3.54,3.7419,4.0711,4.2021,4.3509,0.0,4.6905,0.0,4.7309,4.7309,0.0,4.7309,4.7352,4.7337,4.7337,4.7337,4.7467,4.7666,4.7666,4.7794,4.8007,4.8007,4.8007,4.8049,4.8049,4.816,4.837,4.837,4.8453,4.862,4.862,4.7927,4.6803,4.6665,4.588,4.4825,4.4671,4.461,4.461,4.461,4.4685,4.4743,0.0,0.0,0.0,0.0,0.0,0.0,0.0,2.8912,3.1034,3.4275,3.4738,3.4747,3.4674,3.3298,3.2063,0.0,0.0,0.0,0.0,0.0,0.0,0.0,0.0,0.0,0.0,0.0,0.0,0.0,0.0,0.0,0.0,0.0,0.0,0.0,0.0,0.0,0.0,0.0,0.0,0.0,0.0,0.0,0.0,0.0,0.0,0.0,0.0,0.0,3.3286,3.6075,0.0,3.581,3.8768,4.1,4.2811,4.4266,0.0,0.0,4.8327,4.8755,4.8336,4.6149,4.4036,4.1576,3.81,0.0,3.3603,3.1701,3.1213,3.1009,3.0576,3.1092,3.2019,3.3365,3.4711,3.6746,4.0038,4.2117,4.4047,4.6082,0.0,0.0,4.7309,4.7309,4.7309,4.7309,4.7467,4.7596,4.7596,4.7596,4.7666,4.7964,4.7964,4.7964,4.8007,4.8007,4.8091,4.8244,4.8244,4.837,4.8578,4.8578,4.8563,4.862,4.862,4.8189,0.0,4.685,4.6157,4.5434,4.4856,4.461,4.461,4.461,4.503,4.5588,0.0,0.0,0.0,0.0,0.0,0.0,0.0,2.8177,2.9917,3.3643,3.4192,3.46,3.5571,3.4683,3.3335,0.0,0.0,0.0,0.0,0.0,0.0,0.0,0.0,0.0,0.0,0.0,0.0,0.0,0.0,0.0,0.0,0.0,0.0,0.0,0.0,0.0,0.0,0.0,0.0,0.0,0.0,0.0,0.0,0.0,0.0,0.0,0.0,0.0,0.0,0.0,0.0,0.0,3.5744,3.7483,0.0,0.0,4.3761,4.5098,4.6004,4.6902,4.7174,4.541,4.3407,4.1147,3.86,3.5732,3.3261,3.2118,3.1221,3.0731,3.0987,3.1259,3.1743,3.2751,3.299,3.4097,3.7045,3.8796,4.0853,4.3797,4.5282,0.0,0.0,0.0,4.7337,4.7467,4.7709,4.788,4.8007,4.7922,4.7964,4.816,4.8175,4.8244,4.837,4.837,4.8412,4.8495,4.8495,4.8537,4.862,4.862,4.862,4.862,4.9163,4.8998,0.0,4.759,4.694,4.625,4.554,4.5237,4.5311,4.5769,4.6111,4.6359,0.0,0.0,0.0,0.0,0.0,0.0,2.7166,2.7753,2.9277,3.3067,3.3633,3.4292,3.593,3.5223,3.4037,3.2596,0.0,0.0,0.0,0.0,0.0,0.0,0.0,0.0,0.0,0.0,0.0,0.0,0.0,0.0,0.0,0.0,0.0,0.0,0.0,0.0,0.0,0.0,0.0,0.0,0.0,0.0,0.0,0.0,0.0,0.0,0.0,0.0,0.0,0.0,0.0,0.0,0.0,3.4717,3.6406,3.9553,4.1778,4.3446,4.4331,4.5456,4.6172,4.5196,4.3186,4.0998,3.9145,3.6198,3.3574,3.2668,3.1741,3.1237,3.1613,3.1893,3.2183,3.2526,3.2473,3.3216,3.5542,3.7109,3.9152,4.2227,0.0,4.5327,0.0,4.7312,4.7596,4.7794,4.8187,4.8547,4.8769,4.8862,4.8754,4.8412,4.8646,4.8852,4.8959,4.9228,4.9349,4.9349,4.9349,4.9349,4.9349,4.9349,4.9349,4.9374,4.9971,4.983,0.0,4.8397,4.7733,4.7032,4.6327,4.602,4.6092,4.6604,4.6949,4.7119,0.0,0.0,0.0,0.0,0.0,0.0,0.0,2.8124,2.9846,3.3073,3.3563,3.4235,3.5915,3.4668,3.4055,3.488,0.0,0.0,0.0,0.0,0.0,0.0,0.0,0.0,0.0,0.0,0.0,0.0,0.0,0.0,0.0,0.0,0.0,0.0,0.0,0.0,0.0,0.0,0.0,0.0,0.0,0.0,0.0,0.0,0.0,0.0,0.0,0.0,0.0,0.0,0.0,0.0,0.0,3.3292,3.3458,3.7152,4.0255,4.282,4.4307,4.5235,4.5846,4.5951,4.3756,4.1228,3.9811,3.7285,3.4848,3.3387,3.3184,3.3103,3.2492,3.3042,3.3417,3.2868,3.3743,3.4985,3.6491,3.8257,4.0127,0.0,0.0,4.3963,4.5559,4.7107,4.8091,4.8286,4.9035,0.0,4.9868,5.0615,5.0306,4.8646,4.9446,4.9868,4.9884,5.0691,5.107,5.107,5.107,5.107,5.107,5.107,5.107,5.107,5.107,5.0649,0.0,4.9172,4.846,4.7729,4.7052,4.6777,4.6777,4.6811,4.7254,4.7885,0.0,0.0,0.0,0.0,0.0,0.0,0.0,2.6462,2.7743,2.987,3.0698,3.1924,3.4144,3.3488,3.3464,3.488,0.0,0.0,0.0,0.0,0.0,0.0,0.0,0.0,0.0,0.0,0.0,0.0,0.0,0.0,0.0,0.0,0.0,0.0,0.0,0.0,0.0,0.0,0.0,0.0,0.0,0.0,0.0,0.0,0.0,0.0,0.0,0.0,0.0,0.0,0.0,0.0,0.0,0.0,0.0,3.4975,3.6696,3.852,4.065,4.1283,4.141,4.1572,4.0521,3.9194,3.8321,3.6673,3.5178,3.4695,3.4253,3.3882,3.3795,3.3973,3.4302,3.4755,3.5078,3.5793,3.7358,0.0,0.0,4.3558,4.6523,4.8497,0.0,0.0,4.9884,4.9923,5.0352,5.0637,5.0729,5.0957,5.0881,5.0345,5.0576,5.0729,5.0729,5.0957,5.1107,5.1107,5.1107,5.1107,5.1107,5.1107,5.1107,5.1112,5.1087,5.0958,5.0646,4.9464,4.8839,4.8541,4.7835,4.7556,4.7622,4.8113,4.845,4.8656,0.0,0.0,0.0,0.0,0.0,0.0,0.0,2.5679,2.6771,2.8382,2.9339,3.082,3.3336,3.2931,3.3291,3.5316,0.0,0.0,0.0,0.0,0.0,0.0,0.0,0.0,0.0,0.0,0.0,0.0,0.0,0.0,0.0,0.0,0.0,0.0,0.0,0.0,0.0,0.0,0.0,0.0,0.0,0.0,0.0,0.0,0.0,0.0,0.0,0.0,0.0,0.0,0.0,0.0,0.0,0.0,0.0,0.0,3.4369,3.5531,3.8413,3.9287,3.9468,3.9661,3.8907,3.8012,3.7667,3.6441,3.5389,3.5314,3.4991,3.4767,3.479,3.4833,3.4994,3.5366,3.5558,3.6185,0.0,0.0,0.0,4.4878,0.0,0.0,0.0,5.0413,5.0849,5.0849,5.1294,5.1533,5.1533,5.1826,5.2023,5.2023,5.1716,5.1533,5.1533,5.1862,5.2023,5.2023,5.2023,5.2023,5.2023,5.2023,5.1858,5.1545,5.1555,5.1261,0.0,4.9775,4.9241,4.894,4.8489,4.8306,4.837,4.8829,4.9001,4.9001,0.0,0.0,0.0,0.0,0.0,0.0,0.0,0.0,0.0,0.0,2.9174,3.0653,3.3154,3.2762,3.3378,0.0,0.0,0.0,0.0,0.0,0.0,0.0,0.0,0.0,0.0,0.0,0.0,3.7007,3.706,3.7077,3.7077,0.0,0.0,0.0,0.0,0.0,0.0,0.0,0.0,0.0,0.0,0.0,0.0,0.0,0.0,0.0,0.0,0.0,0.0,0.0,0.0,0.0,0.0,0.0,0.0,0.0,0.0,0.0,0.0,3.8614,3.9192,3.9387,3.8353,3.7302,3.7376,3.6375,0.0,3.526,3.5397,3.556,3.5655,3.5633,3.5531,3.53,3.5678,0.0,0.0,4.028,0.0,0.0,4.8136,0.0,4.903,5.0371,5.1257,5.1257,5.1951,5.2378,5.2378,5.3093,5.3501,5.3501,5.2764,5.2378,5.2378,5.3127,5.3501,5.3501,5.3501,5.3501,5.3501,5.345,5.301,0.0,5.2181,5.1369,5.0084,5.0033,4.961,4.9001,4.9001,4.9001,4.9001,4.9001,4.9001,4.9001,0.0,0.0,0.0,0.0,0.0,0.0,0.0,0.0,0.0,0.0,2.8002,2.9624,3.1545,3.1608,3.2519,0.0,0.0,0.0,0.0,0.0,0.0,0.0,0.0,0.0,0.0,0.0,0.0,3.7007,3.7567,3.7848,3.7865,3.9115,0.0,0.0,0.0,0.0,0.0,0.0,0.0,0.0,0.0,0.0,0.0,0.0,0.0,0.0,3.4542,3.4495,0.0,0.0,0.0,0.0,0.0,0.0,0.0,0.0,3.2938,3.2803,3.4194,0.0,3.4611,3.4852,3.4577,3.4263,0.0,3.4163,3.4061,3.4575,3.4715,3.5301,3.7013,3.6394,3.6506,3.9261,0.0,3.967,4.1826,0.0,0.0,5.0626,5.1781,5.2351,5.2351,5.272,5.2938,5.2938,5.3127,5.3212,5.3212,5.3399,5.3501,5.3501,5.3314,5.3212,5.3212,5.3399,5.3501,5.3501,5.3501,5.3501,5.3484,5.2858,5.2486,5.2232,5.1099,5.0405,5.005,4.9492,4.9171,4.9001,4.9001,4.9001,4.9001,4.9001,4.9001,4.9001,0.0,0.0,0.0,0.0,0.0,0.0,0.0,0.0,0.0,0.0,0.0,0.0,0.0,0.0,0.0,0.0,0.0,0.0,0.0,0.0,0.0,0.0,0.0,0.0,0.0,0.0,0.0,0.0,0.0,3.8013,0.0,0.0,0.0,0.0,0.0,0.0,0.0,0.0,0.0,0.0,0.0,0.0,0.0,0.0,0.0,0.0,3.3898,3.3894,0.0,3.3945,3.4493,3.5266,0.0,0.0,0.0,0.0,3.2882,3.231,3.2374,3.3267,3.4229,3.4378,3.4356,3.4334,3.4399,3.3897,3.3508,3.3914,3.4252,3.4878,3.6113,3.6518,3.7307,3.936,4.013,0.0,0.0,0.0,5.0338,5.2587,5.323,5.3501,0.0,5.3501,5.3501,5.3501,5.3501,5.3501,5.3501,5.3501,5.3501,5.3501,5.3501,5.3501,5.3501,5.3501,5.3501,5.3501,5.3501,5.3501,5.3501,5.3061,5.2655,5.2232,5.1099,5.0405,5.0033,4.9306,4.9001,4.9001,4.9001,4.9001,4.9001,4.9001,4.9001,4.9032,0.0,0.0,0.0,0.0,0.0,0.0,0.0,0.0,0.0,0.0,0.0,0.0,0.0,0.0,0.0,0.0,0.0,0.0,0.0,0.0,0.0,0.0,0.0,0.0,0.0,0.0,0.0,0.0,0.0,0.0,0.0,0.0,3.8764,0.0,0.0,0.0,0.0,0.0,0.0,0.0,0.0,0.0,0.0,0.0,0.0,0.0,0.0,0.0,0.0,3.4073,3.4669,3.5275,3.5728,0.0,0.0,0.0,0.0,0.0,3.165,3.3714,3.5834,3.5238,3.5261,3.5397,3.5295,3.4298,3.344,3.3541,3.4066,3.4624,3.5098,3.6671,0.0,0.0,0.0,0.0,4.7618,4.9306,5.0947,5.323,5.3501,0.0,5.3501,5.3501,5.3501,5.3501,5.3501,5.3501,5.3501,5.3501,5.3501,5.3501,5.3501,5.3501,5.3501,5.3501,5.3501,5.3501,5.3501,5.3501,5.3501,5.3382,5.2942,5.2249,0.0,0.0,5.0033,4.9337,4.91,4.9201,4.9083,4.9117,4.9201,4.9083,4.9032,4.9063,0.0,0.0,0.0,0.0,0.0,0.0,0.0,0.0,0.0,0.0,0.0,0.0,0.0,0.0,0.0,0.0,0.0,0.0,0.0,0.0,0.0,0.0,0.0,0.0,0.0,0.0,0.0,0.0,0.0,0.0,3.9638,4.088,4.0987,0.0,0.0,0.0,0.0,0.0,0.0,0.0,0.0,0.0,0.0,0.0,0.0,0.0,0.0,0.0,0.0,3.2931,3.3966,3.5397,3.4225,0.0,0.0,0.0,0.0,0.0,3.2829,3.5342,3.6945,3.3635,3.3766,3.4506,3.3897,3.3575,3.3592,3.4201,3.4421,3.5267,3.7838,3.8091,3.892,0.0,0.0,4.6126,0.0,0.0,5.0947,5.323,0.0,5.3501,5.3501,5.3501,5.3501,5.3501,5.3501,5.3501,5.3501,5.3501,5.3501,5.3501,5.3501,5.3501,5.3501,5.3501,5.3501,5.3501,5.3501,5.3501,5.3484,5.279,5.2418,5.2232,0.0,5.0202,5.0065,4.9413,4.9559,5.0116,4.9423,4.9576,5.0099,4.9406,4.9168,4.9199,0.0,0.0,0.0,0.0,0.0,0.0,0.0,0.0,0.0,0.0,0.0,0.0,0.0,0.0,0.0,0.0,0.0,0.0,0.0,0.0,0.0,0.0,0.0,0.0,0.0,0.0,0.0,0.0,0.0,4.0573,4.1223,4.1722,4.0921,3.9084,0.0,0.0,0.0,0.0,0.0,0.0,0.0,0.0,0.0,0.0,0.0,0.0,0.0,0.0,0.0,0.0,3.4472,3.5368,3.4659,0.0,0.0,0.0,0.0,0.0,3.267,3.4755,3.6488,3.5179,3.6645,3.8209,3.7425,3.6724,3.6238,3.6157,3.6236,3.6847,3.8533,0.0,4.0781,4.4113,0.0,4.8105,4.9847,5.0777,5.1843,0.0,0.0,5.3501,5.3501,5.3501,5.3501,5.3501,5.3501,5.3501,5.3501,5.3501,5.3501,5.3501,5.3501,5.3501,5.3501,5.3501,5.3501,5.3501,5.3501,5.3501,5.3501,5.3129,5.2706,5.2249,0.0,5.0631,5.0224,4.9613,4.9794,5.0438,4.9657,4.9811,5.0451,4.9961,4.9844,4.9913,0.0,0.0,0.0,0.0,0.0,0.0,0.0,0.0,0.0,0.0,0.0,0.0,0.0,0.0,0.0,0.0,0.0,0.0,0.0,0.0,0.0,0.0,0.0,0.0,0.0,0.0,3.8926,3.858,4.0342,4.1614,4.2383,4.1559,4.0111,0.0,0.0,0.0,0.0,0.0,0.0,0.0,0.0,0.0,0.0,0.0,0.0,0.0,0.0,0.0,0.0,0.0,0.0,0.0,0.0,0.0,0.0,3.3741,3.3035,3.2506,3.2756,3.4535,3.6481,3.7203,3.9118,4.082,4.0789,3.9931,3.8986,3.8577,3.8796,3.9157,0.0,4.1096,0.0,4.5579,4.792,4.9695,5.0285,5.1471,5.2604,5.3399,5.3501,5.3501,5.3501,5.3501,5.3501,5.3501,5.3501,5.3501,5.3501,5.3501,5.3501,5.3501,5.3668,5.375,5.375,5.3913,5.3832,5.3501,5.3534,5.3618,5.3701,5.3767,5.3423,5.2733,5.2155,5.1418,5.0608,5.013,5.0412,5.1051,5.0223,5.0264,5.0754,5.0586,5.0634,5.076,0.0,0.0,0.0,0.0,0.0,0.0,0.0,0.0,0.0,0.0,0.0,0.0,0.0,0.0,0.0,0.0,0.0,0.0,0.0,0.0,0.0,0.0,0.0,0.0,0.0,3.8129,3.8633,3.8772,4.1272,4.2219,4.1722,4.0274,3.9079,3.8209,0.0,0.0,0.0,0.0,0.0,0.0,0.0,0.0,0.0,0.0,0.0,0.0,0.0,0.0,0.0,0.0,0.0,0.0,0.0,0.0,3.4108,3.4071,3.3534,3.3168,3.4164,3.6237,3.816,3.8417,3.8353,3.8851,4.1085,4.0979,4.0588,4.1257,4.2014,4.2379,0.0,4.4156,4.6268,4.6666,4.9056,5.0935,5.1095,0.0,5.2604,5.3399,5.3501,5.3501,5.3501,5.3501,5.3501,5.3501,5.3501,5.3501,5.3501,5.3501,5.3501,5.3501,5.4154,5.4513,5.4513,5.5203,5.4848,5.3501,5.3634,5.3913,5.4345,5.4537,5.4457,5.4103,5.3387,5.2407,5.1332,5.1211,5.1793,5.2623,5.1573,5.1191,5.1252,5.1225,5.1345,5.1525,0.0,0.0,0.0,0.0,0.0,0.0,0.0,0.0,0.0,0.0,0.0,0.0,0.0,0.0,0.0,0.0,0.0,0.0,0.0,0.0,0.0,0.0,0.0,3.6479,3.6737,3.9323,4.0597,4.043,4.2006,4.1921,4.0256,3.9659,0.0,0.0,0.0,0.0,0.0,0.0,0.0,0.0,0.0,0.0,0.0,0.0,0.0,0.0,0.0,0.0,0.0,0.0,3.3812,3.4775,3.4235,3.4302,3.444,3.3951,3.3589,3.3454,3.3815,3.6096,3.8485,3.9028,4.0184,4.1547,4.3007,4.3921,4.4592,4.5027,4.5432,4.5468,4.476,0.0,4.809,4.7827,5.0317,5.2242,5.2302,5.3428,5.4329,5.4658,5.4676,5.4676,5.4676,5.4676,5.4676,5.4676,5.4676,5.4676,5.4676,5.4734,5.473,5.473,5.5119,5.5291,5.5291,5.5563,5.5408,5.4866,5.4909,5.5042,5.522,5.5297,5.4757,5.372,5.3582,5.2678,5.1379,5.1985,5.274,5.3486,5.3086,5.253,5.2,5.2,5.2042,5.2108,0.0,0.0,0.0,0.0,0.0,0.0,0.0,0.0,0.0,0.0,0.0,0.0,0.0,0.0,0.0,0.0,0.0,0.0,0.0,0.0,0.0,0.0,0.0,3.5812,3.6024,3.9337,4.0847,4.0401,4.1324,4.1089,3.9731,0.0,0.0,0.0,0.0,0.0,0.0,0.0,0.0,0.0,0.0,0.0,0.0,0.0,0.0,0.0,0.0,0.0,0.0,0.0,3.3295,3.4151,3.4101,3.426,3.44,3.4089,3.3998,3.3998,3.3941,3.5939,3.8287,3.9281,4.1158,4.3178,4.48,4.6202,4.7285,4.7691,4.7711,4.7533,4.7232,0.0,0.0,0.0,5.1316,5.3228,5.3032,5.4384,5.5385,5.5385,5.5385,5.5385,5.5367,5.5385,5.5385,5.5385,5.5426,5.5437,5.5437,5.5501,5.5552,5.5552,5.591,5.6077,5.6077,5.6322,5.6429,5.6429,5.6429,5.6295,5.6022,5.6049,5.533,5.4031,5.4187,5.324,5.1708,5.2569,5.3207,5.3686,5.3963,5.3495,5.2654,5.2654,5.2654,5.2654,0.0,0.0,0.0,0.0,0.0,0.0,0.0,0.0,0.0,0.0,0.0,0.0,0.0,0.0,0.0,0.0,0.0,0.0,0.0,0.0,0.0,0.0,0.0,3.5013,3.5186,3.7757,3.8797,3.8227,3.9024,3.9786,4.0438,3.8898,0.0,0.0,0.0,0.0,0.0,0.0,0.0,0.0,0.0,0.0,0.0,0.0,0.0,0.0,0.0,0.0,0.0,0.0,3.2583,3.2863,3.4375,3.4338,3.3863,3.4654,3.4887,3.4902,3.4902,3.6095,3.7692,3.9234,4.0843,4.2922,4.6266,4.7383,4.7974,4.8935,4.8591,4.8377,4.9192,4.9317,0.0,4.9608,5.205,5.3709,5.3117,5.443,5.5414,5.5414,5.5414,5.5396,5.5314,5.5396,5.5414,5.5414,5.5461,5.5512,5.5512,5.5638,5.5706,5.5706,5.6474,5.6894,5.6894,5.7618,5.7978,5.7978,5.7978,5.7522,5.6722,5.6843,5.6339,5.5395,5.5377,5.426,5.2454,5.2995,5.3203,5.3277,5.4087,5.3922,5.3185,5.3185,5.3185,5.3185,0.0,0.0,0.0,0.0,0.0,0.0,0.0,0.0,0.0,0.0,0.0,0.0,0.0,0.0,0.0,0.0,0.0,0.0,0.0,0.0,0.0,0.0,0.0,0.0,0.0,0.0,3.834,3.9822,4.0057,3.9731,0.0,0.0,0.0,3.8209,0.0,0.0,0.0,0.0,0.0,0.0,0.0,0.0,0.0,0.0,0.0,0.0,0.0,0.0,0.0,0.0,0.0,0.0,3.296,3.351,3.3817,3.406,3.4536,3.4962,3.4916,3.6978,3.9357,4.0337,4.3504,4.6632,4.768,4.8346,4.9331,5.13,5.11,5.0623,5.0881,5.0864,0.0,5.1627,5.3339,5.4745,5.5181,5.6075,5.6714,5.6793,5.674,5.6661,5.6643,5.6749,5.6819,5.6819,5.6912,5.6989,5.6989,5.7116,5.6912,5.635,5.6654,5.6565,5.598,5.62,5.6308,5.6308,5.6308,5.6763,5.7613,5.7071,5.636,5.5511,5.4943,5.4052,5.3032,5.3748,5.4051,5.4069,5.4308,5.3922,5.3185,5.3185,5.3185,5.3277,0.0,0.0,0.0,0.0,0.0,0.0,0.0,0.0,0.0,0.0,0.0,0.0,0.0,0.0,0.0,0.0,0.0,0.0,0.0,0.0,0.0,0.0,0.0,0.0,0.0,3.6693,3.7701,0.0,0.0,0.0,0.0,0.0,0.0,3.8241,0.0,3.7869,0.0,0.0,0.0,0.0,0.0,3.6135,3.5059,0.0,0.0,0.0,0.0,0.0,0.0,0.0,0.0,0.0,3.2357,3.2706,3.2963,3.3605,3.4362,3.5284,3.6553,3.8585,4.0783,4.251,4.537,4.8119,4.9461,5.0,5.0714,5.2441,5.2167,5.1693,5.1938,5.1726,0.0,5.2431,5.3914,5.5112,5.5661,5.6673,5.7381,5.7406,5.7332,5.7264,5.7264,5.7338,5.7412,5.748,5.7309,5.7198,5.7198,5.7023,5.669,5.6214,5.6282,5.6088,5.5614,5.5614,5.5614,5.5614,5.5614,5.6106,5.7024,5.6547,5.5886,5.5078,5.4271,5.3665,5.3243,5.372,5.3922,5.3922,5.3922,5.3628,5.3185,5.3185,5.3185,5.328,0.0,0.0,0.0,0.0,0.0,0.0,0.0,0.0,0.0,0.0,0.0,0.0,0.0,0.0,0.0,0.0,0.0,0.0,0.0,0.0,0.0,0.0,0.0,0.0,0.0,0.0,0.0,0.0,0.0,0.0,0.0,0.0,3.7505,3.8198,0.0,3.7772,0.0,0.0,0.0,0.0,3.5871,3.544,3.4674,3.4775,0.0,0.0,0.0,0.0,0.0,0.0,0.0,0.0,3.2303,3.2083,3.1838,3.3296,3.4334,3.5701,3.894,4.0448,4.1866,4.5094,4.6673,4.825,5.1389,5.2022,5.2099,5.2704,0.0,5.193,5.253,5.2108,5.1863,5.2531,5.3925,5.4953,5.5122,5.649,5.7486,5.7437,5.7431,5.7394,5.7321,5.7321,5.7358,5.7382,5.6844,5.6511,5.6511,5.5911,5.5578,5.5504,5.5504,5.5467,5.5372,5.5372,5.5372,5.5372,5.5372,5.5372,5.5372,5.5467,5.5042,5.4252,5.3537,5.3185,5.3185,5.3185,5.3185,5.3185,5.3185,5.3185,5.3185,5.3185,5.3185,5.3203,0.0,0.0,0.0,0.0,0.0,0.0,0.0,0.0,0.0,0.0,0.0,0.0,0.0,0.0,0.0,0.0,0.0,0.0,0.0,0.0,0.0,0.0,0.0,0.0,0.0,0.0,0.0,0.0,0.0,0.0,0.0,0.0,0.0,3.7439,0.0,3.673,0.0,0.0,0.0,3.2472,3.3133,3.2908,3.2254,3.305,3.2741,0.0,0.0,0.0,0.0,0.0,0.0,0.0,3.1961,3.23,3.2715,3.3074,3.4039,3.5597,3.844,4.013,4.1866,4.5094,4.7976,5.0527,5.2491,5.2928,5.2923,5.3085,5.2975,5.2901,5.3045,5.2849,5.293,5.3711,5.4064,5.4697,5.6048,5.6476,5.6932,5.7624,5.7625,5.7298,5.6678,5.6718,5.6533,5.5917,5.5829,5.5827,5.5827,5.5684,5.5299,5.4675,5.4656,5.4344,5.372,5.372,5.372,5.372,5.372,5.372,5.3739,5.4363,5.4216,5.3463,5.3277,5.3185,5.3185,5.3185,5.3185,5.3185,5.3185,5.3185,5.3185,5.3185,5.3185,5.3277,0.0,0.0,0.0,0.0,0.0,0.0,0.0,0.0,0.0,0.0,0.0,0.0,0.0,0.0,0.0,0.0,0.0,0.0,0.0,0.0,3.1448,0.0,0.0,0.0,0.0,0.0,0.0,0.0,0.0,0.0,0.0,0.0,0.0,3.7807,0.0,3.6424,0.0,0.0,3.2917,3.1573,3.1998,3.1984,3.173,3.227,3.2202,3.187,3.1996,0.0,0.0,0.0,0.0,0.0,0.0,0.0,3.2059,3.2411,3.3308,3.4989,3.8745,4.0774,4.2779,4.6852,4.9455,5.1356,5.2592,5.3038,5.3185,5.3185,5.3185,5.3185,5.3103,5.306,5.3123,5.346,5.3839,5.4537,5.583,5.6342,5.6744,5.717,5.7154,5.682,5.6017,5.5971,5.5875,5.5522,5.5203,5.5023,5.5023,5.4656,5.4252,5.3849,5.383,5.3628,5.3185,5.3185,5.3185,5.3185,5.3185,5.3185,5.3203,5.3628,5.361,5.3185,5.3185,5.3185,5.3185,5.3185,5.3185,5.3185,5.3185,5.3185,5.3185,5.3185,5.3185,5.3314,0.0,0.0,0.0,0.0,0.0,0.0,0.0,0.0,0.0,0.0,0.0,0.0,0.0,0.0,0.0,0.0,0.0,0.0,0.0,3.0212,3.2209,3.5243,0.0,0.0,0.0,0.0,0.0,0.0,0.0,0.0,0.0,0.0,0.0,3.8303,0.0,0.0,0.0,0.0,3.2668,3.1332,3.1332,3.144,3.1585,3.1625,3.1635,3.1654,3.1825,3.1901,3.2051,3.2909,0.0,0.0,0.0,0.0,3.1073,3.1674,3.2432,3.4054,3.8576,4.1325,4.4023,4.87,5.0522,5.1396,5.2382,5.2897,5.3212,5.3359,5.3293,5.3164,5.3042,5.302,5.2999,5.289,5.3522,5.4301,5.5107,5.5892,5.6392,5.6406,5.6424,5.6113,5.5308,5.5239,5.5206,5.5188,5.4564,5.4197,5.4197,5.3573,5.3185,5.3185,5.3185,5.3185,5.3185,5.3185,5.3185,5.3185,5.3185,5.3185,5.3185,5.3185,5.3185,5.3185,5.3185,5.3185,5.3185,5.3185,5.3185,5.3185,5.3185,5.3185,5.3185,5.3185,5.3185,5.3314,0.0,0.0,0.0,0.0,0.0,0.0,0.0,0.0,0.0,0.0,0.0,3.0291,3.0306,2.9225,0.0,0.0,0.0,0.0,2.8528,0.0,0.0,0.0,0.0,0.0,0.0,0.0,0.0,0.0,0.0,0.0,3.8475,3.7077,0.0,3.7621,0.0,0.0,0.0,0.0,3.1368,2.9879,2.9879,2.9889,2.9936,3.0117,3.0168,3.0288,3.1164,3.1524,3.1695,3.2515,3.2705,0.0,0.0,0.0,3.1176,3.1281,3.1714,3.2816,3.5803,4.0265,4.4919,4.8503,4.9998,5.1026,5.2582,0.0,5.3243,0.0,5.364,5.3185,5.3185,5.3185,5.3164,5.3143,5.3256,5.3625,5.4414,5.4656,5.4968,5.5644,5.5717,5.5405,5.4616,5.4524,5.4249,5.3573,5.3427,5.3371,5.3371,5.3259,5.3185,5.3185,5.3185,5.3185,5.3185,5.3185,5.3185,5.3185,5.3185,5.3185,5.3185,5.3185,5.3185,5.3185,5.3185,5.3185,5.3185,5.3185,5.3185,5.3185,5.3185,5.3185,5.3185,5.3185,5.3185,5.3314,0.0,0.0,0.0,0.0,0.0,0.0,0.0,0.0,0.0,0.0,0.0,3.0026,3.0542,2.9286,0.0,0.0,0.0,0.0,2.9155,2.989,0.0,0.0,0.0,0.0,0.0,0.0,0.0,0.0,0.0,3.4006,3.7748,3.7532,3.8493,0.0,0.0,0.0,0.0,0.0,3.1901,3.0457,2.9957,3.0688,3.1916,3.0574,3.094,3.208,3.108,3.0758,3.0892,3.1752,3.1992,3.1889,3.144,0.0,0.0,0.0,3.1124,3.2597,3.6948,4.0746,4.4347,4.8003,4.9508,5.0413,5.1601,5.2083,5.2517,5.3397,5.3325,5.3181,5.343,5.3482,5.342,5.3227,5.3185,5.3482,5.4289,5.4399,5.4528,5.4876,5.4932,5.4601,5.3812,5.3739,5.3592,5.3222,5.3185,5.3185,5.3185,5.3185,5.3185,5.3185,5.3185,5.3185,5.3185,5.338,5.3583,5.3814,5.3583,5.3602,5.3814,5.3583,5.338,5.3185,5.3185,5.3185,5.3206,5.34,5.3482,5.3484,5.3738,5.3814,5.3814,5.3814,5.4093,5.4614,0.0,0.0,0.0,0.0,0.0,0.0,0.0,0.0,0.0,0.0,0.0,0.0,3.0394,0.0,0.0,0.0,0.0,0.0,2.9458,0.0,0.0,0.0,0.0,0.0,0.0,0.0,0.0,0.0,3.144,3.3601,3.7613,3.8293,4.0377,4.3478,4.1647,3.9427,0.0,0.0,0.0,3.1846,3.1211,3.2167,3.3899,3.284,3.3471,3.4644,3.2306,0.0,0.0,0.0,0.0,0.0,0.0,0.0,0.0,0.0,0.0,3.2145,3.7014,3.9879,4.24,4.6174,4.8213,4.9548,0.0,0.0,5.1926,0.0,5.3129,5.3357,5.3621,5.3776,5.3758,5.3521,5.3481,5.3702,5.4293,5.4367,5.4367,5.4367,5.4367,5.4146,5.3536,5.3481,5.3481,5.3481,5.3481,5.3481,5.3481,5.3481,5.3481,5.3481,5.3481,5.3481,5.3481,5.3738,5.4016,5.4298,5.3998,5.4016,5.4298,5.3998,5.3719,5.3481,5.3481,5.3481,5.3522,5.3776,5.3851,5.3907,5.4193,5.4315,5.4334,5.454,5.4989,5.5664,0.0,0.0,0.0,0.0,0.0,0.0,0.0,0.0,0.0,0.0,0.0,0.0,0.0,0.0,0.0,0.0,0.0,0.0,0.0,0.0,0.0,0.0,0.0,0.0,0.0,0.0,0.0,3.0457,3.0783,3.3792,3.9283,3.9396,4.1763,4.5817,4.3381,4.0438,3.72,0.0,0.0,0.0,0.0,3.3872,3.4339,3.7387,3.8113,3.7273,0.0,0.0,0.0,0.0,0.0,0.0,0.0,3.0261,3.0268,0.0,0.0,0.0,3.3578,3.608,3.8782,4.2239,4.5524,4.8331,0.0,0.0,5.182,5.2634,5.3474,5.3956,5.3669,5.397,5.4245,5.4246,5.4246,5.4246,5.4303,5.4303,5.4303,5.4303,5.4303,5.4284,5.4246,5.4246,5.4246,5.4246,5.4246,5.4246,5.4246,5.4246,5.4246,5.4246,5.4246,5.4246,5.4246,5.4245,5.4281,5.4315,5.4281,5.4279,5.4315,5.4281,5.4245,5.4246,5.4246,5.4279,5.4326,5.4279,5.4313,5.4361,5.4313,5.4315,5.439,5.5158,5.5457,5.5739,0.0,0.0,0.0,0.0,0.0,0.0,0.0,0.0,0.0,0.0,0.0,0.0,0.0,2.9179,2.8682,2.8675,0.0,0.0,0.0,0.0,0.0,0.0,0.0,0.0,0.0,0.0,3.0476,3.0077,3.0195,3.2475,3.672,3.7831,3.9486,4.1565,4.2086,4.1456,3.9785,3.6551,0.0,0.0,0.0,0.0,0.0,3.8132,3.9336,4.0673,0.0,0.0,0.0,0.0,0.0,0.0,3.1026,3.0643,3.0211,3.0211,3.0605,3.1465,3.346,3.5018,3.6929,4.0348,4.2908,4.5029,4.671,4.8602,5.0225,5.1028,5.1888,5.2615,5.3022,5.3926,5.4544,5.433,5.4315,5.4315,5.4315,5.4315,5.4315,5.4315,5.4315,5.4315,5.4315,5.4315,5.4315,5.4315,5.4315,5.4315,5.4315,5.4315,5.4315,5.4315,5.4315,5.4397,5.4623,5.4623,5.475,5.5014,5.4776,5.4802,5.4995,5.4832,5.4876,5.5078,5.5078,5.4832,5.4428,5.4647,5.4769,5.4813,5.5004,5.5078,5.5173,5.5969,5.6621,5.7268,0.0,0.0,0.0,0.0,0.0,0.0,0.0,0.0,0.0,0.0,0.0,0.0,0.0,0.0,2.9453,2.9186,0.0,0.0,0.0,0.0,0.0,0.0,0.0,0.0,0.0,3.0527,3.0732,3.0341,3.0398,3.193,3.4827,3.6203,3.7636,3.9021,3.963,4.0364,0.0,0.0,0.0,3.7302,0.0,0.0,4.0358,0.0,4.2144,4.3424,0.0,0.0,0.0,0.0,0.0,0.0,0.0,3.135,3.0211,3.0211,3.0605,3.1312,3.2428,0.0,0.0,0.0,4.0482,4.2259,4.5067,4.7016,4.8544,4.9671,5.0818,5.1773,5.2308,5.3358,5.414,5.4216,5.4223,5.4336,5.462,5.4676,5.4676,5.4676,5.4676,5.4676,5.4676,5.4676,5.4676,5.4676,5.4676,0.0,5.4676,5.4676,5.4676,5.4676,5.4676,5.4784,5.499,5.499,5.514,5.539,5.5183,5.5204,5.5432,5.5237,5.5275,5.5504,5.5527,5.525,5.4828,5.5072,5.5179,5.5218,5.5425,5.5504,5.5626,5.6759,5.7551,5.817,0.0,0.0,0.0,0.0,0.0,0.0,0.0,0.0,0.0,2.9929,0.0,0.0,0.0,0.0,0.0,3.0235,0.0,0.0,0.0,0.0,0.0,0.0,0.0,0.0,0.0,3.1107,3.1238,3.12,3.1371,3.2306,3.3937,3.4751,3.647,3.8744,3.6298,3.7035,4.0091,0.0,3.8916,3.9145,0.0,4.032,4.1008,0.0,0.0,0.0,4.5422,4.4322,0.0,4.0043,0.0,0.0,0.0,3.2256,3.023,3.0211,3.0249,3.0261,0.0,0.0,0.0,0.0,0.0,0.0,4.5086,0.0,4.6825,4.8621,5.0302,5.1455,5.1551,5.2193,5.3015,5.3874,5.4046,5.4371,5.525,5.5365,5.5365,5.5403,5.5403,5.5403,5.5403,5.5403,5.5403,5.5403,5.5403,5.5403,5.5403,5.5403,5.5403,5.5403,5.5403,5.5403,5.5403,5.5403,5.539,5.5408,5.5408,5.5444,5.5504,5.5504,5.5504,5.5516,5.5573,5.5596,5.5596,5.5527,5.5539,5.5596,5.5527,5.5504,5.5715,5.746,5.8092,5.8341,0.0,0.0,0.0,0.0,0.0,0.0,3.2831,3.1815,3.1007,0.0,0.0,0.0,3.1266,3.1727,3.1982,3.1785,0.0,0.0,0.0,0.0,0.0,2.9177,3.0853,3.1572,3.1097,3.1863,3.1989,3.1424,3.0832,3.1121,3.221,0.0,3.4093,3.5381,3.5248,3.5725,3.6519,3.5068,0.0,4.0673,3.9069,4.0979,0.0,0.0,0.0,0.0,0.0,4.694,4.5373,0.0,4.1705,3.7693,0.0,0.0,0.0,3.0395,3.1064,3.1744,3.0529,0.0,0.0,0.0,0.0,0.0,0.0,0.0,4.2851,4.5736,4.7188,4.8468,5.0321,5.0837,5.1276,5.2155,5.2785,5.3454,5.4333,5.4467,5.4696,5.5326,5.5403,5.5403,5.5403,5.5403,5.5403,0.0,5.5403,5.5403,5.5403,5.5403,5.5403,5.5403,5.5403,5.5403,5.5403,5.5403,5.5402,5.5408,5.5504,5.5551,5.5573,5.5618,5.564,5.566,5.5651,5.5662,5.5662,5.564,5.5671,5.5662,5.564,5.564,5.5841,5.7543,5.8184,5.8402,0.0,0.0,0.0,0.0,0.0,3.4382,3.408,3.353,3.3039,0.0,0.0,0.0,3.3351,3.3693,3.3679,0.0,0.0,0.0,0.0,2.9898,2.9646,2.9494,3.1317,3.2167,3.1822,3.2756,3.2833,3.1992,3.114,3.0796,3.0968,0.0,3.2114,3.2955,3.307,3.3509,3.4055,3.2374,0.0,0.0,4.0215,0.0,0.0,4.6519,4.757,0.0,0.0,0.0,4.757,4.757,4.4475,0.0,0.0,3.4464,3.37,3.1809,3.2447,0.0,0.0,0.0,0.0,0.0,0.0,0.0,3.8006,3.9498,0.0,0.0,4.5698,4.6959,4.8449,4.9308,4.9958,5.0474,5.1238,5.2174,5.3397,5.355,5.3874,5.4753,5.4868,5.5002,5.5365,5.5403,5.5403,5.5403,5.5403,5.5403,5.5403,5.5403,5.5403,5.5403,5.5409,5.5403,5.5403,5.5427,5.5456,5.548,5.5562,5.5607,5.564,5.5673,5.5703,5.5703,5.5703,5.5703,5.5703,5.5703,5.5703,5.5703,5.5703,5.5703,5.5857,5.7208,5.7935,5.8416,0.0,0.0,3.7235,3.7235,3.6625,3.5884,3.517,3.5608,3.5753,0.0,3.567,3.6333,3.6663,3.6564,3.5909,0.0,0.0,0.0,0.0,3.066,3.0353,3.0051,3.1579,3.2518,3.2691,3.3547,3.3624,3.2833,3.1878,3.1045,3.0338,3.0249,0.0,3.1312,3.0548,3.1026,3.2355,3.1236,0.0,3.8037,4.1791,4.3758,0.0,0.0,4.8582,4.8285,4.9882,4.992,4.9194,4.9033,4.6405,0.0,0.0,3.8122,3.7483,3.4224,3.4496,0.0,3.4688,3.4546,0.0,0.0,3.6672,0.0,3.9982,4.0386,4.0673,0.0,4.4618,4.5774,4.6156,4.7494,4.8575,4.867,4.9423,5.0646,5.2422,5.2671,5.2996,5.3855,5.3951,5.4295,5.5174,5.5269,5.5307,5.5403,5.5403,5.5403,5.5403,5.5403,5.5396,5.5396,5.5421,5.542,5.542,5.548,5.5539,5.5596,5.5607,5.564,5.5703,5.5703,5.5703,5.5703,5.5703,5.5703,5.5703,5.5703,5.5703,5.5703,5.5703,5.5703,5.5799,5.6676,5.755,5.8415,0.0,0.0,3.7988,3.8054,3.7414,3.6846,3.6744,3.6322,3.5939,3.579,3.6757,3.8201,4.0222,3.9439,0.0,0.0,0.0,0.0,0.0,0.0,3.1011,3.0955,3.2037,3.2668,3.2699,3.3547,3.3918,3.3738,3.2229,3.1408,3.1236,3.0529,3.0287,3.0452,3.0287,3.0376,3.0835,3.3223,0.0,3.7769,3.8591,0.0,4.712,4.7788,4.8793,4.9958,5.099,5.0799,4.9862,4.8506,4.7035,4.5211,0.0,0.0,4.0252,3.765,3.8044,3.8995,3.7539,3.7651,3.7824,3.6289,0.0,0.0,3.594,3.6938,3.8605,0.0,4.0234,4.1285,4.3987,4.477,4.522,4.5927,4.7302,4.9106,5.1505,5.183,5.2136,5.2957,5.3053,5.3397,5.4276,5.4352,5.4639,5.5345,5.5403,5.5403,5.5403,5.5396,5.5402,5.5402,5.5444,5.548,5.548,5.5551,5.5585,5.5596,5.5651,5.5692,5.5703,5.5703,5.5703,5.5703,5.5703,5.5703,5.5703,5.5703,5.5703,5.5703,5.5703,5.5703,5.5799,5.6676,5.755,5.8415,0.0,3.766,3.8352,3.8385,3.8123,3.7914,3.7927,3.7613,3.7631,3.8436,3.9911,4.1109,4.1684,4.1081,0.0,0.0,0.0,0.0,0.0,0.0,3.2724,3.1971,3.2851,3.3356,3.3356,3.4178,3.4407,3.3995,3.2726,3.1878,3.1484,3.0605,3.0643,3.1427,3.1026,3.1312,3.2179,0.0,3.5163,3.7368,4.031,0.0,4.7941,4.9202,5.0225,5.1009,5.1448,5.1047,5.0034,4.8361,4.7502,0.0,0.0,4.3417,4.356,0.0,4.0987,4.1995,4.0342,4.0236,4.04,3.9592,0.0,0.0,0.0,3.799,3.8428,4.01,3.9738,3.9928,4.2482,4.3279,4.3808,4.4624,4.6165,4.7697,4.8979,5.0195,5.1257,5.2098,5.2193,5.2537,5.3359,5.3454,5.383,5.4727,5.4803,5.4988,5.5427,5.5451,5.5456,5.5456,5.5516,5.5551,5.5551,5.5607,5.564,5.564,5.5673,5.5703,5.5703,5.5703,5.5703,5.5703,5.5703,5.5703,5.5703,5.5703,5.5703,5.5703,5.5703,5.5703,5.5799,5.6676,5.755,5.8415,0.0,3.7705,3.8494,3.851,3.8593,3.8673,3.8692,3.8735,3.9421,4.1267,4.3015,4.3803,4.3124,0.0,0.0,0.0,0.0,0.0,0.0,0.0,3.4846,3.3494,3.3949,3.4235,3.4235,3.4866,3.4885,3.4235,3.3196,3.2374,3.1713,3.0854,3.1178,3.2432,3.2114,3.2821,3.4197,0.0,0.0,3.8353,0.0,4.5774,4.7139,5.0034,5.1009,5.0913,5.1226,5.1009,5.0283,4.8621,4.8048,4.7638,4.525,4.5793,0.0,0.0,0.0,0.0,0.0,0.0,0.0,0.0,0.0,4.1908,0.0,0.0,0.0,4.086,4.0069,0.0,0.0,0.0,0.0,0.0,0.0,0.0,0.0,4.7949,0.0,5.0558,5.0925,5.1429,5.2231,5.2308,5.2784,5.3877,5.3647,5.4008,5.5205,5.5286,5.5362,5.5497,5.5585,5.5618,5.5618,5.5662,5.5703,5.5703,5.5703,5.5703,5.5703,5.5703,5.5703,5.5703,5.5703,5.5703,5.5703,5.5703,5.5703,5.5703,5.5703,5.5703,5.5799,5.6676,5.755,5.8415,3.6778,3.782,3.843,3.8494,3.851,3.8559,3.8673,3.8892,3.9993,4.2622,4.3779,4.4987,0.0,0.0,0.0,0.0,0.0,0.0,4.2945,0.0,0.0,3.6118,3.5411,3.5057,3.5057,3.5152,3.5171,3.5057,3.3482,3.2661,3.2546,3.1732,3.1427,3.161,3.307,3.4216,3.5114,0.0,3.8811,0.0,4.3873,4.3834,0.0,4.7837,4.8907,4.8418,4.992,5.0875,5.12,0.0,4.8941,4.8641,0.0,4.7578,4.8759,4.6928,0.0,0.0,0.0,0.0,0.0,0.0,4.4948,0.0,0.0,0.0,4.1008,3.9039,0.0,0.0,0.0,0.0,0.0,0.0,0.0,0.0,4.3335,4.494,4.6338,4.7165,4.8518,4.9691,5.0512,5.0588,5.1262,5.2927,5.1664,5.189,5.4304,5.4495,5.4855,5.5566,5.5651,5.5692,5.5692,5.5703,5.5703,5.5703,5.5703,5.5703,5.5703,5.5703,5.5703,5.5703,5.5703,5.5703,5.5703,5.5703,5.5703,5.5703,5.5703,5.5703,5.5799,5.6676,5.755,5.8415,3.7119,3.7644,0.0,3.8535,3.8609,3.8643,3.8692,4.1366,4.3571,4.4134,4.6571,4.8494,0.0,0.0,0.0,0.0,0.0,4.5029,0.0,0.0,0.0,3.8735,3.7387,3.6642,3.6642,3.6194,3.5698,3.5209,3.4025,3.3196,3.2699,3.2355,3.2699,3.3654,3.4904,3.6719,3.8858,0.0,3.9919,0.0,0.0,0.0,0.0,4.8372,5.0321,5.0099,5.0799,5.1036,5.0765,0.0,4.851,0.0,0.0,0.0,0.0,0.0,0.0,0.0,0.0,0.0,0.0,0.0,0.0,0.0,4.2081,0.0,4.0714,0.0,0.0,0.0,0.0,0.0,0.0,0.0,4.1461,0.0,0.0,0.0,4.4029,0.0,0.0,0.0,4.8028,4.8105,4.8837,5.061,5.0171,5.075,5.2916,5.4067,5.4832,5.518,5.567,5.5938,5.5938,5.5938,5.5938,5.5938,5.5938,5.5938,5.5938,5.5938,5.5938,5.5938,5.5938,5.5938,5.5938,5.5938,5.5938,5.5938,5.5938,5.6154,5.656,5.7434,5.828,5.9127,3.7345,0.0,0.0,3.87,3.881,3.9014,3.9629,4.3066,4.5631,4.5689,4.8447,0.0,5.0947,5.0455,0.0,0.0,5.0302,4.8391,0.0,0.0,4.2756,4.1724,3.9794,3.8744,3.8744,3.7483,3.6405,3.5564,3.4503,3.3681,3.3062,0.0,3.3711,3.4942,3.6481,3.8801,4.1476,0.0,4.1648,4.2775,4.352,4.3845,4.4399,4.8869,5.1001,5.1606,5.1357,5.1146,5.0767,4.9301,4.9004,0.0,4.8845,0.0,0.0,0.0,0.0,0.0,4.9478,0.0,0.0,0.0,0.0,0.0,0.0,0.0,0.0,0.0,0.0,0.0,0.0,0.0,0.0,0.0,0.0,4.1587,0.0,0.0,0.0,0.0,0.0,0.0,0.0,4.5809,4.6356,4.8414,4.8234,4.9138,5.1648,5.3313,5.4414,5.488,5.5683,5.6097,5.6097,5.6097,5.6097,5.6097,5.6097,5.6097,5.6097,5.6097,5.6097,5.6097,5.6097,5.6097,5.6097,5.6097,5.6097,5.6117,5.635,5.6874,5.7545,5.8172,5.8924,5.9764,3.7345,3.812,0.0,3.9031,3.9087,3.9813,4.194,4.2863,4.4366,4.732,0.0,0.0,0.0,0.0,0.0,0.0,0.0,5.3492,5.2537,0.0,4.6863,4.5201,4.2717,4.138,0.0,3.8935,3.7273,3.6462,3.4808,3.3995,3.3956,3.3956,3.3995,3.4186,3.7464,3.9871,4.1552,4.2374,4.5086,4.8689,4.7035,4.7837,4.9862,0.0,4.9495,5.1599,5.0746,0.0,0.0,5.0915,5.1312,0.0,0.0,0.0,0.0,0.0,0.0,0.0,0.0,0.0,0.0,4.7178,0.0,0.0,0.0,0.0,4.3352,0.0,0.0,0.0,0.0,0.0,0.0,0.0,0.0,0.0,0.0,0.0,0.0,0.0,0.0,0.0,0.0,4.4044,4.413,0.0,4.5464,4.6466,5.0803,5.1889,5.3152,5.4841,5.5683,5.6097,5.6097,5.6097,5.6097,5.6097,5.6097,5.6097,5.6097,5.6097,5.6097,5.6097,5.6097,5.6097,5.6097,5.6097,5.6097,5.6175,5.7036,5.7884,5.8648,5.8686,5.923,6.0092,0.0,0.0,0.0,0.0,3.9245,4.0234,4.2787,4.5723,4.8282,0.0,5.1948,0.0,0.0,5.6186,5.6645,0.0,0.0,5.5766,5.3798,5.1028,0.0,0.0,0.0,4.373,0.0,4.1227,3.9546,3.8143,3.7005,3.6181,3.5659,3.5646,3.5682,3.5833,3.8614,4.1121,0.0,0.0,0.0,0.0,0.0,4.9261,5.1901,0.0,5.0868,5.1679,5.2062,5.25,0.0,5.2731,5.2561,5.2441,5.2501,5.192,5.1257,5.155,5.1528,0.0,0.0,0.0,5.1707,4.9384,0.0,0.0,0.0,0.0,0.0,0.0,0.0,0.0,0.0,0.0,0.0,0.0,0.0,0.0,0.0,0.0,0.0,0.0,0.0,0.0,0.0,0.0,0.0,0.0,4.4935,0.0,4.9307,5.0879,5.2503,5.4258,5.5138,5.584,5.6425,5.6425,5.6425,5.6425,5.6425,5.6425,5.6425,5.6425,5.6425,5.6425,5.6425,5.6425,5.6425,5.6425,5.6425,5.6503,5.7345,5.8203,5.9003,5.9412,6.0086,6.0824,3.8465,0.0,0.0,3.937,4.0113,4.1563,4.4239,4.7717,5.0507,0.0,5.4008,0.0,5.7714,0.0,5.8135,0.0,5.8784,5.7581,5.4753,5.3282,0.0,5.1238,4.8872,0.0,0.0,0.0,4.2202,3.9918,3.9057,3.8042,3.6958,3.6673,3.6564,3.6715,3.9212,4.1589,4.3819,4.6107,4.759,0.0,0.0,5.1012,0.0,0.0,5.2379,5.2185,0.0,5.3498,5.3961,5.413,5.4099,5.4018,5.435,5.3635,5.2701,5.2961,5.2696,5.2423,5.2896,5.3108,0.0,5.1004,4.9753,0.0,4.5285,0.0,0.0,0.0,0.0,0.0,0.0,0.0,0.0,0.0,0.0,0.0,0.0,3.8326,0.0,0.0,0.0,0.0,0.0,0.0,4.1974,4.4093,4.4047,0.0,0.0,4.9974,5.1746,5.3483,5.4674,5.5728,5.6586,5.6606,5.6606,5.6606,5.6606,5.6606,5.6606,5.6606,5.6606,5.6606,5.6606,5.6606,5.6606,5.6606,5.6606,5.6704,5.7836,5.8616,5.9173,5.9878,6.0666,6.1387,3.9683,3.9872,4.0133,4.0209,4.1708,0.0,0.0,0.0,5.099,0.0,5.4448,5.6167,5.7848,5.802,5.867,6.0269,6.0403,5.9046,5.5861,5.6295,0.0,0.0,5.2303,5.1457,5.0546,0.0,0.0,0.0,4.0805,3.9503,3.7972,3.7121,3.6704,3.678,3.9284,0.0,4.3128,4.6503,4.9456,5.193,5.2735,5.3088,5.3234,5.4039,5.3847,5.3152,5.3367,5.4088,5.4976,5.5121,5.5802,5.6469,5.563,5.5337,5.5142,5.4303,5.4029,5.401,5.4049,5.4068,5.3678,5.2019,0.0,0.0,0.0,0.0,4.8759,0.0,0.0,0.0,0.0,0.0,0.0,0.0,0.0,0.0,0.0,0.0,0.0,0.0,0.0,0.0,0.0,4.0116,4.0688,4.3335,4.2815,4.3894,0.0,4.9109,5.0789,5.2587,5.4285,5.5611,5.6528,5.6547,5.6567,5.6606,5.6606,5.6606,5.6606,5.6606,5.6606,5.6606,5.6606,5.6606,5.6606,5.6606,5.6626,5.6821,5.8458,5.9141,5.9336,6.0159,6.0998,6.1698,4.0677,4.1917,4.3342,0.0,4.4711,4.5297,0.0,0.0,0.0,0.0,5.6205,5.7905,5.9568,5.9759,5.9931,6.0365,6.0444,0.0,0.0,0.0,0.0,5.6703,5.5341,5.3882,5.2368,4.9192,0.0,4.5322,0.0,4.044,4.0666,3.9161,3.8166,3.7728,3.9637,4.1407,4.3153,4.5937,4.9296,5.2839,5.3703,5.4414,5.4959,0.0,5.5176,5.4976,5.5216,5.5472,5.5767,5.6094,5.6382,5.6567,5.6333,5.5825,5.5259,5.5025,5.4517,5.4147,5.4791,5.4966,5.4869,5.44,5.3327,5.196,0.0,0.0,0.0,0.0,0.0,0.0,0.0,0.0,0.0,0.0,0.0,0.0,0.0,0.0,0.0,4.0406,0.0,0.0,0.0,4.0459,4.1257,4.2613,4.3103,0.0,0.0,0.0,4.9304,5.1668,5.28,5.411,5.5611,5.563,5.5962,5.6606,5.6606,5.6606,5.6606,5.6606,5.6606,5.6606,5.6606,5.6606,5.6606,5.6606,5.6957,5.7601,5.8675,5.9883,6.1054,6.1288,6.1503,6.1698,4.2373,4.4448,0.0,4.6978,0.0,0.0,4.9366,5.099,0.0,5.5116,5.7179,0.0,5.9775,6.0865,6.1414,6.1078,6.1081,0.0,5.9465,0.0,0.0,5.8081,5.7541,5.6637,5.5301,5.2297,0.0,4.7778,0.0,0.0,4.1658,3.9986,3.875,3.8084,4.0157,4.1583,4.2755,4.7155,5.0614,5.3257,5.4468,5.5237,0.0,5.6115,5.625,5.628,5.6872,5.6881,5.6596,5.6508,5.6762,5.7055,5.6704,5.6255,5.5864,5.5864,5.5513,5.524,5.5747,5.5864,5.5864,5.5864,5.5123,5.4088,5.2819,5.2917,5.2995,0.0,0.0,0.0,0.0,0.0,0.0,0.0,0.0,0.0,0.0,0.0,0.0,0.0,4.0424,0.0,0.0,0.0,4.0737,4.1225,4.2415,0.0,0.0,0.0,4.8954,5.077,5.2058,5.3543,5.5281,5.53,5.5747,5.6606,5.6606,5.6606,5.6606,5.6606,5.6606,5.6606,5.6606,5.6606,5.6626,5.6977,5.7387,5.7914,5.9183,6.051,6.1698,6.1698,6.1698,6.1698,4.4556,4.7245,0.0,0.0,0.0,0.0,0.0,5.3103,0.0,5.5683,0.0,5.9647,5.9689,6.1693,6.2741,6.2105,0.0,6.0962,5.8725,5.985,5.9977,5.85,5.9175,5.9199,5.8392,5.5646,5.2668,0.0,0.0,0.0,4.1654,4.005,3.8892,3.8277,4.0489,0.0,0.0,4.9173,5.2404,5.3356,5.503,5.5761,5.5953,5.6714,5.708,5.7275,5.8172,5.8078,5.7489,5.6841,5.7164,5.768,5.6977,5.6684,5.6606,5.6606,5.6606,5.6606,5.6606,5.6606,5.6606,5.6606,5.6606,5.6196,5.4693,5.4342,5.4342,5.4342,5.3034,5.2331,0.0,0.0,0.0,0.0,0.0,0.0,0.0,0.0,0.0,0.0,0.0,0.0,0.0,0.0,0.0,0.0,0.0,0.0,0.0,0.0,4.8798,4.9909,5.1511,5.3249,5.5103,5.5123,5.5611,5.6606,5.6606,5.6606,5.6606,5.6606,5.6606,5.6606,5.6606,5.6606,5.6665,5.7465,5.7933,5.8304,5.9924,6.1037,6.1698,6.1698,6.1698,6.1698,4.7024,0.0,0.0,0.0,0.0,5.5676,5.7577,5.7372,5.7378,5.84,6.0734,6.2331,6.2412,6.2814,6.3012,6.2823,6.2298,0.0,0.0,0.0,0.0,6.0263,6.0445,6.0154,5.9277,5.5371,5.2352,0.0,0.0,0.0,4.1665,4.0042,3.9227,3.9092,3.9527,0.0,4.524,4.9933,0.0,5.3356,5.503,5.6126,5.6791,5.6945,5.7453,5.8088,5.8267,5.8392,5.8467,5.8452,5.8155,5.7777,5.7621,5.7133,5.6606,5.6606,5.6606,5.6606,5.6606,5.6606,5.6606,5.6606,5.6606,5.6528,5.6216,5.6138,5.6138,5.6138,5.5337,5.4498,5.4088,0.0,0.0,0.0,0.0,0.0,0.0,0.0,0.0,0.0,0.0,4.1283,0.0,0.0,0.0,0.0,0.0,0.0,0.0,0.0,4.671,0.0,5.0028,0.0,0.0,0.0,5.5025,5.6606,5.6606,5.6606,5.6606,5.6606,5.6606,5.6606,5.6606,5.6606,5.6665,5.7465,5.8656,6.0041,6.1076,6.1562,6.1698,6.1698,6.1698,6.1698,5.1486,0.0,0.0,0.0,0.0,0.0,0.0,6.0692,6.0947,6.0048,6.1389,6.245,6.2529,6.3719,6.4333,6.3872,6.3118,6.2458,6.1934,6.1214,6.0788,6.0746,6.0788,6.0589,6.0185,5.7297,5.4536,5.1961,0.0,0.0,0.0,0.0,0.0,3.9418,4.07,4.3624,0.0,0.0,0.0,5.4607,5.5857,5.6907,5.7723,5.8127,5.855,5.8973,5.9435,5.9766,5.9872,5.9061,5.8905,5.8981,5.8587,5.8207,5.7816,5.7367,5.7211,5.7133,5.6704,5.6606,5.6606,5.6606,5.6606,5.6606,5.6606,5.6606,5.6606,5.6606,5.6274,5.5435,5.3659,5.1219,0.0,0.0,0.0,0.0,0.0,0.0,0.0,0.0,0.0,0.0,0.0,0.0,0.0,0.0,0.0,0.0,0.0,0.0,4.6632,0.0,0.0,0.0,5.3971,0.0,5.4869,5.6606,5.6606,5.6606,5.6606,5.6606,5.6606,5.6606,5.6606,5.684,5.7328,5.8616,5.9905,6.1115,6.1542,6.1698,6.1698,6.1698,6.1698,6.1698,0.0,5.6116,0.0,0.0,5.893,6.0367,6.1282,6.3136,6.3712,6.1697,6.2183,6.2746,6.2823,6.461,6.5564,6.491,6.4077,6.3212,6.2385,6.155,6.0993,6.08,6.08,6.08,6.08,5.9165,5.6626,0.0,0.0,0.0,0.0,0.0,0.0,0.0,0.0,0.0,0.0,0.0,5.3818,5.6049,5.6926,5.778,5.8627,5.9261,5.9627,5.9869,6.0588,6.0974,6.0976,5.9717,5.9721,6.0145,5.9558,5.9261,5.8968,5.8285,5.807,5.7894,5.7074,5.686,5.6801,5.6645,5.6606,5.6606,5.6606,5.6606,5.6606,5.6606,5.6606,5.5806,5.3173,5.1726,0.0,0.0,0.0,0.0,0.0,0.0,0.0,0.0,0.0,0.0,4.1246,0.0,0.0,0.0,0.0,0.0,4.2611,4.4621,4.6612,0.0,0.0,5.1082,5.3698,0.0,5.4869,5.6606,5.6606,5.6606,5.6606,5.6606,5.6606,5.6606,5.6606,5.7153,5.8207,5.9768,6.092,6.1698,6.1698,6.1698,6.1698,6.1698,6.1698,6.1698,0.0,0.0,0.0,0.0,0.0,6.3111,6.4007,6.4385,6.4475,6.4174,6.4891,6.5461,6.5538,6.5763,6.5853,6.5691,6.4955,6.4084,6.3156,6.2392,6.1639,6.0819,6.08,6.08,6.08,5.9165,5.6626,0.0,0.0,4.8386,0.0,0.0,0.0,0.0,0.0,0.0,0.0,5.3203,5.5261,5.6945,5.7838,5.8665,5.9396,5.9473,5.9992,6.07,6.0905,6.0993,6.1044,6.1192,6.0855,6.0366,6.0293,5.9749,5.9083,5.9007,5.8987,5.8792,5.7914,5.7699,5.7504,5.6782,5.6606,5.6606,5.6606,5.6606,5.6606,5.6606,5.6606,5.5806,5.3173,5.321,5.2565,0.0,0.0,0.0,0.0,0.0,0.0,4.6163,0.0,0.0,0.0,3.9097,0.0,0.0,4.0973,0.0,4.3489,4.3801,4.5109,4.7625,4.8505,5.0184,5.2802,5.362,5.4869,5.6606,5.6606,5.6606,5.6606,5.6606,5.6606,5.6606,5.6606,5.7504,5.9046,6.0002,6.092,6.1698,6.1698,6.1698,6.1698,6.1698,6.1698,6.1698,0.0,0.0,0.0,0.0,0.0,0.0,0.0,6.5365,6.5365,6.5353,6.5647,6.5872,6.5897,6.5897,6.5885,6.5859,6.5096,6.4442,6.4052,6.3269,6.2454,6.162,6.1581,6.1351,6.08,6.0146,5.8377,0.0,0.0,5.0626,4.748,4.6183,0.0,0.0,0.0,5.1877,5.3972,5.5469,5.7051,5.8531,5.8877,5.9531,6.0281,6.0281,6.0545,6.0923,6.0993,6.1123,6.1324,6.1441,6.1303,6.1065,6.1144,6.0939,6.0566,6.0022,5.9885,5.969,5.8812,5.8577,5.8499,5.8187,5.7719,5.7328,5.7328,5.6957,5.6606,5.6606,5.6606,5.6118,5.4556,5.3698,5.2761,0.0,0.0,0.0,0.0,0.0,0.0,0.0,0.0,4.3626,0.0,0.0,0.0,0.0,0.0,0.0,4.2806,4.3411,0.0,4.6749,0.0,5.0067,5.2665,5.3561,5.4869,5.6606,5.6606,5.6606,5.6606,5.6606,5.686,5.7348,5.7875,5.8773,5.9944,6.0822,6.1388,6.1698,6.1698,6.1698,6.1698,6.1698,6.1698,6.1698,6.3347,0.0,6.2414,0.0,6.3931,6.3783,6.5628,6.5897,6.5897,6.5897,6.5897,6.5897,6.5897,6.5897,6.5897,6.5897,6.534,6.4878,6.4628,6.4032,6.332,6.2493,6.2235,0.0,6.1204,6.0935,5.9685,5.7376,5.5624,5.3518,5.1068,5.0017,0.0,0.0,5.338,5.4964,5.6846,5.768,5.8796,6.0006,6.0006,6.0372,6.0913,6.0913,6.0983,6.1072,6.1123,6.1305,6.1514,6.1541,6.1569,6.158,6.1668,6.1698,6.1581,6.0959,6.0783,6.0588,5.9729,5.9475,5.9417,5.9161,5.8636,5.8128,5.7855,5.7367,5.6899,5.6645,5.6606,5.6333,5.5454,5.4088,5.2917,5.239,0.0,0.0,0.0,0.0,0.0,0.0,4.5987,4.4582,4.4465,4.2982,0.0,0.0,0.0,0.0,0.0,0.0,0.0,0.0,0.0,0.0,5.2685,5.3815,5.5123,5.6606,5.6606,5.6606,5.6606,5.6606,5.7035,5.7855,5.8714,5.9592,6.0471,6.1349,6.1698,6.1701,6.1703,6.1705,6.1705,6.1705,6.1705,6.1705,6.4296,6.4481,6.4763,6.5712,6.5859,6.5859,6.5897,6.5897,6.5897,6.5897,6.5897,6.5897,6.5897,6.5897,6.5897,6.5897,6.5878,6.5513,6.4666,6.4589,6.4205,0.0,0.0,6.2101,6.2082,6.1243,5.9973,5.828,0.0,0.0,5.4841,0.0,5.4952,5.4941,5.6595,5.7826,5.8713,5.9607,6.0436,6.1186,6.1186,6.1186,6.1206,6.1206,6.1206,6.1226,6.1412,6.151,6.1524,6.164,6.1698,6.1698,6.1698,6.1698,6.1698,6.1698,6.1679,6.1483,6.0627,6.0373,6.0178,5.9319,5.9083,5.887,5.7992,5.7797,5.7562,5.6762,5.6606,5.6333,5.5454,5.4576,5.3424,5.1707,0.0,0.0,0.0,0.0,0.0,0.0,4.5773,4.4387,4.6105,4.3139,0.0,0.0,0.0,0.0,0.0,0.0,0.0,4.7508,4.9206,0.0,5.2685,5.4422,5.5728,5.6606,5.6606,5.6606,5.6606,5.6606,5.7035,5.7855,5.8714,5.9592,6.0471,6.1349,6.1698,6.1701,6.1694,6.1697,6.1697,6.1697,6.1697,6.1696,6.541,6.5449,6.5545,6.5859,6.5897,6.5897,6.5897,6.5897,6.5897,6.5897,6.5897,6.5897,6.5897,6.5897,6.5897,0.0,6.5897,6.5782,0.0,6.5493,6.5137,6.4351,6.4072,6.3729,6.3277,6.2396,6.1699,6.1156,0.0,0.0,0.0,5.6853,5.751,5.8666,5.9209,5.9876,6.0627,6.09,6.1083,6.1206,6.1206,6.1206,6.1206,6.1206,6.1285,6.1406,6.1481,6.1569,6.1634,6.1693,6.1698,6.1698,6.1698,6.1698,6.1698,6.1698,6.1698,6.164,6.1369,6.1291,6.1213,6.0937,6.0432,5.9905,5.9631,5.8656,5.7562,5.6762,5.6606,5.6528,5.6235,5.5474,5.4517,5.3366,5.2663,0.0,0.0,0.0,0.0,0.0,4.6827,4.5695,0.0,4.5242,0.0,0.0,0.0,0.0,0.0,0.0,0.0,0.0,4.9472,0.0,5.2617,5.4314,5.5601,5.646,5.6414,5.6414,5.6479,5.7085,5.7849,5.873,5.9462,6.0299,6.1167,6.1503,6.1621,6.164,6.1672,6.1702,6.1697,6.1697,6.1697,6.1697,6.5897,6.5897,6.5897,6.5897,6.5897,6.5897,6.5897,6.5897,6.5897,6.5897,6.5897,6.5916,6.5974,6.5986,0.0,6.591,6.5897,6.5928,6.5967,6.5986,6.579,6.5382,6.5061,6.4715,6.4289,6.3434,0.0,6.2495,6.065,5.9546,5.9122,5.9178,5.9817,6.0881,6.0881,6.1133,6.158,6.158,6.1509,6.1392,6.1392,6.1392,6.1392,6.1392,6.1471,6.158,6.158,6.1628,6.1698,6.1698,6.1698,6.1698,6.1698,6.1698,6.1698,6.1698,6.1698,6.1698,6.1698,6.1698,6.1698,6.1698,6.1291,6.0803,6.0471,5.9046,5.766,5.7153,5.6801,5.6606,5.6606,5.5884,5.5005,5.4147,5.3268,5.2392,5.1517,0.0,0.0,0.0,0.0,0.0,0.0,4.7168,4.705,0.0,0.0,0.0,0.0,0.0,0.0,4.8089,5.0523,5.2378,5.3536,5.4884,5.5828,5.6375,5.6647,5.6806,5.6882,5.7738,5.8607,5.9499,5.9911,6.063,6.1473,6.1508,6.1514,6.1536,6.1574,6.1598,6.1581,6.1581,6.1581,6.1581,6.5897,6.5897,6.5897,0.0,6.5897,0.0,6.5903,6.5903,6.5916,6.594,6.594,6.5986,6.6108,6.6109,6.6065,6.5933,0.0,0.0,0.0,6.6109,6.6185,6.6302,6.5591,6.5217,6.5212,6.4363,6.3508,6.2627,6.1943,6.1597,6.1602,6.1673,6.1698,6.1698,6.1698,6.1698,6.1698,6.1698,6.1698,6.1698,6.1698,6.1698,6.1698,6.1698,6.1698,6.1698,6.1698,6.1698,6.1698,6.1698,6.1698,6.1698,6.1698,6.1698,6.1698,6.1698,6.1698,6.1698,6.1698,6.1698,6.1698,6.1698,6.1698,6.1464,6.0607,5.9143,5.7953,5.7816,5.7192,5.6665,5.6606,5.5884,5.5007,5.4149,5.327,5.2396,5.1527,0.0,0.0,0.0,0.0,0.0,0.0,4.8833,4.9151,0.0,0.0,0.0,0.0,0.0,4.8068,5.1186,5.2191,5.3439,5.507,5.59,5.6308,5.6386,5.7205,5.7615,5.7693,5.8508,5.9327,6.0091,6.0145,6.0637,6.1385,6.1389,6.1389,6.1389,6.1389,6.1404,6.1404,6.1404,6.1404,6.1409,0.0,0.0,6.5897,6.5897,6.5897,6.5933,6.6041,6.6044,6.6088,6.6184,6.6211,6.6219,6.6251,6.6251,6.6234,6.6211,6.6211,6.6228,6.6251,6.6251,6.6349,6.6527,6.6357,6.6283,6.6401,6.5581,6.4742,6.3865,6.3039,6.2638,6.2638,6.2005,6.1698,6.1698,6.1698,6.1698,6.1698,6.1698,6.1698,6.1698,6.1698,6.1698,6.1698,6.1698,6.1698,6.1698,6.1698,6.1698,6.1698,6.1698,6.1698,6.1698,6.1698,6.1698,6.1698,6.1698,6.1698,6.1698,6.1698,6.1698,6.1698,6.1698,6.1698,6.1464,6.0607,6.008,5.9417,5.807,5.7641,5.733,5.6714,5.589,5.5011,5.4146,5.3264,5.2404,5.1512,5.0654,0.0,0.0,4.986,4.9712,4.963,5.0176,5.0353,0.0,0.0,0.0,4.9862,5.0491,5.0948,5.1137,5.3266,5.4614,5.5019,5.5773,5.6465,5.7067,5.7319,5.7793,5.8466,5.9327,5.986,6.0138,6.065,6.1004,6.1245,6.1298,6.1324,6.133,6.1374,6.1392,6.1404,6.1404,6.1404,6.1409,6.6077,6.6077,6.6077,6.6077,6.6077,6.6118,6.6175,6.6184,6.6219,6.6299,6.6295,6.6337,6.6426,6.6432,6.6458,6.6516,6.6393,6.6344,6.6426,6.6432,6.6513,6.6678,6.6701,6.672,6.6795,6.6366,6.5741,6.4882,6.3613,6.3204,6.3574,6.2286,6.1913,6.2286,6.1874,6.1698,6.1698,6.1698,6.1698,6.1698,6.1698,6.1698,6.1698,6.1698,6.1698,6.1698,6.1698,6.1698,6.1698,6.1698,6.1698,6.1698,6.1698,6.1698,6.1698,6.1698,6.1698,6.1698,6.1698,6.1698,6.1698,6.1698,6.1698,6.1581,6.1095,6.0686,6.0122,5.9189,5.8352,5.767,5.727,5.6154,5.5002,5.4132,5.3271,5.2376,5.1484,5.0957,0.0,5.1091,5.1138,5.1268,5.1555,5.1998,5.2044,5.1581,5.1954,0.0,5.1521,5.2724,5.3067,5.2279,5.3972,5.5104,5.55,5.6254,5.6867,5.7299,5.8144,5.8789,5.9274,6.0126,6.0519,6.058,6.0951,6.1126,6.1161,6.1192,6.1217,6.1205,6.125,6.1253,6.1253,6.1253,6.1253,6.1253,6.6295,6.6295,6.6295,6.6295,6.6295,6.6322,6.6344,6.6344,6.6358,6.6379,6.6379,6.6445,6.6605,6.6634,6.6689,6.6792,6.6551,6.6452,6.661,6.6634,6.6674,6.6795,6.6795,6.6795,6.6795,6.6795,6.6463,6.578,6.4179,6.377,6.4455,6.2852,6.2423,6.2969,6.2228,6.1815,6.1718,6.1835,6.1815,6.1718,6.1991,6.1932,6.1718,6.1854,6.1893,6.1893,6.1893,6.1971,6.2091,6.2091,6.2091,6.2071,6.1932,6.1991,6.2032,6.1776,6.1796,6.1874,6.1737,6.1698,6.1698,6.1698,6.1698,6.1698,6.1698,6.1134,6.0555,6.0427,5.9219,5.8129,5.794,5.6573,5.5167,5.4155,5.3258,5.2363,5.1432,0.0,5.1728,5.2394,5.2693,5.3103,5.3722,5.3786,5.3816,5.3873,5.3749,5.3691,5.3691,5.4503,5.4672,5.3974,5.4622,5.5388,5.6273,5.7091,5.755,5.7705,5.9184,5.9957,6.0093,6.0789,6.1099,6.1099,6.1099,6.1099,6.1099,6.1099,6.1099,6.1099,6.1099,6.1099,6.1099,6.1099,6.1099,6.1099,6.6295,6.6295,6.6295,6.6295,6.6295,6.6358,6.6532,6.6544,6.6581,6.67,6.6727,6.6733,6.6762,6.6762,6.6787,6.6795,6.6739,6.6733,6.6762,6.6762,6.6787,6.6795,6.6795,6.6795,6.6795,6.6795,6.6737,6.66,6.5663,6.5273,6.537,6.4375,6.3574,6.2989,6.2852,6.2384,6.1757,6.2481,6.2364,6.1835,6.3301,6.3008,6.1776,6.252,6.2794,6.2794,6.2794,6.3262,6.3906,6.3906,6.3906,6.377,6.3028,6.3301,6.3613,6.213,6.2228,6.2637,6.1893,6.1698,6.1698,6.1698,6.1698,6.1698,6.1698,6.159,6.1286,6.0546,6.0181,5.9562,5.816,5.7085,5.5874,5.4257,5.3221,5.2312,5.1419,0.0,5.2317,5.233,5.3629,5.455,5.4618,5.4622,5.4896,5.5567,5.4987,5.46,5.46,5.5374,5.576,5.5623,5.575,5.6225,5.7112,5.7974,5.8758,5.9493,5.9764,6.0267,6.0925,6.1041,6.1099,6.1099,6.1099,6.1099,6.1099,6.1099,6.1099,6.1099,6.1099,6.1099,6.1099,6.1099,6.1099,6.1099,6.6571,6.6571,6.6571,6.6571,6.6571,6.6761,6.7329,6.7002,6.7074,6.8061,6.7791,6.7673,6.8142,6.82,6.82,6.82,6.7771,6.7498,6.7498,6.7068,6.6795,6.6795,6.6795,6.6795,6.6795,6.6795,6.6795,6.6795,6.5995,6.5819,6.6229,6.4904,6.4336,6.4375,6.3906,6.3477,6.3125,6.3535,6.3477,6.3164,6.3984,6.3828,6.3145,6.3555,6.3691,6.3691,6.3691,6.3965,6.4299,6.4299,6.4299,6.424,6.3828,6.3984,6.4143,6.334,6.2716,6.2208,6.1815,6.1698,6.1698,6.1698,6.1705,6.1709,6.1709,6.1697,6.1588,6.1182,6.0736,6.0153,5.9394,5.7792,5.6465,5.6066,5.4473,0.0,0.0,5.3152,5.3388,5.4202,5.5002,5.5843,5.6756,5.6418,5.6302,5.6661,5.636,5.6147,5.6147,5.694,5.7404,5.7404,5.7404,5.7598,5.8004,5.8855,5.9493,5.9899,6.0344,6.0731,6.1099,6.1099,6.1099,6.1099,6.1099,6.1099,6.1099,6.1099,6.1099,6.1099,6.1099,6.1099,6.1099,6.1099,6.1099,6.1099,6.6795,6.6795,6.6795,6.6795,6.6795,6.7029,6.7693,6.7224,6.7342,6.8903,6.8513,6.8435,6.9294,6.9391,6.9391,6.9391,6.8786,6.8318,6.8103,6.7478,6.701,6.6815,6.6795,6.6795,6.6795,6.6795,6.6795,6.6795,6.617,6.619,6.6776,6.549,6.5136,6.5565,6.4902,6.4494,6.4319,6.4514,6.4494,6.4338,6.4728,6.465,6.4319,6.4533,6.4589,6.4589,6.4589,6.4728,6.4885,6.4885,6.4885,6.4846,6.4667,6.4728,6.4807,6.4418,6.3347,6.2254,6.2052,6.1859,6.1707,6.1705,6.1694,6.1701,6.1701,6.1707,6.1693,6.1697,6.117,6.0644,6.0428,5.8787,5.7512,5.7646,0.0,0.0,0.0,5.4776,5.4927,5.6156,5.6476,5.7134,5.8468,5.7985,5.7598,5.7598,5.7598,5.7598,5.7598,5.8236,5.869,5.8894,5.8894,5.8894,5.8894,5.9745,6.017,6.019,6.0809,6.1099,6.1099,6.1099,6.1099,6.1099,6.1099,6.1099,6.1099,6.1099,6.1099,6.1099,6.1099,6.1099,6.1099,6.1099,6.1099,6.1099,6.6795,6.6795,6.6795,6.6795,6.6795,6.6815,6.6893,6.6834,6.7146,6.8064,6.8142,6.8435,6.9294,6.9391,6.9391,6.9391,6.9333,6.8962,6.8142,6.8044,6.7634,6.6834,6.6795,6.6795,6.6795,6.6795,6.6795,6.6795,6.6737,6.6737,6.6795,6.6678,6.6249,6.5604,6.5526,6.5058,6.4358,6.5155,6.5038,6.4436,6.5997,6.5685,6.4397,6.5194,6.5507,6.5507,6.5507,6.5975,6.6619,6.6619,6.6619,6.6483,6.5741,6.6014,6.631,6.4759,6.4202,6.3931,6.3113,6.2301,6.1705,6.1699,6.1702,6.1708,6.1708,6.1694,6.1697,6.1697,6.1659,6.1346,6.0464,6.0143,5.9502,5.7875,0.0,0.0,5.6201,5.6641,5.7065,5.7183,5.7927,5.8449,5.8593,5.8526,5.8488,5.8488,5.8488,5.8488,5.8488,5.8574,5.8971,5.9783,5.9803,5.9803,5.9803,6.0615,6.1002,6.1002,6.1079,6.1099,6.1099,6.1099,6.1099,6.1099,6.1099,6.1099,6.1099,6.1099,6.1099,6.1099,6.1099,6.1099,6.1099,6.1099,6.1099,6.1099,6.6795,6.6795,6.6795,6.6795,6.742,6.8025,6.8357,6.8415,6.8923,7.0328,7.0055,7.0035,7.0914,7.1011,7.1011,7.1011,7.0523,7.0074,6.9723,6.9215,6.8513,6.7634,6.7088,6.7049,6.7595,6.7088,6.6795,6.6795,6.6795,6.6795,6.6795,6.6795,6.6639,6.6346,6.6346,6.6151,6.588,6.619,6.6151,6.5919,6.6541,6.6424,6.5897,6.6209,6.6346,6.6346,6.6346,6.6546,6.6807,6.6807,6.683,6.6817,6.6504,6.6621,6.6738,6.6097,6.5538,6.5032,6.4691,6.358,6.2509,6.2507,6.2101,6.1695,6.1695,6.1679,6.163,6.163,6.1571,6.142,6.1061,6.0547,6.0105,5.9935,0.0,5.827,5.8482,5.828,5.8314,5.8855,5.9203,5.959,6.0093,5.9706,5.9416,5.9416,5.9416,5.9416,5.9416,5.988,6.0306,6.0634,6.0634,6.0634,6.0634,6.0944,6.1099,6.1099,6.1099,6.1099,6.1099,6.1099,6.1099,6.1099,6.1099,6.1099,6.1099,6.1099,6.1099,6.1099,6.1099,6.1099,6.1099,6.1099,6.1099,6.1099,6.6795,6.6795,6.6893,6.7166,6.7888,6.8669,6.9294,6.9391,6.9938,7.1402,7.107,7.1031,7.1909,7.2007,7.2007,7.2007,7.1441,7.0992,7.0718,6.9879,6.9137,6.8532,6.7947,6.7771,6.8083,6.7517,6.7068,6.6795,6.6795,6.6795,6.6795,6.6795,6.6798,6.6802,6.6802,6.6805,6.6826,6.6826,6.6824,6.6802,6.6802,6.6802,6.6802,6.6802,6.6805,6.6826,6.6826,6.683,6.6836,6.6836,6.6859,6.6904,6.6904,6.6905,6.6906,6.6906,6.6444,6.5956,6.5957,6.4862,6.3669,6.3418,6.2715,6.2068,6.2024,6.1766,6.1537,6.1537,6.1456,6.1383,6.1367,6.087,6.0635,6.1162,6.0232,5.9642,6.0208,5.9764,5.9609,6.0209,6.0286,6.0499,6.106,6.0596,6.0286,6.0286,6.0286,6.0286,6.0286,6.0809,6.1099,6.1099,6.1099,6.1099,6.1099,6.1099,6.1099,6.1099,6.1099,6.1099,6.1099,6.1099,6.1099,6.1099,6.1099,6.1099,6.1099,6.1099,6.1099,6.1099,6.1099,6.1099,6.1099,6.1099,6.1099,6.1099,6.6795,6.6815,6.7088,6.7947,6.8103,6.8415,6.9274,6.9411,6.9723,7.0601,7.0718,7.1031,7.1909,7.2007,7.2007,7.2007,7.2007,7.1636,7.0777,6.9899,6.9411,6.9411,6.9411,6.9001,6.8142,6.8103,6.7693,6.6815,6.6815,6.6817,6.6817,6.6798,6.6802,6.6791,6.6791,6.6836,6.6904,6.6904,6.6859,6.6791,6.6791,6.6791,6.6791,6.6791,6.6838,6.6904,6.6904,6.6904,6.6904,6.6904,6.6904,6.6904,6.6904,6.6908,6.6911,6.6911,6.6811,6.6717,6.6717,6.6023,6.5114,6.4314,6.3505,6.2878,6.2736,6.2031,6.1412,6.1412,6.1393,6.1378,6.1311,6.1303,6.1252,6.1107,6.1099,6.1099,6.1099,6.1099,6.1099,6.1099,6.1099,6.1099,6.1099,6.1099,6.1099,6.1099,6.1099,6.1099,6.1099,6.1099,6.1099,6.1099,6.1099,6.1099,6.1099,6.1099,6.1099,6.1099,6.1099,6.1099,6.1099,6.1099,6.1099,6.1099,6.1099,6.1099,6.1099,6.1099,6.1099,6.1099,6.1099,6.1099,6.1099,6.1099,6.1099,6.1099,6.6795,6.7283,6.7791,6.8044,6.9118,7.0016,7.027,7.0836,7.1324,7.1577,7.1616,7.1714,7.1968,7.2007,7.2007,7.2007,7.2007,7.189,7.1636,7.1363,7.1226,7.1226,7.0055,6.9567,6.9918,6.9333,6.8884,6.861,6.8015,6.7707,6.7707,6.7127,6.6878,6.686,6.686,6.6881,6.6904,6.6904,6.6883,6.686,6.686,6.686,6.686,6.686,6.6881,6.6904,6.6904,6.6906,6.6909,6.6909,6.6892,6.6992,6.7512,6.7679,6.777,6.8294,6.7989,6.7476,6.7476,6.6868,6.6016,6.5152,6.4298,6.3661,6.3629,6.2902,6.2238,6.2238,6.167,6.1189,6.1159,6.1169,6.1143,6.1108,6.1099,6.1099,6.1099,6.1099,6.1099,6.1099,6.1099,6.1099,6.1099,6.1099,6.1099,6.1099,6.1099,6.1099,6.1099,6.1099,6.1099,6.1099,6.1099,6.1099,6.1099,6.1099,6.1099,6.1099,6.1099,6.1099,6.1099,6.1099,6.1099,6.1099,6.1099,6.1099,6.1099,6.1099,6.1099,6.1099,6.1099,6.1099,6.1099,6.1099,6.1099,6.1099,6.7752,6.8259,6.8727,6.9079,6.9996,7.0816,7.1167,7.1655,7.2007,7.2007,7.2007,7.2007,7.2007,7.2007,7.2007,7.2007,7.1993,7.1997,7.2002,7.2002,7.2002,7.2002,7.0987,7.0516,7.0707,7.0186,6.9759,6.9408,6.8867,6.8615,6.8595,6.8112,6.7881,6.7884,6.7884,6.7885,6.7886,6.7886,6.7886,6.7884,6.7884,6.7884,6.7884,6.7884,6.7869,6.7851,6.7851,6.7827,6.7773,6.7773,6.777,6.7798,6.7897,6.7922,6.795,6.8067,6.7706,6.7242,6.7242,6.6854,6.632,6.5788,6.5032,6.4435,6.4402,6.3701,6.3028,6.3028,6.2284,6.1621,6.1621,6.1331,6.1099,6.1099,6.1099,6.1099,6.1099,6.1099,6.1099,6.1099,6.1099,6.1099,6.1099,6.1099,6.1099,6.1099,6.1099,6.1099,6.1099,6.1099,6.1099,6.1099,6.1099,6.1099,6.1099,6.1099,6.1099,6.1099,6.1099,6.1099,6.1099,6.1099,6.1099,6.1099,6.1099,6.1099,6.1099,6.1099,6.1099,6.1099,6.1099,6.1099,6.1099,6.1099,6.1099,6.1099,6.9235,6.945,6.9762,7.0562,7.0757,7.1089,7.187,7.2007,7.2007,7.2007,7.2007,7.2007,7.2009,7.2009,7.2009,7.1993,7.2002,7.1991,7.1999,7.1999,7.1999,7.1999,7.2001,7.1628,7.0824,7.0808,7.0438,6.9638,6.9544,6.9506,6.9506,6.9429,6.9373,6.9375,6.9375,6.9375,6.9373,6.9373,6.9374,6.9375,6.9375,6.9375,6.9375,6.9375,6.9347,6.9282,6.9282,6.9198,6.9098,6.9098,6.9098,6.8981,6.8235,6.8015,6.7879,6.7225,6.6828,6.6621,6.6621,6.6406,6.6205,6.6205,6.5708,6.5184,6.5112,6.4435,6.3816,6.3816,6.311,6.253,6.253,6.1795,6.1215,6.1215,6.1157,6.1099,6.1099,6.1099,6.1099,6.1099,6.1099,6.1099,6.1099,6.1099,6.1099,6.1099,6.1099,6.1099,6.1099,6.1099,6.1099,6.1099,6.1099,6.1099,6.1099,6.1099,6.1099,6.1099,6.1099,6.1099,6.1099,6.1099,6.1099,6.1099,6.1099,6.1099,6.1099,6.1099,6.1099,6.1099,6.1099,6.1099,6.1099,6.1099,6.1099,6.1099,6.9235,6.9957,7.0484,7.0679,7.1265,7.1772,7.1968,7.2007,7.2007,7.2007,7.2007,7.1993,7.2002,7.2002,7.2006,7.1994,7.1996,7.1998,7.1999,7.1999,7.1999,7.1999,7.2005,7.1855,7.1574,7.1658,7.163,7.1434,7.0643,7.0282,7.0321,6.953,6.9178,6.9174,6.9174,6.917,6.9166,6.9166,6.917,6.9174,6.9174,6.9174,6.9174,6.9174,6.9157,6.9134,6.9134,6.9119,6.9098,6.9098,6.9098,6.9178,6.9556,6.9675,6.9768,7.0156,6.9324,6.8277,6.8277,6.726,6.6205,6.6205,6.609,6.5954,6.5944,6.5315,6.4725,6.4725,6.4019,6.342,6.342,6.2704,6.2124,6.2124,6.1543,6.1099,6.1099,6.1099,6.1099,6.1099,6.1099,6.1099,6.1099,6.1099,6.1099,6.1099,6.1099,6.1099,6.1099,6.1099,6.1099,6.1099,6.1099,6.1099,6.1099,6.1099,6.1099,6.1099,6.1099,6.1099,6.1099,6.1099,6.1099,6.1099,6.1099,6.1099,6.1099,6.1099,6.1099,6.1099,6.1099,6.1099,6.1099,6.1099,6.1099,6.1099,7.0387,7.1011,7.1324,7.1324,7.1694,7.2007,7.2007,7.2007,7.2009,7.1997,7.1997,7.2002,7.1993,7.1993,7.1998,7.2004,7.2005,7.197,7.1912,7.1892,7.1889,7.1856,7.1868,7.1812,7.1757,7.1819,7.1854,7.1854,7.1332,7.109,7.1109,7.06,7.033,7.033,7.033,7.033,7.033,7.033,7.033,7.033,7.033,7.033,7.033,7.033,7.029,7.0233,7.0233,7.021,7.016,7.016,7.016,7.0144,7.0107,7.0098,7.0099,7.0105,6.9493,6.8796,6.8796,6.7829,6.6824,6.6824,6.6514,6.6205,6.6205,6.5876,6.5566,6.5566,6.4889,6.4319,6.4319,6.3613,6.3013,6.3013,6.2646,6.2201,6.1776,6.1718,6.1563,6.1157,6.1099,6.1099,6.1099,6.1099,6.1099,6.1099,6.1099,6.1099,6.1099,6.1099,6.1099,6.1099,6.1099,6.1099,6.1099,6.1099,6.1099,6.1099,6.1099,6.1099,6.1099,6.1099,6.1099,6.1099,6.1099,6.1099,6.1099,6.1099,6.1099,6.1099,6.1099,6.1099,6.1099,6.1099,6.1099,6.1099,7.146,7.1909,7.2007,7.2007,7.2007,7.2007,7.2007,7.2009,7.1995,7.2004,7.2008,7.1993,7.2001,7.2003,7.1988,7.1972,7.1972,7.191,7.178,7.1777,7.1769,7.1705,7.17,7.1689,7.1671,7.1671,7.1683,7.17,7.1683,7.1671,7.1671,7.1647,7.1634,7.1634,7.1634,7.1634,7.1634,7.1634,7.1634,7.1634,7.1634,7.1634,7.1634,7.1634,7.1559,7.1478,7.1478,7.1388,7.1291,7.1291,7.1291,7.1175,7.044,7.0208,7.0092,6.9415,6.9125,6.9009,6.9009,6.839,6.7713,6.7713,6.7172,6.6611,6.6456,6.6301,6.6205,6.6205,6.5663,6.5199,6.5199,6.4513,6.3932,6.3932,6.3797,6.3449,6.2723,6.2627,6.2298,6.1427,6.1195,6.1099,6.1099,6.1099,6.1099,6.1099,6.1099,6.1099,6.1099,6.1099,6.1099,6.1099,6.1234,6.1331,6.1331,6.1466,6.1543,6.1543,6.1543,6.1389,6.1099,6.1099,6.1099,6.1099,6.1099,6.1099,6.1099,6.1099,6.1099,6.1099,6.1099,6.1099,6.1099,6.1099,6.1195,6.1331,7.0679,7.148,7.2007,7.2007,7.2007,7.2007,7.2007,7.1997,7.2004,7.2006,7.1994,7.2002,7.2008,7.1991,7.1951,7.1848,7.1824,7.178,7.1712,7.1701,7.1716,7.17,7.17,7.1653,7.1521,7.154,7.1587,7.17,7.1587,7.154,7.1513,7.1416,7.1348,7.1348,7.1348,7.1348,7.1348,7.1348,7.1348,7.1348,7.1348,7.1348,7.1348,7.1348,7.1346,7.1326,7.1326,7.1324,7.1291,7.1291,7.1291,7.1272,7.1156,7.1117,7.1098,7.0982,7.0421,6.9841,6.9841,6.9241,6.8622,6.8622,6.8545,6.8255,6.7501,6.6746,6.6205,6.6205,6.6108,6.6031,6.6031,6.5373,6.4822,6.4822,6.4203,6.3661,6.3545,6.3526,6.3187,6.2336,6.1563,6.1099,6.1099,6.1099,6.1099,6.1099,6.1099,6.1099,6.1099,6.1099,6.1099,6.1099,6.1834,6.222,6.222,6.2975,6.3352,6.3352,6.3352,6.2549,6.1099,6.1099,6.1099,6.1099,6.1099,6.1099,6.1099,6.1099,6.1099,6.1099,6.1099,6.1099,6.1099,6.1099,6.1582,6.222,7.0523,7.1402,7.199,7.1997,7.1997,7.2,7.2006,7.1993,7.1996,7.2002,7.2004,7.1971,7.1907,7.1844,7.181,7.1753,7.1748,7.1707,7.1601,7.1587,7.1551,7.1476,7.1467,7.1452,7.1388,7.1378,7.1426,7.1467,7.1426,7.1378,7.1397,7.1326,7.1291,7.1291,7.1291,7.1291,7.1291,7.1291,7.1291,7.1291,7.1291,7.1291,7.1291,7.1291,7.1291,7.1349,7.1852,7.2336,7.2742,7.2742,7.2742,7.2742,7.2742,7.2413,7.2026,7.2026,7.1407,7.0731,7.0731,7.0112,6.9473,6.9473,6.9125,6.87,6.8313,6.7926,6.7384,6.6398,6.6205,6.6205,6.6205,6.5915,6.5663,6.5663,6.5354,6.4928,6.4493,6.4435,6.3922,6.2569,6.2066,6.164,6.1157,6.1099,6.1099,6.1099,6.1099,6.1099,6.1099,6.1563,6.1834,6.1834,6.2665,6.3129,6.3129,6.3507,6.37,6.37,6.37,6.3313,6.2549,6.2549,6.2298,6.1834,6.1834,6.1543,6.1099,6.1099,6.1099,6.1157,6.164,6.2124,6.2549,6.2549,6.2801,6.3129]}]]